Time,TemperatureF,DewpointF,PressureIn,WindDirection,WindDirectionDegrees,WindSpeedMPH,WindSpeedGustMPH,Humidity,HourlyPrecipIn,Conditions,Clouds,dailyrainin,SoftwareType,DateUTC
2013-05-11 00:00:00,59.0,57.3,29.82,North,9,0.0,0.0,94,0.00,,BKN120,0.00,VWS V14.00,2013-05-11 04:00:00,
2013-05-11 00:01:00,59.0,57.3,29.82,North,9,0.0,0.0,94,0.00,,BKN120,0.00,VWS V14.00,2013-05-11 04:01:00,
2013-05-11 00:02:00,59.0,57.3,29.82,North,9,0.0,0.0,94,0.00,,BKN120,0.00,VWS V14.00,2013-05-11 04:02:00,
2013-05-11 00:03:00,59.0,57.3,29.82,North,9,0.0,0.0,94,0.00,,BKN120,0.00,VWS V14.00,2013-05-11 04:03:00,
2013-05-11 00:04:00,59.0,57.0,29.82,North,9,0.0,0.0,93,0.00,,BKN120,0.00,VWS V14.00,2013-05-11 04:04:00,
2013-05-11 00:05:00,59.0,57.0,29.82,North,9,0.0,0.0,93,0.00,,BKN120,0.00,VWS V14.00,2013-05-11 04:05:00,
2013-05-11 00:06:00,58.9,56.9,29.82,North,9,0.0,0.0,93,0.00,,BKN120,0.00,VWS V14.00,2013-05-11 04:06:00,
2013-05-11 00:07:00,58.9,56.9,29.82,North,9,0.0,0.0,93,0.00,,BKN120,0.00,VWS V14.00,2013-05-11 04:07:00,
2013-05-11 00:08:00,58.9,56.9,29.82,North,9,0.0,0.0,93,0.00,,BKN120,0.00,VWS V14.00,2013-05-11 04:08:00,
2013-05-11 00:09:00,58.9,56.9,29.82,North,9,0.0,0.0,93,0.00,,BKN120,0.00,VWS V14.00,2013-05-11 04:09:00,
2013-05-11 00:10:00,59.0,57.0,29.82,North,9,0.0,0.0,93,0.00,,BKN120,0.00,VWS V14.00,2013-05-11 04:10:00,
2013-05-11 00:11:00,59.0,57.0,29.82,North,9,0.0,0.0,93,0.00,,BKN120,0.00,VWS V14.00,2013-05-11 04:11:00,
2013-05-11 00:12:00,59.0,57.0,29.82,North,9,0.0,0.0,93,0.00,,BKN120,0.00,VWS V14.00,2013-05-11 04:12:00,
2013-05-11 00:13:00,59.0,57.0,29.82,North,9,0.0,0.0,93,0.00,,BKN120,0.00,VWS V14.00,2013-05-11 04:13:00,
2013-05-11 00:14:00,59.0,57.0,29.82,North,9,0.0,0.0,93,0.00,,BKN120,0.00,VWS V14.00,2013-05-11 04:14:00,
2013-05-11 00:15:00,59.0,57.0,29.82,North,9,0.0,0.0,93,0.00,,BKN120,0.00,VWS V14.00,2013-05-11 04:15:00,
2013-05-11 00:16:00,59.0,57.0,29.82,North,9,0.0,0.0,93,0.00,,BKN120,0.00,VWS V14.00,2013-05-11 04:16:00,
2013-05-11 00:17:00,59.0,57.0,29.82,North,9,0.0,0.0,93,0.00,,BKN120,0.00,VWS V14.00,2013-05-11 04:17:00,
2013-05-11 00:18:00,59.0,57.0,29.82,North,9,0.0,0.0,93,0.00,,BKN120,0.00,VWS V14.00,2013-05-11 04:18:00,
2013-05-11 00:19:00,59.0,57.0,29.82,North,9,0.0,0.0,93,0.00,,BKN120,0.00,VWS V14.00,2013-05-11 04:19:00,
2013-05-11 00:20:00,59.1,57.4,29.82,North,9,0.0,0.0,94,0.00,,BKN120,0.00,VWS V14.00,2013-05-11 04:20:00,
2013-05-11 00:21:00,59.3,57.6,29.82,North,9,0.0,0.0,94,0.00,,BKN120,0.00,VWS V14.00,2013-05-11 04:21:00,
2013-05-11 00:22:00,59.4,57.7,29.82,North,9,0.0,0.0,94,0.00,,BKN120,0.00,VWS V14.00,2013-05-11 04:22:00,
2013-05-11 00:23:00,59.5,57.8,29.82,North,9,0.0,0.0,94,0.00,,BKN120,0.00,VWS V14.00,2013-05-11 04:23:00,
2013-05-11 00:24:00,59.6,57.9,29.82,North,9,0.0,0.0,94,0.00,,BKN120,0.00,VWS V14.00,2013-05-11 04:24:00,
2013-05-11 00:25:00,59.7,58.0,29.82,North,9,0.0,0.0,94,0.00,,BKN120,0.00,VWS V14.00,2013-05-11 04:25:00,
2013-05-11 00:26:00,59.7,58.0,29.82,North,9,0.0,0.0,94,0.00,,BKN120,0.00,VWS V14.00,2013-05-11 04:26:00,
2013-05-11 00:27:00,59.8,58.1,29.82,North,9,0.0,0.0,94,0.00,,BKN120,0.00,VWS V14.00,2013-05-11 04:27:00,
2013-05-11 00:28:00,59.8,58.1,29.82,North,9,0.0,0.0,94,0.00,,BKN120,0.00,VWS V14.00,2013-05-11 04:28:00,
2013-05-11 00:29:00,59.8,58.1,29.82,North,9,0.0,0.0,94,0.00,,BKN120,0.00,VWS V14.00,2013-05-11 04:29:00,
2013-05-11 00:30:00,59.8,58.1,29.82,North,9,0.0,0.0,94,0.00,,BKN120,0.00,VWS V14.00,2013-05-11 04:30:00,
2013-05-11 00:31:00,59.8,58.1,29.82,North,9,0.0,0.0,94,0.00,,BKN120,0.00,VWS V14.00,2013-05-11 04:31:00,
2013-05-11 00:32:00,59.8,57.8,29.82,North,9,0.0,0.0,93,0.00,,BKN120,0.00,VWS V14.00,2013-05-11 04:32:00,
2013-05-11 00:33:00,59.8,57.8,29.82,North,9,0.0,0.0,93,0.00,,BKN120,0.00,VWS V14.00,2013-05-11 04:33:00,
2013-05-11 00:34:00,59.7,57.7,29.82,North,9,0.0,0.0,93,0.00,,BKN120,0.00,VWS V14.00,2013-05-11 04:34:00,
2013-05-11 00:35:00,59.7,57.7,29.82,North,9,0.0,0.0,93,0.00,,BKN120,0.00,VWS V14.00,2013-05-11 04:35:00,
2013-05-11 00:36:00,59.6,57.6,29.82,North,9,0.0,0.0,93,0.00,,BKN120,0.00,VWS V14.00,2013-05-11 04:36:00,
2013-05-11 00:37:00,59.6,57.6,29.82,North,9,0.0,0.0,93,0.00,,BKN120,0.00,VWS V14.00,2013-05-11 04:37:00,
2013-05-11 00:38:00,59.7,57.7,29.82,North,9,0.0,0.0,93,0.00,,BKN120,0.00,VWS V14.00,2013-05-11 04:38:00,
2013-05-11 00:39:00,59.8,58.1,29.82,North,9,0.0,0.0,94,0.00,,BKN120,0.00,VWS V14.00,2013-05-11 04:39:00,
2013-05-11 00:40:00,59.8,58.1,29.82,North,9,0.0,0.0,94,0.00,,BKN120,0.00,VWS V14.00,2013-05-11 04:40:00,
2013-05-11 00:41:00,59.8,58.1,29.82,North,9,0.0,0.0,94,0.00,,BKN120,0.00,VWS V14.00,2013-05-11 04:41:00,
2013-05-11 00:42:00,59.9,58.2,29.82,North,9,0.0,0.0,94,0.00,,BKN120,0.00,VWS V14.00,2013-05-11 04:42:00,
2013-05-11 00:43:00,59.9,58.2,29.82,North,9,0.0,0.0,94,0.00,,BKN120,0.00,VWS V14.00,2013-05-11 04:43:00,
2013-05-11 00:44:00,59.9,58.2,29.82,North,9,0.0,0.0,94,0.00,,BKN120,0.00,VWS V14.00,2013-05-11 04:44:00,
2013-05-11 00:45:00,59.8,58.1,29.82,North,9,0.0,1.0,94,0.00,,BKN120,0.00,VWS V14.00,2013-05-11 04:45:00,
2013-05-11 00:46:00,59.7,57.7,29.82,North,9,2.0,2.0,93,0.00,,BKN120,0.00,VWS V14.00,2013-05-11 04:46:00,
2013-05-11 00:47:00,59.5,57.5,29.82,ENE,78,3.0,3.0,93,0.00,,BKN120,0.01,VWS V14.00,2013-05-11 04:47:00,
2013-05-11 00:48:00,59.3,57.3,29.83,ESE,107,3.0,4.0,93,0.00,,BKN120,0.02,VWS V14.00,2013-05-11 04:48:00,
2013-05-11 00:49:00,59.0,57.0,29.82,SE,126,2.0,4.0,93,0.72,,BKN120,0.03,VWS V14.00,2013-05-11 04:49:00,
2013-05-11 00:50:00,59.0,57.0,29.82,SSW,211,0.0,4.0,93,0.49,,OVC100,0.04,VWS V14.00,2013-05-11 04:50:00,
2013-05-11 00:51:00,59.0,57.0,29.82,ESE,107,2.0,3.0,93,0.28,,OVC100,0.04,VWS V14.00,2013-05-11 04:51:00,
2013-05-11 00:52:00,59.0,57.0,29.81,ESE,107,0.0,3.0,93,0.19,,OVC100,0.04,VWS V14.00,2013-05-11 04:52:00,
2013-05-11 00:53:00,59.0,57.0,29.81,ESE,106,0.0,3.0,93,0.15,,OVC100,0.04,VWS V14.00,2013-05-11 04:53:00,
2013-05-11 00:54:00,59.0,57.0,29.81,ESE,106,0.0,3.0,93,0.12,,OVC100,0.04,VWS V14.00,2013-05-11 04:54:00,
2013-05-11 00:55:00,59.0,57.0,29.81,ESE,107,0.0,3.0,93,0.12,,OVC100,0.04,VWS V14.00,2013-05-11 04:55:00,
2013-05-11 00:56:00,59.0,56.7,29.81,ESE,106,0.0,3.0,92,0.10,,OVC100,0.04,VWS V14.00,2013-05-11 04:56:00,
2013-05-11 00:57:00,59.0,56.7,29.81,ESE,107,0.0,3.0,92,0.07,,OVC100,0.04,VWS V14.00,2013-05-11 04:57:00,
2013-05-11 00:58:00,59.0,56.7,29.81,ESE,106,0.0,3.0,92,0.07,,OVC100,0.04,VWS V14.00,2013-05-11 04:58:00,
2013-05-11 00:59:00,59.0,56.7,29.81,ESE,107,0.0,3.0,92,0.06,,OVC100,0.04,VWS V14.00,2013-05-11 04:59:00,
2013-05-11 01:00:00,59.0,56.7,29.81,ESE,107,0.0,3.0,92,0.05,,OVC100,0.04,VWS V14.00,2013-05-11 05:00:00,
2013-05-11 01:01:00,59.0,56.7,29.81,ESE,106,0.0,0.0,92,0.05,,OVC100,0.04,VWS V14.00,2013-05-11 05:01:00,
2013-05-11 01:02:00,59.0,56.7,29.81,ESE,107,0.0,0.0,92,0.05,,OVC100,0.04,VWS V14.00,2013-05-11 05:02:00,
2013-05-11 01:03:00,59.0,56.7,29.81,ESE,106,0.0,0.0,92,0.04,,OVC100,0.04,VWS V14.00,2013-05-11 05:03:00,
2013-05-11 01:04:00,59.1,56.8,29.81,ENE,59,1.0,1.0,92,0.04,,OVC100,0.04,VWS V14.00,2013-05-11 05:04:00,
2013-05-11 01:05:00,59.3,57.0,29.81,NNE,30,3.0,3.0,92,0.04,,OVC100,0.04,VWS V14.00,2013-05-11 05:05:00,
2013-05-11 01:06:00,59.4,57.1,29.81,NNW,348,2.0,4.0,92,0.00,,OVC100,0.04,VWS V14.00,2013-05-11 05:06:00,
2013-05-11 01:07:00,59.6,57.3,29.81,NNW,331,6.0,6.0,92,0.00,,OVC100,0.04,VWS V14.00,2013-05-11 05:07:00,
2013-05-11 01:08:00,59.9,57.9,29.82,NW,313,10.0,10.0,93,0.00,,OVC100,0.04,VWS V14.00,2013-05-11 05:08:00,
2013-05-11 01:09:00,60.2,58.5,29.82,NNW,333,6.0,10.0,94,0.00,,OVC100,0.04,VWS V14.00,2013-05-11 05:09:00,
2013-05-11 01:10:00,60.3,58.3,29.82,NNW,333,4.0,10.0,93,0.00,,OVC100,0.04,VWS V14.00,2013-05-11 05:10:00,
2013-05-11 01:11:00,60.4,58.4,29.82,NNW,333,0.0,4.0,93,0.00,,OVC100,0.04,VWS V14.00,2013-05-11 05:11:00,
2013-05-11 01:12:00,60.5,58.5,29.82,ENE,72,0.0,4.0,93,0.00,,OVC100,0.04,VWS V14.00,2013-05-11 05:12:00,
2013-05-11 01:13:00,60.5,58.5,29.82,ENE,72,0.0,4.0,93,0.00,,OVC100,0.04,VWS V14.00,2013-05-11 05:13:00,
2013-05-11 01:14:00,60.5,58.5,29.82,ENE,72,0.0,4.0,93,0.00,,OVC100,0.04,VWS V14.00,2013-05-11 05:14:00,
2013-05-11 01:15:00,60.5,58.5,29.82,ESE,118,3.0,4.0,93,0.00,,OVC100,0.04,VWS V14.00,2013-05-11 05:15:00,
2013-05-11 01:16:00,60.3,58.3,29.82,ESE,119,0.0,4.0,93,0.00,,OVC100,0.04,VWS V14.00,2013-05-11 05:16:00,
2013-05-11 01:17:00,60.2,58.2,29.82,South,186,1.0,4.0,93,0.00,,OVC100,0.04,VWS V14.00,2013-05-11 05:17:00,
2013-05-11 01:18:00,60.1,58.1,29.82,SE,136,4.0,4.0,93,0.00,,OVC100,0.04,VWS V14.00,2013-05-11 05:18:00,
2013-05-11 01:19:00,60.0,58.0,29.82,ESE,113,3.0,5.0,93,0.00,,OVC100,0.04,VWS V14.00,2013-05-11 05:19:00,
2013-05-11 01:20:00,59.8,57.8,29.82,ESE,115,1.0,5.0,93,0.00,,OVC100,0.04,VWS V14.00,2013-05-11 05:20:00,
2013-05-11 01:21:00,59.7,57.7,29.82,ESE,115,2.0,2.0,93,0.00,,OVC100,0.04,VWS V14.00,2013-05-11 05:21:00,
2013-05-11 01:22:00,59.6,57.6,29.82,ESE,115,0.0,2.0,93,0.00,,OVC100,0.04,VWS V14.00,2013-05-11 05:22:00,
2013-05-11 01:23:00,59.6,57.6,29.82,ESE,115,0.0,2.0,93,0.00,,OVC100,0.04,VWS V14.00,2013-05-11 05:23:00,
2013-05-11 01:24:00,59.6,57.6,29.82,ESE,115,3.0,4.0,93,0.00,,OVC100,0.04,VWS V14.00,2013-05-11 05:24:00,
2013-05-11 01:25:00,59.5,57.5,29.82,ESE,116,3.0,4.0,93,0.00,,OVC100,0.04,VWS V14.00,2013-05-11 05:25:00,
2013-05-11 01:26:00,59.5,57.5,29.82,ESE,117,3.0,4.0,93,0.00,,OVC100,0.04,VWS V14.00,2013-05-11 05:26:00,
2013-05-11 01:27:00,59.5,57.5,29.82,ESE,114,0.0,4.0,93,0.00,,OVC100,0.04,VWS V14.00,2013-05-11 05:27:00,
2013-05-11 01:28:00,59.5,57.5,29.82,ESE,115,0.0,4.0,93,0.00,,OVC100,0.04,VWS V14.00,2013-05-11 05:28:00,
2013-05-11 01:29:00,59.5,57.5,29.82,ESE,109,1.0,4.0,93,0.00,,OVC100,0.04,VWS V14.00,2013-05-11 05:29:00,
2013-05-11 01:30:00,59.5,57.5,29.82,ESE,109,0.0,4.0,93,0.00,,OVC100,0.04,VWS V14.00,2013-05-11 05:30:00,
2013-05-11 01:31:00,59.4,57.4,29.82,ESE,109,2.0,3.0,93,0.00,,OVC100,0.04,VWS V14.00,2013-05-11 05:31:00,
2013-05-11 01:32:00,59.4,57.4,29.82,ESE,109,0.0,3.0,93,0.00,,OVC100,0.04,VWS V14.00,2013-05-11 05:32:00,
2013-05-11 01:33:00,59.4,57.4,29.82,ESE,109,2.0,3.0,93,0.00,,OVC100,0.04,VWS V14.00,2013-05-11 05:33:00,
2013-05-11 01:34:00,59.4,57.4,29.82,SW,219,1.0,3.0,93,0.00,,OVC100,0.04,VWS V14.00,2013-05-11 05:34:00,
2013-05-11 01:35:00,59.4,57.4,29.82,West,266,4.0,4.0,93,0.00,,OVC100,0.04,VWS V14.00,2013-05-11 05:35:00,
2013-05-11 01:36:00,59.6,57.6,29.82,SSW,193,3.0,6.0,93,0.00,,OVC100,0.04,VWS V14.00,2013-05-11 05:36:00,
2013-05-11 01:37:00,59.8,57.8,29.82,SW,227,9.0,9.0,93,0.00,,OVC100,0.04,VWS V14.00,2013-05-11 05:37:00,
2013-05-11 01:38:00,60.4,58.4,29.82,SSW,212,12.0,13.0,93,0.00,,OVC100,0.04,VWS V14.00,2013-05-11 05:38:00,
2013-05-11 01:39:00,61.0,58.7,29.82,WSW,237,13.0,15.0,92,0.00,,OVC100,0.04,VWS V14.00,2013-05-11 05:39:00,
2013-05-11 01:40:00,61.5,58.5,29.82,SW,230,5.0,15.0,90,0.00,,OVC100,0.04,VWS V14.00,2013-05-11 05:40:00,
2013-05-11 01:41:00,62.0,58.7,29.82,West,265,9.0,9.0,89,0.00,,OVC100,0.04,VWS V14.00,2013-05-11 05:41:00,
2013-05-11 01:42:00,62.1,58.5,29.82,West,263,9.0,13.0,88,0.00,,OVC100,0.04,VWS V14.00,2013-05-11 05:42:00,
2013-05-11 01:43:00,62.3,58.4,29.82,SW,225,3.0,13.0,87,0.00,,OVC100,0.04,VWS V14.00,2013-05-11 05:43:00,
2013-05-11 01:44:00,62.3,58.4,29.82,SW,217,5.0,13.0,87,0.00,,OVC100,0.04,VWS V14.00,2013-05-11 05:44:00,
2013-05-11 01:45:00,62.3,58.7,29.82,SW,231,6.0,13.0,88,0.00,,OVC100,0.04,VWS V14.00,2013-05-11 05:45:00,
2013-05-11 01:46:00,62.4,58.5,29.82,SSW,196,4.0,13.0,87,0.00,,OVC100,0.04,VWS V14.00,2013-05-11 05:46:00,
2013-05-11 01:47:00,62.3,58.4,29.82,SSW,211,1.0,13.0,87,0.00,,OVC100,0.04,VWS V14.00,2013-05-11 05:47:00,
2013-05-11 01:48:00,62.3,58.4,29.82,SSW,211,1.0,13.0,87,0.00,,OVC100,0.04,VWS V14.00,2013-05-11 05:48:00,
2013-05-11 01:50:00,61.9,58.3,29.81,SW,225,5.0,14.0,88,0.00,,OVC100,0.04,VWS V14.00,2013-05-11 05:50:00,
2013-05-11 01:54:00,60.9,57.6,29.81,SE,126,3.0,5.0,89,0.00,,OVC100,0.04,VWS V14.00,2013-05-11 05:54:00,
2013-05-11 01:55:00,60.8,57.5,29.81,SE,126,0.0,5.0,89,0.00,,OVC100,0.04,VWS V14.00,2013-05-11 05:55:00,
2013-05-11 01:56:00,60.7,57.4,29.81,SE,125,1.0,5.0,89,0.00,,OVC100,0.04,VWS V14.00,2013-05-11 05:56:00,
2013-05-11 01:57:00,60.5,57.6,29.81,SE,126,2.0,5.0,90,0.00,,OVC100,0.04,VWS V14.00,2013-05-11 05:57:00,
2013-05-11 01:58:00,60.4,57.5,29.81,SE,126,0.0,5.0,90,0.00,,OVC100,0.04,VWS V14.00,2013-05-11 05:58:00,
2013-05-11 01:59:00,60.2,57.3,29.81,SE,126,1.0,5.0,90,0.00,,OVC100,0.04,VWS V14.00,2013-05-11 05:59:00,
2013-05-11 02:00:00,60.1,57.2,29.81,SE,125,2.0,5.0,90,0.00,,OVC100,0.04,VWS V14.00,2013-05-11 06:00:00,
2013-05-11 02:01:00,60.0,57.4,29.81,SE,126,3.0,3.0,91,0.00,,OVC100,0.04,VWS V14.00,2013-05-11 06:01:00,
2013-05-11 02:02:00,59.9,57.3,29.81,SE,125,2.0,4.0,91,0.00,,OVC100,0.04,VWS V14.00,2013-05-11 06:02:00,
2013-05-11 02:03:00,59.8,57.2,29.81,SE,125,1.0,4.0,91,0.00,,OVC100,0.04,VWS V14.00,2013-05-11 06:03:00,
2013-05-11 02:04:00,59.8,57.2,29.81,SE,125,1.0,4.0,91,0.00,,OVC100,0.04,VWS V14.00,2013-05-11 06:04:00,
2013-05-11 02:05:00,59.8,57.2,29.81,SE,125,1.0,4.0,91,0.00,,OVC100,0.04,VWS V14.00,2013-05-11 06:05:00,
2013-05-11 02:06:00,59.8,57.2,29.80,SE,125,0.0,4.0,91,0.00,,OVC100,0.04,VWS V14.00,2013-05-11 06:06:00,
2013-05-11 02:07:00,59.8,57.2,29.81,SE,125,0.0,4.0,91,0.00,,OVC100,0.04,VWS V14.00,2013-05-11 06:07:00,
2013-05-11 02:08:00,59.8,57.2,29.80,SE,125,2.0,4.0,91,0.00,,OVC100,0.04,VWS V14.00,2013-05-11 06:08:00,
2013-05-11 02:09:00,59.7,57.4,29.81,SE,125,1.0,4.0,92,0.00,,OVC100,0.04,VWS V14.00,2013-05-11 06:09:00,
2013-05-11 02:10:00,59.7,57.4,29.80,SE,125,0.0,4.0,92,0.00,,OVC100,0.04,VWS V14.00,2013-05-11 06:10:00,
2013-05-11 02:11:00,59.7,57.4,29.81,SE,125,2.0,2.0,92,0.00,,OVC100,0.05,VWS V14.00,2013-05-11 06:11:00,
2013-05-11 02:12:00,59.7,57.4,29.81,SE,125,0.0,2.0,92,0.00,,OVC100,0.05,VWS V14.00,2013-05-11 06:12:00,
2013-05-11 02:13:00,59.7,57.4,29.81,SE,125,1.0,2.0,92,0.00,,OVC100,0.05,VWS V14.00,2013-05-11 06:13:00,
2013-05-11 02:14:00,59.7,57.4,29.80,SE,125,0.0,2.0,92,0.00,,OVC100,0.05,VWS V14.00,2013-05-11 06:14:00,
2013-05-11 02:15:00,59.7,57.4,29.80,SE,125,0.0,2.0,92,0.00,,OVC100,0.05,VWS V14.00,2013-05-11 06:15:00,
2013-05-11 02:16:00,59.8,57.5,29.80,SE,125,0.0,2.0,92,0.00,,OVC100,0.05,VWS V14.00,2013-05-11 06:16:00,
2013-05-11 02:17:00,59.8,57.5,29.80,SE,125,2.0,2.0,92,0.00,,OVC100,0.05,VWS V14.00,2013-05-11 06:17:00,
2013-05-11 02:18:00,59.8,57.5,29.80,SE,125,0.0,2.0,92,0.00,,OVC100,0.05,VWS V14.00,2013-05-11 06:18:00,
2013-05-11 02:19:00,59.8,57.5,29.80,SE,125,1.0,3.0,92,0.00,,OVC100,0.05,VWS V14.00,2013-05-11 06:19:00,
2013-05-11 02:20:00,59.8,57.5,29.80,SE,125,0.0,3.0,92,0.00,,OVC100,0.05,VWS V14.00,2013-05-11 06:20:00,
2013-05-11 02:21:00,59.8,57.5,29.80,SE,125,1.0,2.0,92,0.00,,OVC100,0.05,VWS V14.00,2013-05-11 06:21:00,
2013-05-11 02:22:00,59.8,57.5,29.80,SE,125,0.0,2.0,92,0.00,,OVC100,0.05,VWS V14.00,2013-05-11 06:22:00,
2013-05-11 02:23:00,59.7,57.7,29.80,SE,125,0.0,2.0,93,0.00,,OVC100,0.05,VWS V14.00,2013-05-11 06:23:00,
2013-05-11 02:24:00,59.7,57.7,29.80,SE,125,1.0,3.0,93,0.00,,OVC100,0.05,VWS V14.00,2013-05-11 06:24:00,
2013-05-11 02:25:00,59.7,57.7,29.80,SE,125,2.0,3.0,93,0.00,,OVC100,0.05,VWS V14.00,2013-05-11 06:25:00,
2013-05-11 02:26:00,59.7,57.7,29.80,SE,125,0.0,3.0,93,0.00,,OVC100,0.05,VWS V14.00,2013-05-11 06:26:00,
2013-05-11 02:27:00,59.7,57.7,29.80,SE,125,0.0,3.0,93,0.00,,OVC100,0.05,VWS V14.00,2013-05-11 06:27:00,
2013-05-11 02:28:00,59.7,57.7,29.80,SE,125,0.0,3.0,93,0.00,,OVC100,0.05,VWS V14.00,2013-05-11 06:28:00,
2013-05-11 02:29:00,59.7,57.7,29.80,SE,125,2.0,3.0,93,0.00,,OVC100,0.05,VWS V14.00,2013-05-11 06:29:00,
2013-05-11 02:30:00,59.7,57.7,29.80,SE,125,0.0,3.0,93,0.00,,OVC100,0.05,VWS V14.00,2013-05-11 06:30:00,
2013-05-11 02:31:00,59.7,57.7,29.80,SE,125,0.0,0.0,93,0.00,,OVC100,0.05,VWS V14.00,2013-05-11 06:31:00,
2013-05-11 02:32:00,59.7,57.7,29.80,SE,125,3.0,3.0,93,0.00,,OVC100,0.05,VWS V14.00,2013-05-11 06:32:00,
2013-05-11 02:33:00,59.7,57.7,29.80,SE,125,0.0,3.0,93,0.00,,OVC100,0.05,VWS V14.00,2013-05-11 06:33:00,
2013-05-11 02:34:00,59.7,57.7,29.80,SE,125,2.0,3.0,93,0.00,,OVC100,0.05,VWS V14.00,2013-05-11 06:34:00,
2013-05-11 02:35:00,59.6,57.6,29.79,SE,125,1.0,3.0,93,0.00,,OVC100,0.05,VWS V14.00,2013-05-11 06:35:00,
2013-05-11 02:36:00,59.6,57.6,29.79,SE,125,0.0,3.0,93,0.00,,OVC100,0.05,VWS V14.00,2013-05-11 06:36:00,
2013-05-11 02:37:00,59.6,57.6,29.79,SE,125,0.0,3.0,93,0.00,,OVC100,0.05,VWS V14.00,2013-05-11 06:37:00,
2013-05-11 02:38:00,59.6,57.6,29.79,SE,125,0.0,3.0,93,0.00,,OVC100,0.05,VWS V14.00,2013-05-11 06:38:00,
2013-05-11 02:39:00,59.6,57.6,29.79,SE,125,2.0,3.0,93,0.00,,OVC100,0.05,VWS V14.00,2013-05-11 06:39:00,
2013-05-11 02:40:00,59.6,57.6,29.79,SE,125,0.0,3.0,93,0.00,,OVC100,0.05,VWS V14.00,2013-05-11 06:40:00,
2013-05-11 02:41:00,59.6,57.6,29.79,SE,125,1.0,2.0,93,0.00,,OVC100,0.05,VWS V14.00,2013-05-11 06:41:00,
2013-05-11 02:42:00,59.6,57.6,29.79,SE,125,0.0,2.0,93,0.00,,OVC100,0.05,VWS V14.00,2013-05-11 06:42:00,
2013-05-11 02:43:00,59.6,57.6,29.79,SE,125,0.0,2.0,93,0.00,,OVC100,0.05,VWS V14.00,2013-05-11 06:43:00,
2013-05-11 02:44:00,59.6,57.6,29.79,SE,125,0.0,2.0,93,0.00,,OVC100,0.05,VWS V14.00,2013-05-11 06:44:00,
2013-05-11 02:45:00,59.6,57.6,29.79,SE,125,0.0,2.0,93,0.00,,OVC100,0.05,VWS V14.00,2013-05-11 06:45:00,
2013-05-11 02:46:00,59.7,57.7,29.79,SE,126,0.0,2.0,93,0.00,,OVC100,0.05,VWS V14.00,2013-05-11 06:46:00,
2013-05-11 02:47:00,59.7,57.7,29.79,SE,126,0.0,2.0,93,0.00,,OVC100,0.05,VWS V14.00,2013-05-11 06:47:00,
2013-05-11 02:48:00,59.7,57.7,29.79,SE,125,0.0,2.0,93,0.00,,OVC100,0.05,VWS V14.00,2013-05-11 06:48:00,
2013-05-11 02:49:00,59.7,57.7,29.78,SE,126,0.0,2.0,93,0.00,,OVC100,0.05,VWS V14.00,2013-05-11 06:49:00,
2013-05-11 02:50:00,59.7,57.7,29.78,SE,125,0.0,2.0,93,0.00,,OVC055,0.05,VWS V14.00,2013-05-11 06:50:00,
2013-05-11 02:51:00,59.7,57.7,29.78,SE,126,0.0,0.0,93,0.00,,OVC055,0.05,VWS V14.00,2013-05-11 06:51:00,
2013-05-11 02:52:00,59.7,57.7,29.78,SE,125,0.0,0.0,93,0.00,,OVC055,0.05,VWS V14.00,2013-05-11 06:52:00,
2013-05-11 02:53:00,59.7,57.7,29.79,SE,126,0.0,0.0,93,0.00,,OVC055,0.05,VWS V14.00,2013-05-11 06:53:00,
2013-05-11 02:54:00,59.7,57.7,29.78,SE,126,0.0,0.0,93,0.00,,OVC055,0.05,VWS V14.00,2013-05-11 06:54:00,
2013-05-11 02:55:00,59.7,57.7,29.78,SE,125,0.0,0.0,93,0.00,,OVC055,0.05,VWS V14.00,2013-05-11 06:55:00,
2013-05-11 02:56:00,59.7,57.7,29.78,SE,126,0.0,0.0,93,0.00,,OVC055,0.05,VWS V14.00,2013-05-11 06:56:00,
2013-05-11 02:57:00,59.7,57.7,29.78,SE,125,0.0,0.0,93,0.00,,OVC055,0.05,VWS V14.00,2013-05-11 06:57:00,
2013-05-11 02:58:00,59.7,57.7,29.78,SE,126,0.0,0.0,93,0.00,,OVC055,0.05,VWS V14.00,2013-05-11 06:58:00,
2013-05-11 02:59:00,59.7,57.7,29.78,SE,126,0.0,0.0,93,0.00,,OVC055,0.05,VWS V14.00,2013-05-11 06:59:00,
2013-05-11 03:00:00,59.7,57.7,29.78,SE,126,0.0,0.0,93,0.00,,OVC055,0.05,VWS V14.00,2013-05-11 07:00:00,
2013-05-11 03:01:00,59.7,57.7,29.78,SE,126,0.0,0.0,93,0.00,,OVC055,0.05,VWS V14.00,2013-05-11 07:01:00,
2013-05-11 03:02:00,59.7,57.7,29.78,SE,125,0.0,0.0,93,0.00,,OVC055,0.05,VWS V14.00,2013-05-11 07:02:00,
2013-05-11 03:03:00,59.6,57.6,29.79,SE,125,0.0,0.0,93,0.00,,OVC055,0.05,VWS V14.00,2013-05-11 07:03:00,
2013-05-11 03:04:00,59.6,57.6,29.78,SE,126,0.0,0.0,93,0.00,,OVC055,0.05,VWS V14.00,2013-05-11 07:04:00,
2013-05-11 03:05:00,59.7,57.7,29.78,SE,125,0.0,0.0,93,0.00,,OVC055,0.05,VWS V14.00,2013-05-11 07:05:00,
2013-05-11 03:06:00,59.6,57.6,29.78,SE,126,0.0,0.0,93,0.00,,OVC055,0.05,VWS V14.00,2013-05-11 07:06:00,
2013-05-11 03:07:00,59.6,57.6,29.78,SE,126,0.0,0.0,93,0.00,,OVC055,0.05,VWS V14.00,2013-05-11 07:07:00,
2013-05-11 03:08:00,59.6,57.6,29.78,SE,126,0.0,0.0,93,0.00,,OVC055,0.05,VWS V14.00,2013-05-11 07:08:00,
2013-05-11 03:09:00,59.6,57.6,29.78,SE,126,0.0,0.0,93,0.00,,OVC055,0.05,VWS V14.00,2013-05-11 07:09:00,
2013-05-11 03:10:00,59.6,57.6,29.78,SE,128,0.0,2.0,93,0.00,,OVC055,0.05,VWS V14.00,2013-05-11 07:10:00,
2013-05-11 03:11:00,59.6,57.6,29.78,SE,135,0.0,2.0,93,0.00,,OVC055,0.05,VWS V14.00,2013-05-11 07:11:00,
2013-05-11 03:12:00,59.6,57.9,29.77,SE,134,0.0,2.0,94,0.00,,OVC055,0.05,VWS V14.00,2013-05-11 07:12:00,
2013-05-11 03:13:00,59.6,57.9,29.77,SE,135,0.0,2.0,94,0.00,,OVC055,0.05,VWS V14.00,2013-05-11 07:13:00,
2013-05-11 03:14:00,59.6,57.9,29.77,SE,134,0.0,2.0,94,0.00,,OVC055,0.05,VWS V14.00,2013-05-11 07:14:00,
2013-05-11 03:15:00,59.6,57.9,29.77,SE,135,0.0,2.0,94,0.00,,OVC055,0.05,VWS V14.00,2013-05-11 07:15:00,
2013-05-11 03:16:00,59.6,57.9,29.77,SE,135,0.0,2.0,94,0.00,,OVC055,0.05,VWS V14.00,2013-05-11 07:16:00,
2013-05-11 03:17:00,59.6,57.9,29.77,SE,135,0.0,2.0,94,0.00,,OVC055,0.05,VWS V14.00,2013-05-11 07:17:00,
2013-05-11 03:18:00,59.6,57.9,29.77,SE,135,0.0,2.0,94,0.00,,OVC055,0.05,VWS V14.00,2013-05-11 07:18:00,
2013-05-11 03:19:00,59.6,57.9,29.77,SE,134,0.0,2.0,94,0.00,,OVC055,0.05,VWS V14.00,2013-05-11 07:19:00,
2013-05-11 03:20:00,59.6,57.9,29.77,SE,135,0.0,2.0,94,0.00,,OVC055,0.05,VWS V14.00,2013-05-11 07:20:00,
2013-05-11 03:21:00,59.6,57.9,29.77,SE,134,0.0,0.0,94,0.00,,OVC055,0.05,VWS V14.00,2013-05-11 07:21:00,
2013-05-11 03:22:00,59.7,58.0,29.77,SE,135,0.0,0.0,94,0.00,,OVC055,0.05,VWS V14.00,2013-05-11 07:22:00,
2013-05-11 03:23:00,59.7,58.0,29.77,SE,143,3.0,5.0,94,0.00,,OVC055,0.05,VWS V14.00,2013-05-11 07:23:00,
2013-05-11 03:24:00,59.7,58.0,29.77,SE,143,0.0,5.0,94,0.00,,OVC055,0.05,VWS V14.00,2013-05-11 07:24:00,
2013-05-11 03:25:00,59.8,58.1,29.77,SE,143,2.0,5.0,94,0.00,,OVC055,0.05,VWS V14.00,2013-05-11 07:25:00,
2013-05-11 03:26:00,59.8,58.1,29.77,SE,142,0.0,5.0,94,0.00,,OVC055,0.05,VWS V14.00,2013-05-11 07:26:00,
2013-05-11 03:27:00,59.8,58.1,29.77,SE,143,1.0,5.0,94,0.00,,OVC055,0.05,VWS V14.00,2013-05-11 07:27:00,
2013-05-11 03:28:00,59.9,58.2,29.77,SE,144,3.0,5.0,94,0.00,,OVC055,0.05,VWS V14.00,2013-05-11 07:28:00,
2013-05-11 03:29:00,59.9,58.2,29.77,SSE,149,0.0,5.0,94,0.00,,OVC055,0.05,VWS V14.00,2013-05-11 07:29:00,
2013-05-11 03:30:00,59.9,58.2,29.77,SSE,149,0.0,5.0,94,0.00,,OVC055,0.05,VWS V14.00,2013-05-11 07:30:00,
2013-05-11 03:31:00,60.0,58.3,29.77,SSE,150,1.0,3.0,94,0.00,,OVC055,0.05,VWS V14.00,2013-05-11 07:31:00,
2013-05-11 03:32:00,60.0,58.3,29.76,SW,221,0.0,3.0,94,0.00,,OVC055,0.05,VWS V14.00,2013-05-11 07:32:00,
2013-05-11 03:33:00,60.0,58.3,29.76,ESE,111,0.0,3.0,94,0.00,,OVC055,0.05,VWS V14.00,2013-05-11 07:33:00,
2013-05-11 03:34:00,60.1,58.1,29.76,SSW,195,0.0,3.0,93,0.00,,OVC055,0.05,VWS V14.00,2013-05-11 07:34:00,
2013-05-11 03:35:00,60.2,58.2,29.76,SW,218,1.0,7.0,93,0.00,,OVC055,0.05,VWS V14.00,2013-05-11 07:35:00,
2013-05-11 03:36:00,60.2,58.2,29.76,SSW,213,0.0,7.0,93,0.00,,OVC055,0.05,VWS V14.00,2013-05-11 07:36:00,
2013-05-11 03:37:00,60.3,58.3,29.76,SSW,211,0.0,7.0,93,0.00,,OVC055,0.05,VWS V14.00,2013-05-11 07:37:00,
2013-05-11 03:38:00,60.3,58.3,29.76,SSW,194,0.0,7.0,93,0.00,,OVC055,0.05,VWS V14.00,2013-05-11 07:38:00,
2013-05-11 03:39:00,60.3,58.3,29.76,South,179,0.0,7.0,93,0.00,,OVC055,0.05,VWS V14.00,2013-05-11 07:39:00,
2013-05-11 03:40:00,60.3,58.3,29.76,South,179,0.0,7.0,93,0.00,,OVC055,0.05,VWS V14.00,2013-05-11 07:40:00,
2013-05-11 03:41:00,60.3,58.3,29.76,South,179,0.0,0.0,93,0.00,,OVC055,0.05,VWS V14.00,2013-05-11 07:41:00,
2013-05-11 03:42:00,60.3,58.3,29.76,SW,220,0.0,4.0,93,0.00,,OVC055,0.05,VWS V14.00,2013-05-11 07:42:00,
2013-05-11 03:43:00,60.3,58.3,29.76,SE,140,0.0,4.0,93,0.00,,OVC055,0.05,VWS V14.00,2013-05-11 07:43:00,
2013-05-11 03:44:00,60.2,58.2,29.76,SSW,194,4.0,4.0,93,0.00,,OVC055,0.06,VWS V14.00,2013-05-11 07:44:00,
2013-05-11 03:45:00,60.2,58.2,29.76,SSW,192,0.0,4.0,93,0.00,,OVC055,0.06,VWS V14.00,2013-05-11 07:45:00,
2013-05-11 03:46:00,60.2,58.2,29.76,SSW,193,0.0,4.0,93,0.00,,OVC055,0.06,VWS V14.00,2013-05-11 07:46:00,
2013-05-11 03:47:00,60.2,58.2,29.76,SSW,196,1.0,4.0,93,0.00,,OVC055,0.06,VWS V14.00,2013-05-11 07:47:00,
2013-05-11 03:48:00,60.3,58.3,29.76,SSW,198,2.0,4.0,93,0.00,,OVC055,0.06,VWS V14.00,2013-05-11 07:48:00,
2013-05-11 03:49:00,60.2,58.2,29.76,SSW,204,4.0,4.0,93,0.00,,SCT110,0.06,VWS V14.00,2013-05-11 07:49:00,
2013-05-11 03:50:00,60.3,58.3,29.76,SSW,206,0.0,4.0,93,0.00,,SCT110,0.06,VWS V14.00,2013-05-11 07:50:00,
2013-05-11 03:51:00,60.3,58.3,29.76,SSW,207,0.0,1.0,93,0.00,,SCT110,0.06,VWS V14.00,2013-05-11 07:51:00,
2013-05-11 03:52:00,60.3,58.3,29.76,SSW,206,0.0,1.0,93,0.00,,SCT110,0.06,VWS V14.00,2013-05-11 07:52:00,
2013-05-11 03:53:00,60.3,58.3,29.76,SSW,207,0.0,1.0,93,0.00,,SCT110,0.06,VWS V14.00,2013-05-11 07:53:00,
2013-05-11 03:54:00,60.3,58.3,29.76,SSW,207,0.0,1.0,93,0.00,,SCT110,0.06,VWS V14.00,2013-05-11 07:54:00,
2013-05-11 03:55:00,60.3,58.3,29.76,SSW,206,0.0,1.0,93,0.00,,SCT110,0.06,VWS V14.00,2013-05-11 07:55:00,
2013-05-11 03:56:00,60.3,58.3,29.76,SSW,207,0.0,1.0,93,0.00,,SCT110,0.06,VWS V14.00,2013-05-11 07:56:00,
2013-05-11 03:57:00,60.2,58.2,29.76,East,86,0.0,1.0,93,0.00,,SCT110,0.06,VWS V14.00,2013-05-11 07:57:00,
2013-05-11 04:00:00,60.2,58.2,29.76,SSW,202,0.0,1.0,93,0.00,,SCT110,0.05,VWS V14.00,2013-05-11 08:00:00,
2013-05-11 04:03:00,60.0,58.0,29.76,East,86,0.0,0.0,93,0.00,,SCT110,0.06,VWS V14.00,2013-05-11 08:03:00,
2013-05-11 04:04:00,60.0,58.0,29.76,East,86,0.0,0.0,93,0.00,,SCT110,0.06,VWS V14.00,2013-05-11 08:04:00,
2013-05-11 04:05:00,60.0,58.0,29.76,East,86,0.0,0.0,93,0.00,,SCT110,0.06,VWS V14.00,2013-05-11 08:05:00,
2013-05-11 04:06:00,60.0,58.0,29.75,East,86,0.0,0.0,93,0.00,,SCT110,0.06,VWS V14.00,2013-05-11 08:06:00,
2013-05-11 04:07:00,59.9,57.9,29.75,East,86,0.0,0.0,93,0.00,,SCT110,0.06,VWS V14.00,2013-05-11 08:07:00,
2013-05-11 04:08:00,59.9,57.9,29.75,East,86,0.0,0.0,93,0.00,,SCT110,0.06,VWS V14.00,2013-05-11 08:08:00,
2013-05-11 04:09:00,59.8,57.8,29.75,South,186,2.0,2.0,93,0.00,,SCT110,0.06,VWS V14.00,2013-05-11 08:09:00,
2013-05-11 04:10:00,59.8,57.8,29.75,South,186,0.0,2.0,93,0.00,,SCT110,0.06,VWS V14.00,2013-05-11 08:10:00,
2013-05-11 04:11:00,59.8,57.8,29.75,South,186,0.0,0.0,93,0.00,,SCT110,0.06,VWS V14.00,2013-05-11 08:11:00,
2013-05-11 04:12:00,59.8,57.8,29.75,South,186,0.0,0.0,93,0.00,,SCT110,0.06,VWS V14.00,2013-05-11 08:12:00,
2013-05-11 04:13:00,59.8,57.8,29.75,South,186,0.0,0.0,93,0.00,,SCT110,0.06,VWS V14.00,2013-05-11 08:13:00,
2013-05-11 04:14:00,59.8,57.8,29.75,South,186,0.0,0.0,93,0.00,,SCT110,0.06,VWS V14.00,2013-05-11 08:14:00,
2013-05-11 04:15:00,59.8,57.8,29.75,SSW,213,3.0,3.0,93,0.00,,SCT110,0.06,VWS V14.00,2013-05-11 08:15:00,
2013-05-11 04:16:00,59.8,58.1,29.75,SSW,210,0.0,3.0,94,0.00,,SCT110,0.07,VWS V14.00,2013-05-11 08:16:00,
2013-05-11 04:17:00,59.8,58.1,29.75,SSW,210,0.0,3.0,94,0.00,,SCT110,0.07,VWS V14.00,2013-05-11 08:17:00,
2013-05-11 04:18:00,59.8,58.1,29.75,SSW,209,0.0,3.0,94,0.00,,SCT110,0.07,VWS V14.00,2013-05-11 08:18:00,
2013-05-11 04:19:00,59.7,58.0,29.75,SSW,209,0.0,3.0,94,0.00,,SCT110,0.07,VWS V14.00,2013-05-11 08:19:00,
2013-05-11 04:20:00,59.7,58.0,29.75,SSW,209,0.0,3.0,94,0.00,,SCT110,0.07,VWS V14.00,2013-05-11 08:20:00,
2013-05-11 04:21:00,59.7,58.0,29.75,SSW,209,0.0,1.0,94,0.00,,SCT110,0.07,VWS V14.00,2013-05-11 08:21:00,
2013-05-11 04:22:00,59.7,58.0,29.75,SSW,209,0.0,1.0,94,0.00,,SCT110,0.07,VWS V14.00,2013-05-11 08:22:00,
2013-05-11 04:23:00,59.7,58.0,29.75,SSW,209,0.0,1.0,94,0.00,,SCT110,0.07,VWS V14.00,2013-05-11 08:23:00,
2013-05-11 04:24:00,59.7,58.0,29.75,South,180,0.0,1.0,94,0.00,,SCT110,0.07,VWS V14.00,2013-05-11 08:24:00,
2013-05-11 04:25:00,59.7,58.0,29.75,South,180,0.0,1.0,94,0.00,,SCT110,0.07,VWS V14.00,2013-05-11 08:25:00,
2013-05-11 04:26:00,59.7,58.0,29.75,South,180,0.0,1.0,94,0.00,,SCT110,0.07,VWS V14.00,2013-05-11 08:26:00,
2013-05-11 04:27:00,59.6,57.9,29.75,South,180,0.0,1.0,94,0.00,,SCT110,0.07,VWS V14.00,2013-05-11 08:27:00,
2013-05-11 04:28:00,59.6,57.9,29.75,South,182,0.0,1.0,94,0.00,,SCT110,0.07,VWS V14.00,2013-05-11 08:28:00,
2013-05-11 04:29:00,59.6,57.9,29.75,SSE,152,1.0,2.0,94,0.00,,SCT110,0.07,VWS V14.00,2013-05-11 08:29:00,
2013-05-11 04:30:00,59.6,57.9,29.75,SSE,152,1.0,2.0,94,0.00,,SCT110,0.07,VWS V14.00,2013-05-11 08:30:00,
2013-05-11 04:31:00,59.6,57.9,29.75,SSE,152,0.0,1.0,94,0.00,,SCT110,0.07,VWS V14.00,2013-05-11 08:31:00,
2013-05-11 04:32:00,59.6,57.9,29.75,SSE,152,0.0,1.0,94,0.00,,SCT110,0.07,VWS V14.00,2013-05-11 08:32:00,
2013-05-11 04:33:00,59.6,57.9,29.74,SSE,152,1.0,1.0,94,0.00,,SCT110,0.07,VWS V14.00,2013-05-11 08:33:00,
2013-05-11 04:34:00,59.6,57.9,29.74,ESE,118,2.0,2.0,94,0.00,,SCT110,0.07,VWS V14.00,2013-05-11 08:34:00,
2013-05-11 04:35:00,59.6,57.9,29.74,SE,128,0.0,2.0,94,0.00,,SCT110,0.07,VWS V14.00,2013-05-11 08:35:00,
2013-05-11 04:36:00,59.6,57.9,29.74,ESE,105,2.0,2.0,94,0.00,,SCT110,0.07,VWS V14.00,2013-05-11 08:36:00,
2013-05-11 04:37:00,59.6,57.9,29.74,ESE,102,3.0,4.0,94,0.00,,SCT110,0.07,VWS V14.00,2013-05-11 08:37:00,
2013-05-11 04:38:00,59.6,57.9,29.74,ESE,103,0.0,4.0,94,0.00,,SCT110,0.07,VWS V14.00,2013-05-11 08:38:00,
2013-05-11 04:39:00,59.6,57.9,29.74,ESE,102,0.0,4.0,94,0.00,,SCT110,0.07,VWS V14.00,2013-05-11 08:39:00,
2013-05-11 04:40:00,59.6,57.9,29.74,ESE,119,0.0,4.0,94,0.00,,SCT110,0.07,VWS V14.00,2013-05-11 08:40:00,
2013-05-11 04:41:00,59.6,57.9,29.73,ESE,119,0.0,2.0,94,0.00,,SCT110,0.07,VWS V14.00,2013-05-11 08:41:00,
2013-05-11 04:42:00,59.6,57.9,29.73,South,187,0.0,2.0,94,0.00,,SCT110,0.07,VWS V14.00,2013-05-11 08:42:00,
2013-05-11 04:43:00,59.6,57.9,29.73,South,186,0.0,2.0,94,0.00,,SCT110,0.07,VWS V14.00,2013-05-11 08:43:00,
2013-05-11 04:44:00,59.6,57.9,29.73,South,186,0.0,2.0,94,0.00,,SCT110,0.07,VWS V14.00,2013-05-11 08:44:00,
2013-05-11 04:45:00,59.6,57.9,29.73,South,186,0.0,2.0,94,0.00,,SCT110,0.07,VWS V14.00,2013-05-11 08:45:00,
2013-05-11 04:46:00,59.7,58.0,29.73,South,186,0.0,2.0,94,0.00,,SCT110,0.08,VWS V14.00,2013-05-11 08:46:00,
2013-05-11 04:47:00,59.7,58.0,29.73,South,186,0.0,2.0,94,0.00,,SCT110,0.08,VWS V14.00,2013-05-11 08:47:00,
2013-05-11 04:48:00,59.7,58.0,29.73,SW,214,0.0,3.0,94,0.00,,SCT110,0.08,VWS V14.00,2013-05-11 08:48:00,
2013-05-11 04:49:00,59.7,58.0,29.73,SE,140,0.0,3.0,94,0.00,,SCT110,0.08,VWS V14.00,2013-05-11 08:49:00,
2013-05-11 04:50:00,59.7,58.0,29.73,SE,140,0.0,3.0,94,0.00,,OVC090,0.08,VWS V14.00,2013-05-11 08:50:00,
2013-05-11 04:51:00,59.7,58.0,29.73,SSW,198,0.0,1.0,94,0.00,,OVC090,0.08,VWS V14.00,2013-05-11 08:51:00,
2013-05-11 04:52:00,59.7,58.0,29.73,SSE,161,1.0,2.0,94,0.00,,OVC090,0.08,VWS V14.00,2013-05-11 08:52:00,
2013-05-11 04:53:00,59.7,58.0,29.73,SSE,161,0.0,2.0,94,0.00,,OVC090,0.08,VWS V14.00,2013-05-11 08:53:00,
2013-05-11 04:54:00,59.7,58.0,29.73,SSE,161,1.0,2.0,94,0.00,,OVC090,0.08,VWS V14.00,2013-05-11 08:54:00,
2013-05-11 04:55:00,59.7,58.0,29.73,SSE,161,0.0,2.0,94,0.00,,OVC090,0.08,VWS V14.00,2013-05-11 08:55:00,
2013-05-11 04:56:00,59.7,58.0,29.73,SSE,167,0.0,2.0,94,0.00,,OVC090,0.08,VWS V14.00,2013-05-11 08:56:00,
2013-05-11 04:57:00,59.7,58.0,29.73,SSE,167,0.0,2.0,94,0.00,,OVC090,0.08,VWS V14.00,2013-05-11 08:57:00,
2013-05-11 04:58:00,59.8,58.1,29.73,SW,215,3.0,3.0,94,0.00,,OVC090,0.08,VWS V14.00,2013-05-11 08:58:00,
2013-05-11 04:59:00,59.8,58.1,29.73,SW,214,0.0,3.0,94,0.00,,OVC090,0.08,VWS V14.00,2013-05-11 08:59:00,
2013-05-11 05:00:00,59.8,58.1,29.73,SW,214,0.0,3.0,94,0.00,,OVC090,0.08,VWS V14.00,2013-05-11 09:00:00,
2013-05-11 05:01:00,59.8,58.1,29.73,SW,214,0.0,0.0,94,0.00,,OVC090,0.08,VWS V14.00,2013-05-11 09:01:00,
2013-05-11 05:02:00,59.8,58.1,29.73,SW,214,1.0,2.0,94,0.00,,OVC090,0.08,VWS V14.00,2013-05-11 09:02:00,
2013-05-11 05:03:00,59.8,58.1,29.73,SW,214,0.0,2.0,94,0.00,,OVC090,0.08,VWS V14.00,2013-05-11 09:03:00,
2013-05-11 05:04:00,59.8,58.1,29.73,SW,214,0.0,2.0,94,0.00,,OVC090,0.08,VWS V14.00,2013-05-11 09:04:00,
2013-05-11 05:05:00,59.8,58.1,29.73,SW,214,0.0,2.0,94,0.00,,OVC090,0.08,VWS V14.00,2013-05-11 09:05:00,
2013-05-11 05:06:00,59.7,58.0,29.73,SW,214,0.0,2.0,94,0.00,,OVC090,0.08,VWS V14.00,2013-05-11 09:06:00,
2013-05-11 05:07:00,59.7,58.0,29.73,SW,214,0.0,2.0,94,0.00,,OVC090,0.08,VWS V14.00,2013-05-11 09:07:00,
2013-05-11 05:08:00,59.7,58.0,29.73,SW,214,0.0,2.0,94,0.00,,OVC090,0.08,VWS V14.00,2013-05-11 09:08:00,
2013-05-11 05:09:00,59.7,58.0,29.73,SW,214,0.0,2.0,94,0.00,,OVC090,0.08,VWS V14.00,2013-05-11 09:09:00,
2013-05-11 05:10:00,59.7,58.0,29.74,SW,214,0.0,2.0,94,0.00,,OVC090,0.08,VWS V14.00,2013-05-11 09:10:00,
2013-05-11 05:11:00,59.6,57.9,29.73,SW,214,0.0,0.0,94,0.00,,OVC090,0.08,VWS V14.00,2013-05-11 09:11:00,
2013-05-11 05:12:00,59.7,58.0,29.73,SW,214,0.0,0.0,94,0.00,,OVC090,0.08,VWS V14.00,2013-05-11 09:12:00,
2013-05-11 05:13:00,59.6,57.9,29.73,SW,214,0.0,0.0,94,0.00,,OVC090,0.08,VWS V14.00,2013-05-11 09:13:00,
2013-05-11 05:14:00,59.6,57.9,29.73,SW,214,0.0,1.0,94,0.00,,OVC090,0.08,VWS V14.00,2013-05-11 09:14:00,
2013-05-11 05:15:00,59.6,57.9,29.73,SW,214,2.0,2.0,94,0.00,,OVC090,0.08,VWS V14.00,2013-05-11 09:15:00,
2013-05-11 05:16:00,59.6,57.9,29.74,SW,214,0.0,2.0,94,0.00,,OVC090,0.08,VWS V14.00,2013-05-11 09:16:00,
2013-05-11 05:17:00,59.6,57.9,29.74,SW,214,0.0,2.0,94,0.00,,OVC090,0.08,VWS V14.00,2013-05-11 09:17:00,
2013-05-11 05:18:00,59.6,57.9,29.74,SW,214,0.0,2.0,94,0.00,,OVC090,0.08,VWS V14.00,2013-05-11 09:18:00,
2013-05-11 05:19:00,59.6,57.9,29.73,SW,214,0.0,2.0,94,0.00,,OVC090,0.08,VWS V14.00,2013-05-11 09:19:00,
2013-05-11 05:20:00,59.6,57.9,29.73,SW,214,0.0,2.0,94,0.00,,OVC090,0.08,VWS V14.00,2013-05-11 09:20:00,
2013-05-11 05:21:00,59.6,57.9,29.73,SW,214,0.0,0.0,94,0.00,,OVC090,0.08,VWS V14.00,2013-05-11 09:21:00,
2013-05-11 05:22:00,59.6,57.9,29.73,SW,214,0.0,0.0,94,0.00,,OVC090,0.08,VWS V14.00,2013-05-11 09:22:00,
2013-05-11 05:23:00,59.6,57.9,29.73,SW,214,0.0,2.0,94,0.00,,OVC090,0.08,VWS V14.00,2013-05-11 09:23:00,
2013-05-11 05:24:00,59.6,57.9,29.74,SW,214,0.0,2.0,94,0.00,,OVC090,0.08,VWS V14.00,2013-05-11 09:24:00,
2013-05-11 05:25:00,59.6,57.9,29.73,SW,214,0.0,2.0,94,0.00,,OVC090,0.08,VWS V14.00,2013-05-11 09:25:00,
2013-05-11 05:26:00,59.6,57.9,29.73,SW,214,0.0,2.0,94,0.00,,OVC090,0.08,VWS V14.00,2013-05-11 09:26:00,
2013-05-11 05:27:00,59.6,57.9,29.73,SW,214,0.0,2.0,94,0.00,,OVC090,0.08,VWS V14.00,2013-05-11 09:27:00,
2013-05-11 05:28:00,59.6,57.9,29.73,SW,214,0.0,2.0,94,0.00,,OVC090,0.08,VWS V14.00,2013-05-11 09:28:00,
2013-05-11 05:29:00,59.6,57.9,29.73,SW,214,0.0,2.0,94,0.00,,OVC090,0.08,VWS V14.00,2013-05-11 09:29:00,
2013-05-11 05:30:00,59.6,57.9,29.73,SW,214,0.0,2.0,94,0.00,,OVC090,0.08,VWS V14.00,2013-05-11 09:30:00,
2013-05-11 05:31:00,59.6,57.9,29.73,SW,214,0.0,0.0,94,0.00,,OVC090,0.08,VWS V14.00,2013-05-11 09:31:00,
2013-05-11 05:32:00,59.6,57.9,29.73,SW,214,0.0,0.0,94,0.00,,OVC090,0.08,VWS V14.00,2013-05-11 09:32:00,
2013-05-11 05:33:00,59.6,57.9,29.73,SW,214,1.0,2.0,94,0.00,,OVC090,0.08,VWS V14.00,2013-05-11 09:33:00,
2013-05-11 05:34:00,59.6,57.9,29.73,SW,214,0.0,2.0,94,0.00,,OVC090,0.08,VWS V14.00,2013-05-11 09:34:00,
2013-05-11 05:35:00,59.6,57.9,29.73,South,178,2.0,2.0,94,0.00,,OVC090,0.08,VWS V14.00,2013-05-11 09:35:00,
2013-05-11 05:36:00,59.5,57.8,29.73,South,176,2.0,2.0,94,0.00,,OVC090,0.08,VWS V14.00,2013-05-11 09:36:00,
2013-05-11 05:37:00,59.5,57.8,29.73,South,176,0.0,2.0,94,0.00,,OVC090,0.08,VWS V14.00,2013-05-11 09:37:00,
2013-05-11 05:38:00,59.5,58.1,29.73,South,169,0.0,3.0,95,0.00,,OVC090,0.08,VWS V14.00,2013-05-11 09:38:00,
2013-05-11 05:39:00,59.5,58.1,29.73,South,169,1.0,3.0,95,0.00,,OVC090,0.08,VWS V14.00,2013-05-11 09:39:00,
2013-05-11 05:40:00,59.5,58.1,29.73,SSE,163,2.0,3.0,95,0.00,,OVC090,0.08,VWS V14.00,2013-05-11 09:40:00,
2013-05-11 05:41:00,59.5,58.1,29.73,SSE,148,2.0,3.0,95,0.00,,OVC090,0.08,VWS V14.00,2013-05-11 09:41:00,
2013-05-11 05:42:00,59.5,58.1,29.73,SSE,148,1.0,3.0,95,0.00,,OVC090,0.08,VWS V14.00,2013-05-11 09:42:00,
2013-05-11 05:43:00,59.4,57.7,29.73,SSE,148,0.0,3.0,94,0.00,,OVC090,0.08,VWS V14.00,2013-05-11 09:43:00,
2013-05-11 05:44:00,59.4,57.7,29.73,SSE,148,0.0,3.0,94,0.00,,OVC090,0.08,VWS V14.00,2013-05-11 09:44:00,
2013-05-11 05:45:00,59.4,58.0,29.73,SSE,156,0.0,3.0,95,0.00,,OVC090,0.08,VWS V14.00,2013-05-11 09:45:00,
2013-05-11 05:46:00,59.4,58.0,29.73,SSE,155,0.0,3.0,95,0.00,,OVC090,0.08,VWS V14.00,2013-05-11 09:46:00,
2013-05-11 05:47:00,59.4,58.0,29.73,SSE,155,0.0,3.0,95,0.00,,OVC090,0.08,VWS V14.00,2013-05-11 09:47:00,
2013-05-11 05:48:00,59.4,58.0,29.73,SSE,155,0.0,3.0,95,0.00,,OVC090,0.08,VWS V14.00,2013-05-11 09:48:00,
2013-05-11 05:49:00,59.4,58.0,29.73,SSE,155,0.0,3.0,95,0.00,,OVC090,0.08,VWS V14.00,2013-05-11 09:49:00,
2013-05-11 05:50:00,59.4,58.0,29.73,SSE,155,0.0,3.0,95,0.00,,BKN070,0.08,VWS V14.00,2013-05-11 09:50:00,
2013-05-11 05:51:00,59.3,57.9,29.73,SSE,155,0.0,0.0,95,0.00,,BKN070,0.08,VWS V14.00,2013-05-11 09:51:00,
2013-05-11 05:52:00,59.3,57.9,29.73,SSE,155,0.0,0.0,95,0.00,,BKN070,0.08,VWS V14.00,2013-05-11 09:52:00,
2013-05-11 05:53:00,59.3,57.9,29.73,SSE,155,0.0,0.0,95,0.00,,BKN070,0.08,VWS V14.00,2013-05-11 09:53:00,
2013-05-11 05:54:00,59.3,57.9,29.73,SSE,155,0.0,0.0,95,0.00,,BKN070,0.08,VWS V14.00,2013-05-11 09:54:00,
2013-05-11 05:55:00,59.3,57.9,29.73,SSE,155,0.0,0.0,95,0.00,,BKN070,0.08,VWS V14.00,2013-05-11 09:55:00,
2013-05-11 05:56:00,59.3,57.9,29.73,SSE,155,0.0,0.0,95,0.00,,BKN070,0.08,VWS V14.00,2013-05-11 09:56:00,
2013-05-11 05:57:00,59.3,57.9,29.73,SSE,155,0.0,0.0,95,0.00,,BKN070,0.08,VWS V14.00,2013-05-11 09:57:00,
2013-05-11 05:58:00,59.3,57.9,29.73,SSE,155,0.0,0.0,95,0.00,,BKN070,0.08,VWS V14.00,2013-05-11 09:58:00,
2013-05-11 05:59:00,59.3,57.9,29.73,SSE,155,0.0,0.0,95,0.00,,BKN070,0.08,VWS V14.00,2013-05-11 09:59:00,
2013-05-11 06:00:00,59.2,57.8,29.73,SSE,155,0.0,0.0,95,0.00,,BKN070,0.08,VWS V14.00,2013-05-11 10:00:00,
2013-05-11 06:01:00,59.3,57.9,29.73,SSE,155,0.0,0.0,95,0.00,,BKN070,0.08,VWS V14.00,2013-05-11 10:01:00,
2013-05-11 06:02:00,59.2,57.8,29.73,SSE,155,0.0,0.0,95,0.00,,BKN070,0.08,VWS V14.00,2013-05-11 10:02:00,
2013-05-11 06:03:00,59.2,57.8,29.73,SSE,155,0.0,0.0,95,0.00,,BKN070,0.08,VWS V14.00,2013-05-11 10:03:00,
2013-05-11 06:04:00,59.2,57.8,29.73,SSE,155,0.0,0.0,95,0.00,,BKN070,0.08,VWS V14.00,2013-05-11 10:04:00,
2013-05-11 06:05:00,59.2,57.8,29.73,SSE,155,0.0,0.0,95,0.00,,BKN070,0.08,VWS V14.00,2013-05-11 10:05:00,
2013-05-11 06:06:00,59.2,57.8,29.73,SSE,155,0.0,0.0,95,0.00,,BKN070,0.08,VWS V14.00,2013-05-11 10:06:00,
2013-05-11 06:07:00,59.2,57.8,29.73,SSE,155,0.0,0.0,95,0.00,,BKN070,0.08,VWS V14.00,2013-05-11 10:07:00,
2013-05-11 06:08:00,59.2,57.8,29.73,SSE,155,2.0,2.0,95,0.00,,BKN070,0.08,VWS V14.00,2013-05-11 10:08:00,
2013-05-11 06:09:00,59.2,57.8,29.73,SSE,155,0.0,2.0,95,0.00,,BKN070,0.08,VWS V14.00,2013-05-11 10:09:00,
2013-05-11 06:10:00,59.1,57.7,29.73,SSE,155,0.0,2.0,95,0.00,,BKN070,0.08,VWS V14.00,2013-05-11 10:10:00,
2013-05-11 06:11:00,59.1,57.7,29.73,SSE,155,0.0,0.0,95,0.00,,BKN070,0.08,VWS V14.00,2013-05-11 10:11:00,
2013-05-11 06:12:00,59.2,57.8,29.73,SSE,155,0.0,0.0,95,0.00,,BKN070,0.08,VWS V14.00,2013-05-11 10:12:00,
2013-05-11 06:13:00,59.2,57.8,29.73,SSE,155,0.0,0.0,95,0.00,,BKN070,0.08,VWS V14.00,2013-05-11 10:13:00,
2013-05-11 06:14:00,59.2,57.8,29.73,SSE,155,0.0,0.0,95,0.00,,BKN070,0.08,VWS V14.00,2013-05-11 10:14:00,
2013-05-11 06:15:00,59.2,57.8,29.73,SSE,155,0.0,0.0,95,0.00,,BKN070,0.08,VWS V14.00,2013-05-11 10:15:00,
2013-05-11 06:16:00,59.2,57.8,29.73,SSE,155,0.0,0.0,95,0.00,,BKN070,0.08,VWS V14.00,2013-05-11 10:16:00,
2013-05-11 06:17:00,59.1,57.7,29.73,SSE,155,0.0,0.0,95,0.00,,BKN070,0.08,VWS V14.00,2013-05-11 10:17:00,
2013-05-11 06:18:00,59.2,57.8,29.73,SSE,155,0.0,0.0,95,0.00,,BKN070,0.08,VWS V14.00,2013-05-11 10:18:00,
2013-05-11 06:19:00,59.1,57.7,29.73,SSE,155,0.0,0.0,95,0.00,,BKN070,0.08,VWS V14.00,2013-05-11 10:19:00,
2013-05-11 06:20:00,59.1,57.7,29.73,SSE,155,0.0,0.0,95,0.00,,BKN070,0.08,VWS V14.00,2013-05-11 10:20:00,
2013-05-11 06:21:00,59.0,57.6,29.73,SSE,155,0.0,0.0,95,0.00,,BKN070,0.08,VWS V14.00,2013-05-11 10:21:00,
2013-05-11 06:22:00,59.1,57.7,29.73,SSE,155,0.0,0.0,95,0.00,,BKN070,0.08,VWS V14.00,2013-05-11 10:22:00,
2013-05-11 06:23:00,59.1,57.7,29.73,SSE,155,0.0,0.0,95,0.00,,BKN070,0.08,VWS V14.00,2013-05-11 10:23:00,
2013-05-11 06:24:00,59.0,57.6,29.73,SSE,155,0.0,0.0,95,0.00,,BKN070,0.08,VWS V14.00,2013-05-11 10:24:00,
2013-05-11 06:25:00,59.1,57.7,29.73,SSE,155,0.0,0.0,95,0.00,,BKN070,0.08,VWS V14.00,2013-05-11 10:25:00,
2013-05-11 06:26:00,59.1,57.7,29.73,SSE,155,0.0,0.0,95,0.00,,BKN070,0.08,VWS V14.00,2013-05-11 10:26:00,
2013-05-11 06:27:00,59.0,57.6,29.73,SSE,155,0.0,0.0,95,0.00,,BKN070,0.08,VWS V14.00,2013-05-11 10:27:00,
2013-05-11 06:28:00,59.1,57.7,29.73,SSE,155,0.0,0.0,95,0.00,,BKN070,0.08,VWS V14.00,2013-05-11 10:28:00,
2013-05-11 06:29:00,59.1,57.7,29.73,SSE,155,0.0,0.0,95,0.00,,BKN070,0.08,VWS V14.00,2013-05-11 10:29:00,
2013-05-11 06:30:00,59.1,58.0,29.73,SSE,155,0.0,0.0,96,0.00,,BKN070,0.08,VWS V14.00,2013-05-11 10:30:00,
2013-05-11 06:31:00,59.1,58.0,29.73,SSE,155,0.0,0.0,96,0.00,,BKN070,0.08,VWS V14.00,2013-05-11 10:31:00,
2013-05-11 06:32:00,59.1,58.0,29.73,SSE,155,0.0,0.0,96,0.00,,BKN070,0.08,VWS V14.00,2013-05-11 10:32:00,
2013-05-11 06:33:00,59.1,58.0,29.73,SSE,155,0.0,0.0,96,0.00,,BKN070,0.08,VWS V14.00,2013-05-11 10:33:00,
2013-05-11 06:34:00,59.1,58.0,29.73,SSE,155,0.0,0.0,96,0.00,,BKN070,0.08,VWS V14.00,2013-05-11 10:34:00,
2013-05-11 06:35:00,59.1,58.0,29.73,SSE,155,0.0,0.0,96,0.00,,BKN070,0.08,VWS V14.00,2013-05-11 10:35:00,
2013-05-11 06:36:00,59.1,58.0,29.73,SSE,155,0.0,0.0,96,0.00,,BKN070,0.09,VWS V14.00,2013-05-11 10:36:00,
2013-05-11 06:37:00,59.1,58.0,29.73,SSE,155,0.0,0.0,96,0.00,,BKN070,0.09,VWS V14.00,2013-05-11 10:37:00,
2013-05-11 06:38:00,59.1,58.0,29.73,SSE,155,0.0,0.0,96,0.00,,BKN070,0.09,VWS V14.00,2013-05-11 10:38:00,
2013-05-11 06:39:00,59.1,58.0,29.73,SSE,155,0.0,0.0,96,0.00,,BKN070,0.09,VWS V14.00,2013-05-11 10:39:00,
2013-05-11 06:40:00,59.2,58.1,29.72,SSE,155,0.0,0.0,96,0.00,,BKN070,0.09,VWS V14.00,2013-05-11 10:40:00,
2013-05-11 06:41:00,59.1,58.0,29.73,SSE,155,0.0,0.0,96,0.00,,BKN070,0.09,VWS V14.00,2013-05-11 10:41:00,
2013-05-11 06:42:00,59.1,58.0,29.72,SSE,155,0.0,0.0,96,0.00,,BKN070,0.09,VWS V14.00,2013-05-11 10:42:00,
2013-05-11 06:43:00,59.2,58.1,29.73,SSE,155,0.0,0.0,96,0.00,,BKN070,0.09,VWS V14.00,2013-05-11 10:43:00,
2013-05-11 06:44:00,59.2,58.1,29.73,SSE,155,0.0,0.0,96,0.00,,BKN070,0.09,VWS V14.00,2013-05-11 10:44:00,
2013-05-11 06:45:00,59.2,58.1,29.73,SSE,155,0.0,0.0,96,0.00,,BKN070,0.09,VWS V14.00,2013-05-11 10:45:00,
2013-05-11 06:46:00,59.2,58.1,29.73,SSE,155,0.0,0.0,96,0.00,,BKN070,0.09,VWS V14.00,2013-05-11 10:46:00,
2013-05-11 06:47:00,59.2,58.1,29.73,SSE,155,0.0,0.0,96,0.00,,BKN070,0.09,VWS V14.00,2013-05-11 10:47:00,
2013-05-11 06:48:00,59.3,58.2,29.73,SSE,155,0.0,0.0,96,0.00,,BKN070,0.09,VWS V14.00,2013-05-11 10:48:00,
2013-05-11 06:49:00,59.2,58.1,29.73,SSE,155,0.0,0.0,96,0.00,,BKN070,0.09,VWS V14.00,2013-05-11 10:49:00,
2013-05-11 06:50:00,59.2,58.1,29.73,SSE,155,0.0,0.0,96,0.00,,OVC049,0.09,VWS V14.00,2013-05-11 10:50:00,
2013-05-11 06:51:00,59.3,58.2,29.73,SSE,155,0.0,0.0,96,0.00,,OVC049,0.09,VWS V14.00,2013-05-11 10:51:00,
2013-05-11 06:52:00,59.3,58.2,29.73,SSE,155,0.0,0.0,96,0.00,,OVC049,0.09,VWS V14.00,2013-05-11 10:52:00,
2013-05-11 06:53:00,59.3,58.2,29.73,SSE,155,0.0,0.0,96,0.00,,OVC049,0.09,VWS V14.00,2013-05-11 10:53:00,
2013-05-11 06:54:00,59.3,58.2,29.73,SSE,155,0.0,0.0,96,0.00,,OVC049,0.09,VWS V14.00,2013-05-11 10:54:00,
2013-05-11 06:55:00,59.3,58.2,29.73,SSE,155,0.0,0.0,96,0.00,,OVC049,0.09,VWS V14.00,2013-05-11 10:55:00,
2013-05-11 06:56:00,59.3,58.2,29.73,SSE,155,0.0,0.0,96,0.00,,OVC049,0.09,VWS V14.00,2013-05-11 10:56:00,
2013-05-11 06:57:00,59.3,58.2,29.73,SSE,155,0.0,0.0,96,0.00,,OVC049,0.09,VWS V14.00,2013-05-11 10:57:00,
2013-05-11 07:00:00,59.4,58.3,29.72,SSE,158,0.0,2.0,96,0.00,,OVC049,0.08,VWS V14.00,2013-05-11 11:00:00,
2013-05-11 07:04:00,59.5,58.4,29.73,South,188,0.0,0.0,96,0.00,,OVC049,0.09,VWS V14.00,2013-05-11 11:04:00,
2013-05-11 07:05:00,59.5,58.4,29.73,SSW,198,3.0,3.0,96,0.00,,OVC049,0.09,VWS V14.00,2013-05-11 11:05:00,
2013-05-11 07:06:00,59.5,58.4,29.73,SSW,198,0.0,3.0,96,0.00,,OVC049,0.09,VWS V14.00,2013-05-11 11:06:00,
2013-05-11 07:07:00,59.5,58.4,29.72,SSW,202,0.0,3.0,96,0.00,,OVC049,0.09,VWS V14.00,2013-05-11 11:07:00,
2013-05-11 07:08:00,59.5,58.4,29.72,SSW,206,0.0,3.0,96,0.00,,OVC049,0.09,VWS V14.00,2013-05-11 11:08:00,
2013-05-11 07:09:00,59.6,58.5,29.72,SSW,206,0.0,3.0,96,0.00,,OVC049,0.09,VWS V14.00,2013-05-11 11:09:00,
2013-05-11 07:10:00,59.6,58.5,29.72,SSW,206,0.0,3.0,96,0.00,,OVC049,0.09,VWS V14.00,2013-05-11 11:10:00,
2013-05-11 07:11:00,59.6,58.5,29.72,SSW,196,1.0,1.0,96,0.00,,OVC049,0.09,VWS V14.00,2013-05-11 11:11:00,
2013-05-11 07:12:00,59.6,58.5,29.72,SSW,205,3.0,3.0,96,0.00,,OVC049,0.09,VWS V14.00,2013-05-11 11:12:00,
2013-05-11 07:13:00,59.7,58.6,29.72,SSW,205,4.0,4.0,96,0.00,,OVC049,0.09,VWS V14.00,2013-05-11 11:13:00,
2013-05-11 07:14:00,59.7,58.6,29.72,South,179,2.0,6.0,96,0.00,,OVC049,0.09,VWS V14.00,2013-05-11 11:14:00,
2013-05-11 07:15:00,59.7,58.6,29.72,SSW,202,3.0,6.0,96,0.00,,OVC049,0.09,VWS V14.00,2013-05-11 11:15:00,
2013-05-11 07:16:00,59.8,58.7,29.72,South,191,0.0,6.0,96,0.00,,OVC049,0.09,VWS V14.00,2013-05-11 11:16:00,
2013-05-11 07:17:00,59.8,58.7,29.72,SSW,203,5.0,6.0,96,0.00,,OVC049,0.09,VWS V14.00,2013-05-11 11:17:00,
2013-05-11 07:18:00,59.8,58.7,29.72,SSW,200,5.0,6.0,96,0.00,,OVC049,0.09,VWS V14.00,2013-05-11 11:18:00,
2013-05-11 07:19:00,59.8,58.7,29.72,SSW,210,0.0,6.0,96,0.00,,OVC049,0.09,VWS V14.00,2013-05-11 11:19:00,
2013-05-11 07:20:00,59.9,58.8,29.72,SSW,198,1.0,6.0,96,0.00,,OVC049,0.09,VWS V14.00,2013-05-11 11:20:00,
2013-05-11 07:21:00,59.9,58.8,29.72,SSW,213,4.0,4.0,96,0.00,,OVC049,0.09,VWS V14.00,2013-05-11 11:21:00,
2013-05-11 07:22:00,59.9,58.8,29.72,SSW,202,2.0,4.0,96,0.00,,OVC049,0.09,VWS V14.00,2013-05-11 11:22:00,
2013-05-11 07:23:00,60.0,58.9,29.72,SSW,200,3.0,4.0,96,0.00,,OVC049,0.09,VWS V14.00,2013-05-11 11:23:00,
2013-05-11 07:24:00,60.0,58.9,29.72,SSW,207,4.0,4.0,96,0.00,,OVC049,0.09,VWS V14.00,2013-05-11 11:24:00,
2013-05-11 07:25:00,60.0,58.9,29.72,SSW,204,4.0,6.0,96,0.00,,OVC049,0.09,VWS V14.00,2013-05-11 11:25:00,
2013-05-11 07:26:00,60.0,58.9,29.72,South,169,0.0,6.0,96,0.00,,OVC049,0.09,VWS V14.00,2013-05-11 11:26:00,
2013-05-11 07:27:00,60.0,58.9,29.72,SSW,194,1.0,7.0,96,0.00,,OVC049,0.09,VWS V14.00,2013-05-11 11:27:00,
2013-05-11 07:28:00,60.0,58.6,29.72,SW,221,4.0,7.0,95,0.00,,OVC049,0.09,VWS V14.00,2013-05-11 11:28:00,
2013-05-11 07:29:00,60.1,58.7,29.72,SW,220,1.0,7.0,95,0.00,,OVC049,0.09,VWS V14.00,2013-05-11 11:29:00,
2013-05-11 07:30:00,60.0,58.6,29.72,South,190,2.0,7.0,95,0.00,,OVC049,0.09,VWS V14.00,2013-05-11 11:30:00,
2013-05-11 07:31:00,60.0,58.6,29.72,SW,232,9.0,12.0,95,0.00,,OVC049,0.09,VWS V14.00,2013-05-11 11:31:00,
2013-05-11 07:32:00,60.1,58.7,29.72,SSW,200,2.0,12.0,95,0.00,,OVC049,0.09,VWS V14.00,2013-05-11 11:32:00,
2013-05-11 07:33:00,60.1,58.7,29.72,SSW,202,9.0,12.0,95,0.00,,OVC049,0.09,VWS V14.00,2013-05-11 11:33:00,
2013-05-11 07:34:00,60.2,58.8,29.72,SSW,205,6.0,12.0,95,0.00,,OVC049,0.09,VWS V14.00,2013-05-11 11:34:00,
2013-05-11 07:35:00,60.3,58.9,29.72,SSW,203,11.0,12.0,95,0.00,,OVC049,0.09,VWS V14.00,2013-05-11 11:35:00,
2013-05-11 07:36:00,60.3,58.9,29.73,SSW,209,8.0,12.0,95,0.00,,OVC049,0.09,VWS V14.00,2013-05-11 11:36:00,
2013-05-11 07:37:00,60.4,59.0,29.73,South,174,4.0,12.0,95,0.00,,OVC049,0.09,VWS V14.00,2013-05-11 11:37:00,
2013-05-11 07:38:00,60.3,58.9,29.73,South,186,0.0,12.0,95,0.00,,OVC049,0.09,VWS V14.00,2013-05-11 11:38:00,
2013-05-11 07:39:00,60.3,58.9,29.72,NE,55,1.0,12.0,95,0.00,,OVC049,0.09,VWS V14.00,2013-05-11 11:39:00,
2013-05-11 07:40:00,60.4,59.0,29.72,SSW,199,6.0,12.0,95,0.00,,OVC049,0.09,VWS V14.00,2013-05-11 11:40:00,
2013-05-11 07:41:00,60.4,59.0,29.73,South,190,8.0,8.0,95,0.00,,OVC049,0.09,VWS V14.00,2013-05-11 11:41:00,
2013-05-11 07:42:00,60.3,58.9,29.72,SW,217,6.0,8.0,95,0.00,,OVC049,0.09,VWS V14.00,2013-05-11 11:42:00,
2013-05-11 07:43:00,60.4,59.0,29.72,SE,143,4.0,10.0,95,0.00,,OVC049,0.09,VWS V14.00,2013-05-11 11:43:00,
2013-05-11 07:44:00,60.4,59.0,29.72,SSW,213,5.0,10.0,95,0.00,,OVC049,0.09,VWS V14.00,2013-05-11 11:44:00,
2013-05-11 07:45:00,60.4,59.0,29.72,SSW,212,4.0,10.0,95,0.00,,OVC049,0.09,VWS V14.00,2013-05-11 11:45:00,
2013-05-11 07:46:00,60.4,59.0,29.72,SSW,193,1.0,10.0,95,0.00,,OVC049,0.09,VWS V14.00,2013-05-11 11:46:00,
2013-05-11 07:47:00,60.4,59.0,29.72,SSW,198,3.0,10.0,95,0.00,,OVC049,0.09,VWS V14.00,2013-05-11 11:47:00,
2013-05-11 07:48:00,60.4,59.0,29.72,SSW,193,1.0,10.0,95,0.00,,OVC049,0.09,VWS V14.00,2013-05-11 11:48:00,
2013-05-11 07:49:00,60.3,58.9,29.72,SSW,205,7.0,10.0,95,0.00,,OVC049,0.09,VWS V14.00,2013-05-11 11:49:00,
2013-05-11 07:50:00,60.3,58.9,29.72,SSW,203,5.0,10.0,95,0.00,,OVC033,0.09,VWS V14.00,2013-05-11 11:50:00,
2013-05-11 07:51:00,60.3,58.9,29.72,South,174,4.0,5.0,95,0.00,,OVC033,0.09,VWS V14.00,2013-05-11 11:51:00,
2013-05-11 07:52:00,60.3,58.9,29.72,SSW,200,2.0,14.0,95,0.00,,OVC033,0.09,VWS V14.00,2013-05-11 11:52:00,
2013-05-11 07:53:00,60.3,58.9,29.72,South,186,2.0,14.0,95,0.00,,OVC033,0.09,VWS V14.00,2013-05-11 11:53:00,
2013-05-11 07:54:00,60.4,59.0,29.72,South,179,6.0,14.0,95,0.00,,OVC033,0.09,VWS V14.00,2013-05-11 11:54:00,
2013-05-11 07:55:00,60.3,58.9,29.72,SSE,163,1.0,14.0,95,0.00,,OVC033,0.09,VWS V14.00,2013-05-11 11:55:00,
2013-05-11 07:56:00,60.3,58.9,29.72,SSW,207,6.0,14.0,95,0.00,,OVC033,0.09,VWS V14.00,2013-05-11 11:56:00,
2013-05-11 07:57:00,60.3,58.9,29.73,South,188,3.0,14.0,95,0.00,,OVC033,0.09,VWS V14.00,2013-05-11 11:57:00,
2013-05-11 07:58:00,60.3,58.9,29.73,SSW,197,9.0,14.0,95,0.00,,OVC033,0.09,VWS V14.00,2013-05-11 11:58:00,
2013-05-11 07:59:00,60.4,59.0,29.73,SSW,196,3.0,14.0,95,0.00,,OVC033,0.09,VWS V14.00,2013-05-11 11:59:00,
2013-05-11 08:00:00,60.4,59.0,29.73,South,180,2.0,14.0,95,0.00,,OVC033,0.09,VWS V14.00,2013-05-11 12:00:00,
2013-05-11 08:01:00,60.4,59.0,29.73,SSW,198,9.0,9.0,95,0.00,,OVC033,0.09,VWS V14.00,2013-05-11 12:01:00,
2013-05-11 08:02:00,60.4,59.0,29.72,SSW,205,13.0,13.0,95,0.00,,OVC033,0.09,VWS V14.00,2013-05-11 12:02:00,
2013-05-11 08:03:00,60.4,59.0,29.73,SSW,209,6.0,13.0,95,0.00,,OVC033,0.09,VWS V14.00,2013-05-11 12:03:00,
2013-05-11 08:04:00,60.4,58.7,29.73,South,172,6.0,13.0,94,0.00,,OVC033,0.09,VWS V14.00,2013-05-11 12:04:00,
2013-05-11 08:05:00,60.4,58.7,29.73,SSW,196,13.0,13.0,94,0.00,,OVC033,0.09,VWS V14.00,2013-05-11 12:05:00,
2013-05-11 08:06:00,60.5,58.8,29.73,SSW,196,5.0,13.0,94,0.00,,OVC033,0.09,VWS V14.00,2013-05-11 12:06:00,
2013-05-11 08:07:00,60.5,58.8,29.73,South,188,15.0,15.0,94,0.00,,OVC033,0.09,VWS V14.00,2013-05-11 12:07:00,
2013-05-11 08:08:00,60.6,58.9,29.73,South,180,9.0,15.0,94,0.00,,OVC033,0.09,VWS V14.00,2013-05-11 12:08:00,
2013-05-11 08:09:00,60.6,58.9,29.73,SSW,202,11.0,15.0,94,0.00,,OVC033,0.09,VWS V14.00,2013-05-11 12:09:00,
2013-05-11 08:10:00,60.6,58.9,29.73,SSW,194,5.0,15.0,94,0.00,,OVC033,0.09,VWS V14.00,2013-05-11 12:10:00,
2013-05-11 08:11:00,60.6,58.9,29.73,SSW,195,0.0,5.0,94,0.00,,OVC033,0.09,VWS V14.00,2013-05-11 12:11:00,
2013-05-11 08:12:00,60.6,58.9,29.73,SSW,198,7.0,7.0,94,0.00,,OVC033,0.09,VWS V14.00,2013-05-11 12:12:00,
2013-05-11 08:13:00,60.5,58.8,29.73,SSE,168,3.0,7.0,94,0.00,,OVC033,0.09,VWS V14.00,2013-05-11 12:13:00,
2013-05-11 08:14:00,60.5,58.8,29.73,SSW,210,10.0,10.0,94,0.00,,OVC033,0.09,VWS V14.00,2013-05-11 12:14:00,
2013-05-11 08:15:00,60.5,58.8,29.73,SSW,198,7.0,10.0,94,0.00,,OVC033,0.09,VWS V14.00,2013-05-11 12:15:00,
2013-05-11 08:16:00,60.4,58.7,29.73,SSW,206,9.0,10.0,94,0.00,,OVC033,0.09,VWS V14.00,2013-05-11 12:16:00,
2013-05-11 08:17:00,60.4,58.7,29.73,SSW,202,1.0,10.0,94,0.00,,OVC033,0.10,VWS V14.00,2013-05-11 12:17:00,
2013-05-11 08:18:00,60.4,58.7,29.73,SSW,202,5.0,10.0,94,0.00,,OVC033,0.10,VWS V14.00,2013-05-11 12:18:00,
2013-05-11 08:19:00,60.4,58.7,29.73,SSW,200,4.0,10.0,94,0.00,,OVC033,0.10,VWS V14.00,2013-05-11 12:19:00,
2013-05-11 08:20:00,60.4,58.7,29.73,SSW,200,4.0,10.0,94,0.00,,OVC033,0.10,VWS V14.00,2013-05-11 12:20:00,
2013-05-11 08:21:00,60.4,59.0,29.73,SSW,202,6.0,7.0,95,0.00,,OVC033,0.10,VWS V14.00,2013-05-11 12:21:00,
2013-05-11 08:22:00,60.5,59.1,29.73,SSW,198,7.0,9.0,95,0.00,,OVC033,0.10,VWS V14.00,2013-05-11 12:22:00,
2013-05-11 08:23:00,60.5,59.1,29.73,SSW,199,8.0,9.0,95,0.00,,OVC033,0.10,VWS V14.00,2013-05-11 12:23:00,
2013-05-11 08:24:00,60.5,59.1,29.73,SSW,204,10.0,10.0,95,0.00,,OVC033,0.10,VWS V14.00,2013-05-11 12:24:00,
2013-05-11 08:25:00,60.6,58.9,29.73,SSW,199,6.0,10.0,94,0.00,,OVC033,0.10,VWS V14.00,2013-05-11 12:25:00,
2013-05-11 08:26:00,60.6,59.2,29.73,SSW,205,7.0,10.0,95,0.00,,OVC033,0.10,VWS V14.00,2013-05-11 12:26:00,
2013-05-11 08:27:00,60.6,59.2,29.73,SSW,202,9.0,11.0,95,0.00,,OVC033,0.10,VWS V14.00,2013-05-11 12:27:00,
2013-05-11 08:28:00,60.7,59.3,29.73,South,184,6.0,11.0,95,0.00,,OVC033,0.10,VWS V14.00,2013-05-11 12:28:00,
2013-05-11 08:29:00,60.7,59.3,29.73,SSW,200,13.0,13.0,95,0.00,,OVC033,0.10,VWS V14.00,2013-05-11 12:29:00,
2013-05-11 08:30:00,60.7,59.0,29.73,SSW,192,5.0,13.0,94,0.00,,OVC033,0.10,VWS V14.00,2013-05-11 12:30:00,
2013-05-11 08:31:00,60.7,59.3,29.73,SSW,196,10.0,12.0,95,0.00,,OVC033,0.10,VWS V14.00,2013-05-11 12:31:00,
2013-05-11 08:32:00,60.7,59.3,29.73,South,190,1.0,12.0,95,0.00,,OVC033,0.10,VWS V14.00,2013-05-11 12:32:00,
2013-05-11 08:33:00,60.7,59.3,29.73,South,190,1.0,12.0,95,0.00,,OVC033,0.10,VWS V14.00,2013-05-11 12:33:00,
2013-05-11 08:34:00,60.7,59.0,29.73,SSW,205,10.0,12.0,94,0.00,,OVC033,0.10,VWS V14.00,2013-05-11 12:34:00,
2013-05-11 08:35:00,60.7,59.3,29.73,South,191,0.0,12.0,95,0.00,,OVC033,0.10,VWS V14.00,2013-05-11 12:35:00,
2013-05-11 08:36:00,60.7,59.0,29.73,SSW,200,0.0,12.0,94,0.00,,OVC033,0.10,VWS V14.00,2013-05-11 12:36:00,
2013-05-11 08:37:00,60.7,59.3,29.73,SSW,202,1.0,12.0,95,0.00,,OVC033,0.10,VWS V14.00,2013-05-11 12:37:00,
2013-05-11 08:38:00,60.7,59.0,29.73,SSW,200,3.0,12.0,94,0.00,,OVC033,0.10,VWS V14.00,2013-05-11 12:38:00,
2013-05-11 08:39:00,60.8,59.1,29.73,SSW,203,5.0,12.0,94,0.00,,OVC033,0.10,VWS V14.00,2013-05-11 12:39:00,
2013-05-11 08:40:00,60.8,59.1,29.73,SSW,206,4.0,12.0,94,0.00,,OVC033,0.10,VWS V14.00,2013-05-11 12:40:00,
2013-05-11 08:41:00,60.8,59.1,29.73,SSW,202,9.0,12.0,94,0.00,,OVC033,0.10,VWS V14.00,2013-05-11 12:41:00,
2013-05-11 08:42:00,60.8,59.1,29.72,South,182,9.0,12.0,94,0.00,,OVC033,0.10,VWS V14.00,2013-05-11 12:42:00,
2013-05-11 08:43:00,60.9,59.5,29.72,SSW,202,11.0,12.0,95,0.00,,OVC033,0.10,VWS V14.00,2013-05-11 12:43:00,
2013-05-11 08:44:00,60.9,59.5,29.72,SSW,196,10.0,12.0,95,0.00,,OVC033,0.10,VWS V14.00,2013-05-11 12:44:00,
2013-05-11 08:45:00,61.0,59.6,29.72,SSW,201,9.0,13.0,95,0.00,,OVC033,0.10,VWS V14.00,2013-05-11 12:45:00,
2013-05-11 08:46:00,61.1,59.4,29.72,SSW,199,2.0,13.0,94,0.00,,OVC033,0.10,VWS V14.00,2013-05-11 12:46:00,
2013-05-11 08:47:00,61.1,59.4,29.72,SSW,213,11.0,13.0,94,0.00,,OVC033,0.10,VWS V14.00,2013-05-11 12:47:00,
2013-05-11 08:48:00,61.2,59.5,29.72,SSW,205,11.0,13.0,94,0.00,,OVC033,0.10,VWS V14.00,2013-05-11 12:48:00,
2013-05-11 08:49:00,61.3,59.6,29.72,South,187,14.0,14.0,94,0.00,,OVC033,0.10,VWS V14.00,2013-05-11 12:49:00,
2013-05-11 08:50:00,61.3,59.6,29.72,SSW,200,11.0,14.0,94,0.00,,OVC033,0.10,VWS V14.00,2013-05-11 12:50:00,
2013-05-11 08:51:00,61.4,59.7,29.72,SSW,196,13.0,13.0,94,0.00,,OVC033,0.10,VWS V14.00,2013-05-11 12:51:00,
2013-05-11 08:52:00,61.5,59.5,29.72,SSW,192,0.0,13.0,93,0.00,,OVC033,0.10,VWS V14.00,2013-05-11 12:52:00,
2013-05-11 08:53:00,61.6,59.6,29.72,SSW,200,11.0,13.0,93,0.00,,OVC033,0.10,VWS V14.00,2013-05-11 12:53:00,
2013-05-11 08:54:00,61.6,59.6,29.72,SSW,200,10.0,13.0,93,0.00,,OVC033,0.10,VWS V14.00,2013-05-11 12:54:00,
2013-05-11 08:55:00,61.5,59.5,29.72,SSW,202,10.0,13.0,93,0.00,,OVC033,0.10,VWS V14.00,2013-05-11 12:55:00,
2013-05-11 08:56:00,61.6,59.6,29.72,South,175,6.0,13.0,93,0.00,,OVC033,0.10,VWS V14.00,2013-05-11 12:56:00,
2013-05-11 08:57:00,61.6,59.6,29.72,SSW,207,11.0,13.0,93,0.00,,OVC033,0.10,VWS V14.00,2013-05-11 12:57:00,
2013-05-11 08:58:00,61.6,59.6,29.72,South,190,8.0,13.0,93,0.00,,OVC033,0.10,VWS V14.00,2013-05-11 12:58:00,
2013-05-11 08:59:00,61.6,59.6,29.72,SSW,207,15.0,15.0,93,0.00,,OVC033,0.10,VWS V14.00,2013-05-11 12:59:00,
2013-05-11 09:00:00,61.7,59.7,29.72,SSW,195,15.0,18.0,93,0.00,,OVC033,0.10,VWS V14.00,2013-05-11 13:00:00,
2013-05-11 09:01:00,61.7,59.4,29.72,South,183,5.0,17.0,92,0.00,,OVC033,0.10,VWS V14.00,2013-05-11 13:01:00,
2013-05-11 09:02:00,61.8,59.5,29.72,SSW,207,13.0,17.0,92,0.00,,OVC033,0.10,VWS V14.00,2013-05-11 13:02:00,
2013-05-11 09:03:00,61.8,59.5,29.72,South,189,6.0,17.0,92,0.00,,OVC033,0.10,VWS V14.00,2013-05-11 13:03:00,
2013-05-11 09:04:00,61.8,59.5,29.72,SSW,192,11.0,17.0,92,0.00,,OVC033,0.10,VWS V14.00,2013-05-11 13:04:00,
2013-05-11 09:05:00,61.9,59.5,29.72,SSW,207,11.0,17.0,92,0.00,,OVC033,0.10,VWS V14.00,2013-05-11 13:05:00,
2013-05-11 09:06:00,62.0,59.7,29.72,SSW,202,12.0,17.0,92,0.00,,OVC033,0.10,VWS V14.00,2013-05-11 13:06:00,
2013-05-11 09:07:00,62.0,59.7,29.72,SSW,192,9.0,17.0,92,0.00,,OVC033,0.10,VWS V14.00,2013-05-11 13:07:00,
2013-05-11 09:08:00,62.0,59.7,29.72,SSW,198,12.0,17.0,92,0.00,,OVC033,0.10,VWS V14.00,2013-05-11 13:08:00,
2013-05-11 09:09:00,62.0,59.7,29.72,SSW,202,5.0,17.0,92,0.00,,OVC033,0.10,VWS V14.00,2013-05-11 13:09:00,
2013-05-11 09:10:00,62.0,59.7,29.72,South,186,5.0,17.0,92,0.00,,OVC033,0.10,VWS V14.00,2013-05-11 13:10:00,
2013-05-11 09:11:00,62.0,59.7,29.72,South,187,2.0,10.0,92,0.00,,OVC033,0.10,VWS V14.00,2013-05-11 13:11:00,
2013-05-11 09:12:00,62.0,59.7,29.72,South,184,3.0,10.0,92,0.00,,OVC033,0.10,VWS V14.00,2013-05-11 13:12:00,
2013-05-11 09:13:00,62.0,59.7,29.72,SSW,209,6.0,12.0,92,0.00,,OVC033,0.10,VWS V14.00,2013-05-11 13:13:00,
2013-05-11 09:14:00,62.1,59.8,29.72,SW,217,5.0,12.0,92,0.00,,OVC033,0.10,VWS V14.00,2013-05-11 13:14:00,
2013-05-11 09:15:00,62.1,59.8,29.72,SSW,209,14.0,14.0,92,0.00,,OVC033,0.10,VWS V14.00,2013-05-11 13:15:00,
2013-05-11 09:16:00,62.1,59.8,29.72,SSW,198,6.0,14.0,92,0.00,,OVC033,0.10,VWS V14.00,2013-05-11 13:16:00,
2013-05-11 09:17:00,62.1,59.8,29.72,SSW,198,12.0,14.0,92,0.00,,OVC033,0.10,VWS V14.00,2013-05-11 13:17:00,
2013-05-11 09:18:00,62.2,59.8,29.72,SSW,200,14.0,15.0,92,0.00,,OVC033,0.10,VWS V14.00,2013-05-11 13:18:00,
2013-05-11 09:19:00,62.1,59.8,29.72,SSW,208,14.0,15.0,92,0.00,,OVC033,0.10,VWS V14.00,2013-05-11 13:19:00,
2013-05-11 09:20:00,62.2,59.5,29.72,SSW,199,12.0,15.0,91,0.00,,OVC033,0.10,VWS V14.00,2013-05-11 13:20:00,
2013-05-11 09:21:00,62.2,59.8,29.72,SSW,199,9.0,12.0,92,0.00,,OVC033,0.10,VWS V14.00,2013-05-11 13:21:00,
2013-05-11 09:22:00,62.2,59.8,29.72,SSW,207,12.0,12.0,92,0.00,,OVC033,0.10,VWS V14.00,2013-05-11 13:22:00,
2013-05-11 09:23:00,62.3,60.0,29.72,SSW,198,12.0,13.0,92,0.00,,OVC033,0.10,VWS V14.00,2013-05-11 13:23:00,
2013-05-11 09:24:00,62.3,60.0,29.72,SSW,196,10.0,15.0,92,0.00,,OVC033,0.10,VWS V14.00,2013-05-11 13:24:00,
2013-05-11 09:25:00,62.3,60.0,29.72,SSW,196,10.0,15.0,92,0.00,,OVC033,0.10,VWS V14.00,2013-05-11 13:25:00,
2013-05-11 09:26:00,62.3,60.0,29.72,SSW,200,11.0,15.0,92,0.00,,OVC033,0.10,VWS V14.00,2013-05-11 13:26:00,
2013-05-11 09:27:00,62.3,60.0,29.72,South,186,9.0,15.0,92,0.00,,OVC033,0.10,VWS V14.00,2013-05-11 13:27:00,
2013-05-11 09:28:00,62.4,60.0,29.72,SSW,207,12.0,15.0,92,0.00,,OVC033,0.10,VWS V14.00,2013-05-11 13:28:00,
2013-05-11 09:29:00,62.4,59.7,29.72,SSW,203,10.0,15.0,91,0.00,,OVC033,0.10,VWS V14.00,2013-05-11 13:29:00,
2013-05-11 09:30:00,62.5,60.2,29.72,SSW,203,11.0,15.0,92,0.00,,OVC033,0.10,VWS V14.00,2013-05-11 13:30:00,
2013-05-11 09:31:00,62.5,60.2,29.72,SSW,192,12.0,16.0,92,0.00,,OVC033,0.10,VWS V14.00,2013-05-11 13:31:00,
2013-05-11 09:32:00,62.6,59.9,29.71,SSW,194,6.0,16.0,91,0.00,,OVC033,0.10,VWS V14.00,2013-05-11 13:32:00,
2013-05-11 09:33:00,62.6,59.9,29.71,SSW,198,11.0,16.0,91,0.00,,OVC033,0.10,VWS V14.00,2013-05-11 13:33:00,
2013-05-11 09:34:00,62.6,59.9,29.72,SSW,209,11.0,16.0,91,0.00,,OVC033,0.10,VWS V14.00,2013-05-11 13:34:00,
2013-05-11 09:35:00,62.6,59.9,29.71,SSW,196,7.0,16.0,91,0.00,,OVC033,0.10,VWS V14.00,2013-05-11 13:35:00,
2013-05-11 09:36:00,62.6,59.9,29.71,South,180,7.0,16.0,91,0.00,,OVC033,0.10,VWS V14.00,2013-05-11 13:36:00,
2013-05-11 09:37:00,62.6,59.9,29.72,SSW,202,11.0,16.0,91,0.00,,OVC033,0.10,VWS V14.00,2013-05-11 13:37:00,
2013-05-11 09:38:00,62.7,60.0,29.72,SSW,198,6.0,16.0,91,0.00,,OVC033,0.10,VWS V14.00,2013-05-11 13:38:00,
2013-05-11 09:39:00,62.7,60.0,29.71,SSW,200,0.0,16.0,91,0.00,,OVC033,0.10,VWS V14.00,2013-05-11 13:39:00,
2013-05-11 09:40:00,62.7,60.0,29.71,SSW,196,6.0,16.0,91,0.00,,OVC033,0.10,VWS V14.00,2013-05-11 13:40:00,
2013-05-11 09:41:00,62.7,60.0,29.72,South,181,8.0,11.0,91,0.00,,OVC033,0.10,VWS V14.00,2013-05-11 13:41:00,
2013-05-11 09:42:00,62.7,60.0,29.71,SSE,153,0.0,11.0,91,0.00,,OVC033,0.10,VWS V14.00,2013-05-11 13:42:00,
2013-05-11 09:43:00,62.8,60.1,29.71,SSW,203,11.0,11.0,91,0.00,,OVC033,0.10,VWS V14.00,2013-05-11 13:43:00,
2013-05-11 09:44:00,62.8,59.8,29.71,SSW,194,5.0,11.0,90,0.00,,OVC033,0.10,VWS V14.00,2013-05-11 13:44:00,
2013-05-11 09:45:00,62.8,59.8,29.71,SSE,167,2.0,11.0,90,0.00,,OVC033,0.10,VWS V14.00,2013-05-11 13:45:00,
2013-05-11 09:46:00,62.8,59.8,29.71,SSW,200,5.0,11.0,90,0.00,,OVC033,0.10,VWS V14.00,2013-05-11 13:46:00,
2013-05-11 09:47:00,62.8,59.8,29.71,South,184,4.0,11.0,90,0.00,,OVC033,0.10,VWS V14.00,2013-05-11 13:47:00,
2013-05-11 09:48:00,62.8,59.8,29.71,South,186,4.0,11.0,90,0.00,,OVC033,0.10,VWS V14.00,2013-05-11 13:48:00,
2013-05-11 09:49:00,62.8,59.8,29.71,SSW,199,6.0,11.0,90,0.00,,OVC033,0.10,VWS V14.00,2013-05-11 13:49:00,
2013-05-11 09:50:00,62.8,59.8,29.71,SSW,204,0.0,11.0,90,0.00,,OVC060,0.10,VWS V14.00,2013-05-11 13:50:00,
2013-05-11 09:51:00,62.8,59.8,29.71,South,172,3.0,5.0,90,0.00,,OVC060,0.10,VWS V14.00,2013-05-11 13:51:00,
2013-05-11 09:52:00,62.9,59.9,29.71,SSW,207,1.0,5.0,90,0.00,,OVC060,0.10,VWS V14.00,2013-05-11 13:52:00,
2013-05-11 09:53:00,62.9,59.9,29.71,SSW,202,2.0,8.0,90,0.00,,OVC060,0.10,VWS V14.00,2013-05-11 13:53:00,
2013-05-11 09:54:00,62.9,59.9,29.71,SSW,205,7.0,9.0,90,0.00,,OVC060,0.10,VWS V14.00,2013-05-11 13:54:00,
2013-05-11 09:55:00,63.0,59.7,29.71,South,191,10.0,12.0,89,0.00,,OVC060,0.10,VWS V14.00,2013-05-11 13:55:00,
2013-05-11 09:56:00,63.0,60.0,29.71,SSW,198,7.0,12.0,90,0.00,,OVC060,0.10,VWS V14.00,2013-05-11 13:56:00,
2013-05-11 09:57:00,63.0,59.7,29.71,SSW,203,8.0,13.0,89,0.00,,OVC060,0.10,VWS V14.00,2013-05-11 13:57:00,
2013-05-11 09:58:00,63.0,59.7,29.71,SSW,199,5.0,13.0,89,0.00,,OVC060,0.10,VWS V14.00,2013-05-11 13:58:00,
2013-05-11 09:59:00,63.0,60.0,29.71,South,184,4.0,13.0,90,0.00,,OVC060,0.10,VWS V14.00,2013-05-11 13:59:00,
2013-05-11 10:00:00,63.0,59.7,29.71,SSW,201,12.0,13.0,89,0.00,,OVC060,0.10,VWS V14.00,2013-05-11 14:00:00,
2013-05-11 10:01:00,63.0,59.7,29.71,SSW,209,9.0,11.0,89,0.00,,OVC060,0.10,VWS V14.00,2013-05-11 14:01:00,
2013-05-11 10:02:00,63.1,59.8,29.71,SSW,207,3.0,11.0,89,0.00,,OVC060,0.10,VWS V14.00,2013-05-11 14:02:00,
2013-05-11 10:03:00,63.1,59.8,29.71,South,191,3.0,11.0,89,0.00,,OVC060,0.10,VWS V14.00,2013-05-11 14:03:00,
2013-05-11 10:04:00,63.1,59.8,29.71,SSW,211,8.0,11.0,89,0.00,,OVC060,0.10,VWS V14.00,2013-05-11 14:04:00,
2013-05-11 10:05:00,63.1,59.8,29.71,SSW,194,7.0,11.0,89,0.00,,OVC060,0.10,VWS V14.00,2013-05-11 14:05:00,
2013-05-11 10:06:00,63.1,59.8,29.71,SSW,202,4.0,11.0,89,0.00,,OVC060,0.10,VWS V14.00,2013-05-11 14:06:00,
2013-05-11 10:07:00,63.1,59.8,29.71,South,184,2.0,11.0,89,0.00,,OVC060,0.10,VWS V14.00,2013-05-11 14:07:00,
2013-05-11 10:08:00,63.2,59.9,29.71,SSW,194,6.0,11.0,89,0.00,,OVC060,0.10,VWS V14.00,2013-05-11 14:08:00,
2013-05-11 10:09:00,63.2,59.9,29.71,SSW,200,7.0,11.0,89,0.00,,OVC060,0.10,VWS V14.00,2013-05-11 14:09:00,
2013-05-11 10:10:00,63.2,59.9,29.71,SSW,202,12.0,12.0,89,0.00,,OVC060,0.10,VWS V14.00,2013-05-11 14:10:00,
2013-05-11 10:11:00,63.2,59.9,29.70,SSW,196,10.0,12.0,89,0.00,,OVC060,0.10,VWS V14.00,2013-05-11 14:11:00,
2013-05-11 10:12:00,63.2,59.9,29.70,SSW,204,4.0,12.0,89,0.00,,OVC060,0.10,VWS V14.00,2013-05-11 14:12:00,
2013-05-11 10:13:00,63.2,59.9,29.70,South,188,5.0,12.0,89,0.00,,OVC060,0.10,VWS V14.00,2013-05-11 14:13:00,
2013-05-11 10:14:00,63.3,60.0,29.70,South,190,3.0,12.0,89,0.00,,OVC060,0.10,VWS V14.00,2013-05-11 14:14:00,
2013-05-11 10:15:00,63.3,60.0,29.70,SSW,192,2.0,12.0,89,0.00,,OVC060,0.10,VWS V14.00,2013-05-11 14:15:00,
2013-05-11 10:16:00,63.3,60.0,29.70,South,173,5.0,12.0,89,0.00,,OVC060,0.10,VWS V14.00,2013-05-11 14:16:00,
2013-05-11 10:17:00,63.4,59.8,29.70,South,184,3.0,12.0,88,0.00,,OVC060,0.10,VWS V14.00,2013-05-11 14:17:00,
2013-05-11 10:18:00,63.4,59.8,29.70,SSW,195,6.0,12.0,88,0.00,,OVC060,0.10,VWS V14.00,2013-05-11 14:18:00,
2013-05-11 10:19:00,63.4,59.8,29.70,SSW,198,4.0,12.0,88,0.00,,OVC060,0.10,VWS V14.00,2013-05-11 14:19:00,
2013-05-11 10:20:00,63.4,59.8,29.70,SSW,202,12.0,12.0,88,0.00,,OVC060,0.10,VWS V14.00,2013-05-11 14:20:00,
2013-05-11 10:21:00,63.4,59.8,29.70,SSW,196,6.0,12.0,88,0.00,,OVC060,0.10,VWS V14.00,2013-05-11 14:21:00,
2013-05-11 10:22:00,63.4,59.8,29.70,South,184,6.0,12.0,88,0.00,,OVC060,0.10,VWS V14.00,2013-05-11 14:22:00,
2013-05-11 10:23:00,63.4,59.8,29.70,SSW,202,10.0,12.0,88,0.00,,OVC060,0.10,VWS V14.00,2013-05-11 14:23:00,
2013-05-11 10:24:00,63.5,59.9,29.70,SSW,203,7.0,12.0,88,0.00,,OVC060,0.10,VWS V14.00,2013-05-11 14:24:00,
2013-05-11 10:25:00,63.5,59.9,29.70,South,172,4.0,12.0,88,0.00,,OVC060,0.10,VWS V14.00,2013-05-11 14:25:00,
2013-05-11 10:26:00,63.5,59.9,29.70,SSW,207,5.0,12.0,88,0.00,,OVC060,0.10,VWS V14.00,2013-05-11 14:26:00,
2013-05-11 10:27:00,63.5,59.9,29.70,SSW,210,2.0,12.0,88,0.00,,OVC060,0.10,VWS V14.00,2013-05-11 14:27:00,
2013-05-11 10:28:00,63.5,59.9,29.70,SSW,202,8.0,12.0,88,0.00,,OVC060,0.10,VWS V14.00,2013-05-11 14:28:00,
2013-05-11 10:29:00,63.4,59.8,29.70,SSW,192,2.0,12.0,88,0.00,,OVC060,0.10,VWS V14.00,2013-05-11 14:29:00,
2013-05-11 10:30:00,63.5,59.9,29.70,South,173,7.0,12.0,88,0.00,,OVC060,0.10,VWS V14.00,2013-05-11 14:30:00,
2013-05-11 10:31:00,63.5,59.9,29.70,South,171,5.0,16.0,88,0.00,,OVC060,0.10,VWS V14.00,2013-05-11 14:31:00,
2013-05-11 10:32:00,63.5,59.9,29.70,SSW,206,7.0,16.0,88,0.00,,OVC060,0.10,VWS V14.00,2013-05-11 14:32:00,
2013-05-11 10:33:00,63.5,59.9,29.70,South,186,0.0,16.0,88,0.00,,OVC060,0.10,VWS V14.00,2013-05-11 14:33:00,
2013-05-11 10:34:00,63.5,59.9,29.70,SSW,195,3.0,16.0,88,0.00,,OVC060,0.10,VWS V14.00,2013-05-11 14:34:00,
2013-05-11 10:35:00,63.6,60.0,29.70,South,184,5.0,16.0,88,0.00,,OVC060,0.10,VWS V14.00,2013-05-11 14:35:00,
2013-05-11 10:36:00,63.6,60.0,29.70,SSW,209,7.0,16.0,88,0.00,,OVC060,0.10,VWS V14.00,2013-05-11 14:36:00,
2013-05-11 10:37:00,63.6,60.0,29.70,South,186,5.0,16.0,88,0.00,,OVC060,0.10,VWS V14.00,2013-05-11 14:37:00,
2013-05-11 10:38:00,63.6,60.0,29.70,SSW,204,5.0,16.0,88,0.00,,OVC060,0.10,VWS V14.00,2013-05-11 14:38:00,
2013-05-11 10:39:00,63.6,60.0,29.70,SSW,202,3.0,16.0,88,0.00,,OVC060,0.10,VWS V14.00,2013-05-11 14:39:00,
2013-05-11 10:40:00,63.5,59.9,29.70,SSW,198,2.0,16.0,88,0.00,,OVC060,0.10,VWS V14.00,2013-05-11 14:40:00,
2013-05-11 10:41:00,63.6,60.0,29.70,SSW,206,4.0,5.0,88,0.00,,OVC060,0.10,VWS V14.00,2013-05-11 14:41:00,
2013-05-11 10:42:00,63.6,60.0,29.70,SSW,211,4.0,5.0,88,0.00,,OVC060,0.10,VWS V14.00,2013-05-11 14:42:00,
2013-05-11 10:43:00,63.6,60.0,29.70,SSW,196,4.0,9.0,88,0.00,,OVC060,0.10,VWS V14.00,2013-05-11 14:43:00,
2013-05-11 10:44:00,63.7,60.1,29.70,SSW,213,3.0,9.0,88,0.00,,OVC060,0.10,VWS V14.00,2013-05-11 14:44:00,
2013-05-11 10:45:00,63.7,60.1,29.70,SSW,201,1.0,9.0,88,0.00,,OVC060,0.10,VWS V14.00,2013-05-11 14:45:00,
2013-05-11 10:46:00,63.7,60.1,29.70,South,190,2.0,9.0,88,0.00,,OVC060,0.10,VWS V14.00,2013-05-11 14:46:00,
2013-05-11 10:47:00,63.7,60.1,29.70,SSW,209,2.0,9.0,88,0.00,,OVC060,0.10,VWS V14.00,2013-05-11 14:47:00,
2013-05-11 10:48:00,63.7,60.1,29.70,SSW,207,4.0,9.0,88,0.00,,OVC060,0.10,VWS V14.00,2013-05-11 14:48:00,
2013-05-11 10:49:00,63.7,59.8,29.69,East,92,2.0,12.0,87,0.00,,OVC060,0.10,VWS V14.00,2013-05-11 14:49:00,
2013-05-11 10:50:00,63.8,59.9,29.69,SSW,207,1.0,12.0,87,0.00,,OVC075,0.10,VWS V14.00,2013-05-11 14:50:00,
2013-05-11 10:51:00,63.8,59.9,29.69,ENE,78,0.0,5.0,87,0.00,,OVC075,0.10,VWS V14.00,2013-05-11 14:51:00,
2013-05-11 10:52:00,63.8,59.9,29.69,SSW,202,1.0,5.0,87,0.00,,OVC075,0.10,VWS V14.00,2013-05-11 14:52:00,
2013-05-11 10:53:00,63.8,59.9,29.69,South,179,1.0,6.0,87,0.00,,OVC075,0.10,VWS V14.00,2013-05-11 14:53:00,
2013-05-11 10:54:00,63.8,59.9,29.69,SE,146,0.0,6.0,87,0.00,,OVC075,0.10,VWS V14.00,2013-05-11 14:54:00,
2013-05-11 10:55:00,63.8,59.9,29.69,South,187,1.0,6.0,87,0.00,,OVC075,0.10,VWS V14.00,2013-05-11 14:55:00,
2013-05-11 10:56:00,63.8,59.9,29.69,SSW,202,3.0,6.0,87,0.00,,OVC075,0.10,VWS V14.00,2013-05-11 14:56:00,
2013-05-11 10:57:00,63.9,60.0,29.70,South,190,5.0,10.0,87,0.00,,OVC075,0.10,VWS V14.00,2013-05-11 14:57:00,
2013-05-11 10:58:00,63.9,60.0,29.69,SSW,200,3.0,10.0,87,0.00,,OVC075,0.10,VWS V14.00,2013-05-11 14:58:00,
2013-05-11 10:59:00,63.9,60.0,29.70,SSW,192,4.0,10.0,87,0.00,,OVC075,0.10,VWS V14.00,2013-05-11 14:59:00,
2013-05-11 11:00:00,63.8,59.9,29.70,SSW,204,5.0,10.0,87,0.00,,OVC075,0.10,VWS V14.00,2013-05-11 15:00:00,
2013-05-11 11:01:00,63.8,59.9,29.69,South,184,0.0,6.0,87,0.00,,OVC075,0.10,VWS V14.00,2013-05-11 15:01:00,
2013-05-11 11:02:00,63.8,59.9,29.69,SSW,202,6.0,9.0,87,0.00,,OVC075,0.10,VWS V14.00,2013-05-11 15:02:00,
2013-05-11 11:03:00,63.9,60.0,29.70,SSW,198,7.0,10.0,87,0.00,,OVC075,0.10,VWS V14.00,2013-05-11 15:03:00,
2013-05-11 11:04:00,63.8,60.2,29.69,SSW,199,3.0,10.0,88,0.00,,OVC075,0.10,VWS V14.00,2013-05-11 15:04:00,
2013-05-11 11:05:00,63.8,60.2,29.69,SSW,200,3.0,10.0,88,0.00,,OVC075,0.10,VWS V14.00,2013-05-11 15:05:00,
2013-05-11 11:06:00,63.8,60.2,29.70,South,191,1.0,10.0,88,0.00,,OVC075,0.10,VWS V14.00,2013-05-11 15:06:00,
2013-05-11 11:07:00,63.8,60.2,29.69,SSW,204,7.0,10.0,88,0.00,,OVC075,0.10,VWS V14.00,2013-05-11 15:07:00,
2013-05-11 11:08:00,63.8,60.2,29.70,SSW,198,3.0,10.0,88,0.00,,OVC075,0.10,VWS V14.00,2013-05-11 15:08:00,
2013-05-11 11:09:00,63.8,60.2,29.70,SSW,197,7.0,12.0,88,0.00,,OVC075,0.10,VWS V14.00,2013-05-11 15:09:00,
2013-05-11 11:10:00,63.7,60.1,29.69,SSW,202,8.0,12.0,88,0.00,,OVC075,0.10,VWS V14.00,2013-05-11 15:10:00,
2013-05-11 11:11:00,63.8,60.2,29.69,SSW,201,1.0,11.0,88,0.00,,OVC075,0.10,VWS V14.00,2013-05-11 15:11:00,
2013-05-11 11:12:00,63.8,60.2,29.69,SSW,209,0.0,11.0,88,0.00,,OVC075,0.10,VWS V14.00,2013-05-11 15:12:00,
2013-05-11 11:13:00,63.8,60.2,29.70,SSW,196,4.0,11.0,88,0.00,,OVC075,0.10,VWS V14.00,2013-05-11 15:13:00,
2013-05-11 11:14:00,63.8,60.2,29.70,South,186,9.0,13.0,88,0.00,,OVC075,0.10,VWS V14.00,2013-05-11 15:14:00,
2013-05-11 11:15:00,63.7,60.1,29.70,SSW,203,8.0,13.0,88,0.00,,OVC075,0.10,VWS V14.00,2013-05-11 15:15:00,
2013-05-11 11:16:00,63.7,59.8,29.69,SSW,195,6.0,13.0,87,0.00,,OVC075,0.10,VWS V14.00,2013-05-11 15:16:00,
2013-05-11 11:17:00,63.7,60.1,29.69,SSW,207,2.0,13.0,88,0.00,,OVC075,0.10,VWS V14.00,2013-05-11 15:17:00,
2013-05-11 11:18:00,63.6,60.0,29.69,SSW,195,4.0,13.0,88,0.00,,OVC075,0.10,VWS V14.00,2013-05-11 15:18:00,
2013-05-11 11:19:00,63.6,60.0,29.69,South,188,3.0,13.0,88,0.00,,OVC075,0.10,VWS V14.00,2013-05-11 15:19:00,
2013-05-11 11:20:00,63.6,60.0,29.70,South,172,3.0,13.0,88,0.00,,OVC075,0.10,VWS V14.00,2013-05-11 15:20:00,
2013-05-11 11:21:00,63.6,60.0,29.70,SSW,198,2.0,5.0,88,0.00,,OVC075,0.10,VWS V14.00,2013-05-11 15:21:00,
2013-05-11 11:22:00,63.6,60.0,29.69,SSW,195,4.0,10.0,88,0.00,,OVC075,0.10,VWS V14.00,2013-05-11 15:22:00,
2013-05-11 11:23:00,63.6,60.0,29.69,South,184,4.0,10.0,88,0.00,,OVC075,0.10,VWS V14.00,2013-05-11 15:23:00,
2013-05-11 11:24:00,63.6,60.0,29.69,SSW,198,0.0,10.0,88,0.00,,OVC075,0.10,VWS V14.00,2013-05-11 15:24:00,
2013-05-11 11:25:00,63.6,60.0,29.69,SSW,203,6.0,10.0,88,0.00,,OVC075,0.10,VWS V14.00,2013-05-11 15:25:00,
2013-05-11 11:26:00,63.6,60.0,29.69,South,180,4.0,10.0,88,0.00,,OVC075,0.10,VWS V14.00,2013-05-11 15:26:00,
2013-05-11 11:27:00,63.7,60.1,29.69,SSW,203,7.0,10.0,88,0.00,,OVC075,0.10,VWS V14.00,2013-05-11 15:27:00,
2013-05-11 11:28:00,63.7,60.1,29.69,SSW,205,3.0,10.0,88,0.00,,OVC075,0.10,VWS V14.00,2013-05-11 15:28:00,
2013-05-11 11:29:00,63.8,60.2,29.69,SSW,205,7.0,10.0,88,0.00,,OVC075,0.10,VWS V14.00,2013-05-11 15:29:00,
2013-05-11 11:30:00,63.9,60.3,29.69,SSW,200,5.0,10.0,88,0.00,,OVC075,0.10,VWS V14.00,2013-05-11 15:30:00,
2013-05-11 11:31:00,63.9,60.3,29.69,SSW,192,4.0,7.0,88,0.00,,OVC075,0.10,VWS V14.00,2013-05-11 15:31:00,
2013-05-11 11:32:00,63.9,60.0,29.69,SSW,200,6.0,7.0,87,0.00,,OVC075,0.10,VWS V14.00,2013-05-11 15:32:00,
2013-05-11 11:33:00,64.0,60.1,29.69,SSW,196,5.0,12.0,87,0.00,,OVC075,0.10,VWS V14.00,2013-05-11 15:33:00,
2013-05-11 11:34:00,64.1,60.5,29.69,South,188,3.0,12.0,88,0.00,,OVC075,0.10,VWS V14.00,2013-05-11 15:34:00,
2013-05-11 11:35:00,64.1,60.2,29.69,SSW,202,7.0,12.0,87,0.00,,OVC075,0.10,VWS V14.00,2013-05-11 15:35:00,
2013-05-11 11:36:00,64.2,60.3,29.69,SSW,205,12.0,12.0,87,0.00,,OVC075,0.10,VWS V14.00,2013-05-11 15:36:00,
2013-05-11 11:37:00,64.2,60.3,29.69,South,190,7.0,12.0,87,0.00,,OVC075,0.10,VWS V14.00,2013-05-11 15:37:00,
2013-05-11 11:38:00,64.3,60.3,29.69,SSW,200,8.0,12.0,87,0.00,,OVC075,0.10,VWS V14.00,2013-05-11 15:38:00,
2013-05-11 11:39:00,64.4,60.5,29.69,SSW,200,5.0,12.0,87,0.00,,OVC075,0.10,VWS V14.00,2013-05-11 15:39:00,
2013-05-11 11:40:00,64.4,60.5,29.69,SSW,202,8.0,12.0,87,0.00,,OVC075,0.10,VWS V14.00,2013-05-11 15:40:00,
2013-05-11 11:41:00,64.5,60.5,29.69,SSW,203,3.0,7.0,87,0.00,,OVC075,0.10,VWS V14.00,2013-05-11 15:41:00,
2013-05-11 11:42:00,64.5,60.5,29.69,South,184,3.0,7.0,87,0.00,,OVC075,0.10,VWS V14.00,2013-05-11 15:42:00,
2013-05-11 11:43:00,64.6,60.7,29.69,South,190,9.0,10.0,87,0.00,,OVC075,0.10,VWS V14.00,2013-05-11 15:43:00,
2013-05-11 11:44:00,64.7,60.8,29.68,South,190,2.0,10.0,87,0.00,,OVC075,0.10,VWS V14.00,2013-05-11 15:44:00,
2013-05-11 11:45:00,64.7,60.4,29.69,SSW,192,4.0,10.0,86,0.00,,OVC075,0.10,VWS V14.00,2013-05-11 15:45:00,
2013-05-11 11:46:00,64.7,60.4,29.69,SW,215,3.0,10.0,86,0.00,,OVC075,0.10,VWS V14.00,2013-05-11 15:46:00,
2013-05-11 11:47:00,64.8,60.5,29.69,South,178,3.0,11.0,86,0.00,,OVC075,0.10,VWS V14.00,2013-05-11 15:47:00,
2013-05-11 11:48:00,64.8,60.5,29.68,SSW,195,14.0,14.0,86,0.00,,OVC075,0.10,VWS V14.00,2013-05-11 15:48:00,
2013-05-11 11:49:00,64.9,60.6,29.68,South,183,7.0,17.0,86,0.00,,OVC075,0.10,VWS V14.00,2013-05-11 15:49:00,
2013-05-11 11:50:00,64.9,60.6,29.68,South,179,5.0,17.0,86,0.00,,OVC050,0.10,VWS V14.00,2013-05-11 15:50:00,
2013-05-11 11:51:00,65.0,60.7,29.68,South,191,9.0,12.0,86,0.00,,OVC050,0.10,VWS V14.00,2013-05-11 15:51:00,
2013-05-11 11:52:00,65.0,60.4,29.68,SSW,192,9.0,18.0,85,0.00,,OVC050,0.10,VWS V14.00,2013-05-11 15:52:00,
2013-05-11 11:53:00,65.1,60.8,29.68,SE,144,4.0,18.0,86,0.00,,OVC050,0.10,VWS V14.00,2013-05-11 15:53:00,
2013-05-11 11:54:00,65.1,60.5,29.68,SSE,160,1.0,18.0,85,0.00,,OVC050,0.10,VWS V14.00,2013-05-11 15:54:00,
2013-05-11 11:55:00,65.2,60.6,29.68,SSE,155,11.0,18.0,85,0.00,,OVC050,0.10,VWS V14.00,2013-05-11 15:55:00,
2013-05-11 11:56:00,65.3,60.7,29.68,SSE,159,6.0,18.0,85,0.00,,OVC050,0.10,VWS V14.00,2013-05-11 15:56:00,
2013-05-11 11:57:00,65.3,60.7,29.68,South,179,9.0,18.0,85,0.00,,OVC050,0.10,VWS V14.00,2013-05-11 15:57:00,
2013-05-11 11:58:00,65.2,60.2,29.68,South,187,14.0,19.0,84,0.00,,OVC050,0.10,VWS V14.00,2013-05-11 15:58:00,
2013-05-11 11:59:00,65.2,60.6,29.68,SSW,206,25.0,25.0,85,0.00,,OVC050,0.10,VWS V14.00,2013-05-11 15:59:00,
2013-05-11 12:00:00,65.2,60.2,29.68,SSW,209,19.0,25.0,84,0.00,,OVC050,0.10,VWS V14.00,2013-05-11 16:00:00,
2013-05-11 12:01:00,65.2,60.6,29.68,SSW,205,5.0,20.0,85,0.00,,OVC050,0.10,VWS V14.00,2013-05-11 16:01:00,
2013-05-11 12:02:00,65.2,60.6,29.68,SSW,194,13.0,20.0,85,0.00,,OVC050,0.10,VWS V14.00,2013-05-11 16:02:00,
2013-05-11 12:03:00,65.2,60.9,29.68,SSW,207,21.0,21.0,86,0.00,,OVC050,0.10,VWS V14.00,2013-05-11 16:03:00,
2013-05-11 12:04:00,65.1,60.5,29.68,SSW,207,22.0,24.0,85,0.00,,OVC050,0.10,VWS V14.00,2013-05-11 16:04:00,
2013-05-11 12:05:00,65.0,60.4,29.68,SSW,209,20.0,24.0,85,0.00,,OVC050,0.10,VWS V14.00,2013-05-11 16:05:00,
2013-05-11 12:06:00,65.0,60.4,29.68,SSW,202,20.0,24.0,85,0.00,,OVC050,0.10,VWS V14.00,2013-05-11 16:06:00,
2013-05-11 12:07:00,65.0,60.4,29.68,SSW,200,20.0,24.0,85,0.00,,OVC050,0.10,VWS V14.00,2013-05-11 16:07:00,
2013-05-11 12:08:00,64.9,60.6,29.68,SSW,204,19.0,24.0,86,0.00,,OVC050,0.10,VWS V14.00,2013-05-11 16:08:00,
2013-05-11 12:09:00,64.8,60.5,29.68,SSW,206,19.0,24.0,86,0.00,,OVC050,0.10,VWS V14.00,2013-05-11 16:09:00,
2013-05-11 12:10:00,64.7,60.4,29.68,South,191,14.0,24.0,86,0.00,,OVC050,0.10,VWS V14.00,2013-05-11 16:10:00,
2013-05-11 12:11:00,64.7,60.4,29.68,SSW,197,16.0,22.0,86,0.00,,OVC050,0.10,VWS V14.00,2013-05-11 16:11:00,
2013-05-11 12:12:00,64.6,60.3,29.68,SSW,200,13.0,22.0,86,0.00,,OVC050,0.10,VWS V14.00,2013-05-11 16:12:00,
2013-05-11 12:13:00,64.6,60.3,29.68,South,184,14.0,22.0,86,0.00,,OVC050,0.10,VWS V14.00,2013-05-11 16:13:00,
2013-05-11 12:14:00,64.5,60.5,29.68,South,187,9.0,22.0,87,0.00,,OVC050,0.10,VWS V14.00,2013-05-11 16:14:00,
2013-05-11 12:15:00,64.5,60.5,29.68,South,179,0.0,22.0,87,0.00,,OVC050,0.10,VWS V14.00,2013-05-11 16:15:00,
2013-05-11 12:16:00,64.4,60.8,29.68,South,188,3.0,22.0,88,0.00,,OVC050,0.10,VWS V14.00,2013-05-11 16:16:00,
2013-05-11 12:17:00,64.4,60.8,29.68,SSW,192,4.0,22.0,88,0.00,,OVC050,0.10,VWS V14.00,2013-05-11 16:17:00,
2013-05-11 12:18:00,64.4,60.8,29.68,South,186,0.0,22.0,88,0.00,,OVC050,0.10,VWS V14.00,2013-05-11 16:18:00,
2013-05-11 12:19:00,64.3,60.7,29.68,South,184,3.0,22.0,88,0.00,,OVC050,0.10,VWS V14.00,2013-05-11 16:19:00,
2013-05-11 12:20:00,64.3,60.7,29.68,South,182,5.0,22.0,88,0.00,,OVC050,0.10,VWS V14.00,2013-05-11 16:20:00,
2013-05-11 12:21:00,64.2,60.6,29.68,SE,129,1.0,10.0,88,0.00,,OVC050,0.10,VWS V14.00,2013-05-11 16:21:00,
2013-05-11 12:22:00,64.1,60.5,29.68,SSW,192,4.0,10.0,88,0.00,,OVC050,0.10,VWS V14.00,2013-05-11 16:22:00,
2013-05-11 12:23:00,64.1,60.5,29.68,SSW,198,5.0,10.0,88,0.00,,OVC050,0.10,VWS V14.00,2013-05-11 16:23:00,
2013-05-11 12:24:00,64.0,60.7,29.68,SSW,195,11.0,12.0,89,0.00,,OVC050,0.10,VWS V14.00,2013-05-11 16:24:00,
2013-05-11 12:25:00,64.0,60.7,29.68,South,183,2.0,13.0,89,0.00,,OVC050,0.10,VWS V14.00,2013-05-11 16:25:00,
2013-05-11 12:26:00,64.0,60.7,29.68,SSW,203,13.0,13.0,89,0.00,,OVC050,0.10,VWS V14.00,2013-05-11 16:26:00,
2013-05-11 12:27:00,64.0,60.7,29.68,SSW,202,9.0,13.0,89,0.00,,OVC050,0.10,VWS V14.00,2013-05-11 16:27:00,
2013-05-11 12:28:00,64.0,61.0,29.68,South,189,11.0,13.0,90,0.00,,OVC050,0.10,VWS V14.00,2013-05-11 16:28:00,
2013-05-11 12:29:00,63.9,60.9,29.68,South,189,10.0,13.0,90,0.00,,OVC050,0.10,VWS V14.00,2013-05-11 16:29:00,
2013-05-11 12:30:00,63.9,60.9,29.68,South,181,13.0,16.0,90,0.00,,OVC050,0.10,VWS V14.00,2013-05-11 16:30:00,
2013-05-11 12:31:00,63.9,60.9,29.68,SSE,167,5.0,15.0,90,0.00,,OVC050,0.10,VWS V14.00,2013-05-11 16:31:00,
2013-05-11 12:32:00,63.9,60.9,29.68,SSW,209,8.0,16.0,90,0.00,,OVC050,0.10,VWS V14.00,2013-05-11 16:32:00,
2013-05-11 12:33:00,63.9,60.9,29.68,South,189,5.0,16.0,90,0.00,,OVC050,0.10,VWS V14.00,2013-05-11 16:33:00,
2013-05-11 12:34:00,63.9,60.9,29.68,South,191,2.0,16.0,90,0.00,,OVC050,0.10,VWS V14.00,2013-05-11 16:34:00,
2013-05-11 12:35:00,63.9,60.9,29.68,South,175,3.0,16.0,90,0.00,,OVC050,0.10,VWS V14.00,2013-05-11 16:35:00,
2013-05-11 12:36:00,64.0,61.0,29.68,South,188,4.0,16.0,90,0.00,,OVC050,0.10,VWS V14.00,2013-05-11 16:36:00,
2013-05-11 12:37:00,64.0,61.0,29.68,South,171,5.0,16.0,90,0.00,,OVC050,0.10,VWS V14.00,2013-05-11 16:37:00,
2013-05-11 12:38:00,63.9,60.9,29.68,SSW,194,11.0,16.0,90,0.00,,OVC050,0.10,VWS V14.00,2013-05-11 16:38:00,
2013-05-11 12:39:00,63.9,60.9,29.68,South,186,6.0,16.0,90,0.00,,OVC050,0.10,VWS V14.00,2013-05-11 16:39:00,
2013-05-11 12:40:00,63.8,60.8,29.68,South,182,7.0,16.0,90,0.00,,OVC050,0.10,VWS V14.00,2013-05-11 16:40:00,
2013-05-11 12:41:00,63.8,60.8,29.68,SSW,200,11.0,11.0,90,0.00,,OVC050,0.10,VWS V14.00,2013-05-11 16:41:00,
2013-05-11 12:42:00,63.8,60.8,29.68,SSW,209,11.0,13.0,90,0.00,,OVC050,0.10,VWS V14.00,2013-05-11 16:42:00,
2013-05-11 12:43:00,63.8,60.8,29.68,SSW,203,16.0,17.0,90,0.00,,OVC050,0.10,VWS V14.00,2013-05-11 16:43:00,
2013-05-11 12:44:00,63.8,60.8,29.68,SSW,200,12.0,17.0,90,0.00,,OVC050,0.10,VWS V14.00,2013-05-11 16:44:00,
2013-05-11 12:45:00,63.8,60.8,29.68,SSW,203,12.0,17.0,90,0.00,,OVC050,0.10,VWS V14.00,2013-05-11 16:45:00,
2013-05-11 12:46:00,63.7,60.7,29.68,SSW,205,11.0,17.0,90,0.00,,OVC050,0.10,VWS V14.00,2013-05-11 16:46:00,
2013-05-11 12:47:00,63.7,60.7,29.68,SSW,199,8.0,17.0,90,0.00,,OVC050,0.10,VWS V14.00,2013-05-11 16:47:00,
2013-05-11 12:48:00,63.7,60.7,29.68,SSW,213,10.0,17.0,90,0.00,,OVC050,0.10,VWS V14.00,2013-05-11 16:48:00,
2013-05-11 12:49:00,63.7,61.0,29.68,SSW,199,10.0,17.0,91,0.00,,OVC044,0.10,VWS V14.00,2013-05-11 16:49:00,
2013-05-11 12:50:00,63.8,61.1,29.68,South,190,7.0,17.0,91,0.00,,OVC044,0.10,VWS V14.00,2013-05-11 16:50:00,
2013-05-11 12:51:00,63.8,61.1,29.68,SSW,194,9.0,10.0,91,0.00,,OVC044,0.10,VWS V14.00,2013-05-11 16:51:00,
2013-05-11 12:52:00,63.8,61.1,29.68,SSW,207,9.0,11.0,91,0.00,,OVC044,0.10,VWS V14.00,2013-05-11 16:52:00,
2013-05-11 12:53:00,63.8,61.1,29.68,SSW,205,9.0,11.0,91,0.00,,OVC044,0.10,VWS V14.00,2013-05-11 16:53:00,
2013-05-11 12:54:00,63.9,61.2,29.68,SSW,202,15.0,15.0,91,0.00,,OVC044,0.10,VWS V14.00,2013-05-11 16:54:00,
2013-05-11 12:55:00,63.9,61.2,29.68,SSW,195,11.0,15.0,91,0.00,,OVC044,0.10,VWS V14.00,2013-05-11 16:55:00,
2013-05-11 12:56:00,63.9,61.2,29.68,SSW,195,6.0,15.0,91,0.00,,OVC044,0.10,VWS V14.00,2013-05-11 16:56:00,
2013-05-11 12:57:00,63.9,60.9,29.68,SSW,207,14.0,15.0,90,0.00,,OVC044,0.10,VWS V14.00,2013-05-11 16:57:00,
2013-05-11 12:58:00,63.9,60.9,29.68,South,184,11.0,15.0,90,0.00,,OVC044,0.10,VWS V14.00,2013-05-11 16:58:00,
2013-05-11 12:59:00,64.0,61.0,29.68,SSW,202,14.0,17.0,90,0.00,,OVC044,0.10,VWS V14.00,2013-05-11 16:59:00,
2013-05-11 13:00:00,64.0,61.0,29.68,South,191,9.0,17.0,90,0.00,,OVC044,0.10,VWS V14.00,2013-05-11 17:00:00,
2013-05-11 13:01:00,64.0,61.0,29.68,SSW,202,13.0,13.0,90,0.00,,OVC044,0.10,VWS V14.00,2013-05-11 17:01:00,
2013-05-11 13:02:00,64.0,61.0,29.68,SSW,213,12.0,14.0,90,0.00,,OVC044,0.10,VWS V14.00,2013-05-11 17:02:00,
2013-05-11 13:03:00,64.1,61.7,29.68,SSW,197,6.0,14.0,92,0.00,,OVC044,0.10,VWS V14.00,2013-05-11 17:03:00,
2013-05-11 13:04:00,64.1,61.1,29.68,SSW,203,13.0,14.0,90,0.00,,OVC044,0.10,VWS V14.00,2013-05-11 17:04:00,
2013-05-11 13:05:00,64.2,61.2,29.68,SSW,200,5.0,14.0,90,0.00,,OVC044,0.10,VWS V14.00,2013-05-11 17:05:00,
2013-05-11 13:06:00,64.3,61.3,29.68,SSW,198,9.0,14.0,90,0.00,,OVC044,0.10,VWS V14.00,2013-05-11 17:06:00,
2013-05-11 13:07:00,64.3,61.3,29.68,South,179,3.0,14.0,90,0.00,,OVC044,0.10,VWS V14.00,2013-05-11 17:07:00,
2013-05-11 13:08:00,64.4,61.4,29.68,SSW,200,4.0,14.0,90,0.00,,OVC044,0.10,VWS V14.00,2013-05-11 17:08:00,
2013-05-11 13:09:00,64.4,61.4,29.68,SSW,202,7.0,14.0,90,0.00,,OVC044,0.10,VWS V14.00,2013-05-11 17:09:00,
2013-05-11 13:10:00,64.4,61.4,29.68,SSW,198,5.0,14.0,90,0.00,,OVC044,0.10,VWS V14.00,2013-05-11 17:10:00,
2013-05-11 13:11:00,64.5,61.5,29.68,SSW,194,6.0,6.0,90,0.00,,OVC044,0.10,VWS V14.00,2013-05-11 17:11:00,
2013-05-11 13:12:00,64.5,61.5,29.68,SSW,200,6.0,10.0,90,0.00,,OVC044,0.10,VWS V14.00,2013-05-11 17:12:00,
2013-05-11 13:13:00,64.5,61.2,29.68,South,182,2.0,10.0,89,0.00,,OVC044,0.10,VWS V14.00,2013-05-11 17:13:00,
2013-05-11 13:14:00,64.6,61.3,29.68,SW,215,7.0,10.0,89,0.00,,OVC044,0.10,VWS V14.00,2013-05-11 17:14:00,
2013-05-11 13:15:00,64.6,61.3,29.68,SW,214,9.0,12.0,89,0.00,,OVC044,0.10,VWS V14.00,2013-05-11 17:15:00,
2013-05-11 13:16:00,64.6,61.3,29.68,SSW,210,8.0,12.0,89,0.00,,OVC044,0.10,VWS V14.00,2013-05-11 17:16:00,
2013-05-11 13:17:00,64.7,61.4,29.68,SSW,202,10.0,12.0,89,0.00,,OVC044,0.10,VWS V14.00,2013-05-11 17:17:00,
2013-05-11 13:18:00,64.8,61.5,29.68,SSW,194,9.0,12.0,89,0.00,,OVC044,0.10,VWS V14.00,2013-05-11 17:18:00,
2013-05-11 13:19:00,64.8,61.2,29.67,SSW,196,4.0,12.0,88,0.00,,OVC044,0.10,VWS V14.00,2013-05-11 17:19:00,
2013-05-11 13:20:00,64.9,61.3,29.68,SSW,199,11.0,12.0,88,0.00,,OVC044,0.10,VWS V14.00,2013-05-11 17:20:00,
2013-05-11 13:21:00,65.0,61.4,29.68,SSW,205,6.0,11.0,88,0.00,,OVC044,0.10,VWS V14.00,2013-05-11 17:21:00,
2013-05-11 13:22:00,65.1,61.5,29.67,SSW,202,6.0,11.0,88,0.00,,OVC044,0.10,VWS V14.00,2013-05-11 17:22:00,
2013-05-11 13:23:00,65.1,61.5,29.67,SSW,205,7.0,11.0,88,0.00,,OVC044,0.10,VWS V14.00,2013-05-11 17:23:00,
2013-05-11 13:24:00,65.2,61.6,29.67,South,187,3.0,11.0,88,0.00,,OVC044,0.10,VWS V14.00,2013-05-11 17:24:00,
2013-05-11 13:25:00,65.3,61.7,29.67,South,181,7.0,11.0,88,0.00,,OVC044,0.10,VWS V14.00,2013-05-11 17:25:00,
2013-05-11 13:26:00,65.4,61.4,29.67,SSW,206,5.0,11.0,87,0.00,,OVC044,0.10,VWS V14.00,2013-05-11 17:26:00,
2013-05-11 13:27:00,65.5,61.5,29.67,South,187,6.0,11.0,87,0.00,,OVC044,0.10,VWS V14.00,2013-05-11 17:27:00,
2013-05-11 13:28:00,65.7,61.4,29.67,SSW,202,5.0,11.0,86,0.00,,OVC044,0.10,VWS V14.00,2013-05-11 17:28:00,
2013-05-11 13:29:00,65.8,61.5,29.67,South,188,10.0,11.0,86,0.00,,OVC044,0.10,VWS V14.00,2013-05-11 17:29:00,
2013-05-11 13:30:00,65.8,61.2,29.67,South,176,3.0,11.0,85,0.00,,OVC044,0.10,VWS V14.00,2013-05-11 17:30:00,
2013-05-11 13:31:00,65.8,61.2,29.67,SW,219,9.0,9.0,85,0.00,,OVC044,0.10,VWS V14.00,2013-05-11 17:31:00,
2013-05-11 13:32:00,65.8,61.2,29.67,South,186,7.0,12.0,85,0.00,,OVC044,0.10,VWS V14.00,2013-05-11 17:32:00,
2013-05-11 13:33:00,65.8,61.2,29.67,SSW,199,6.0,12.0,85,0.00,,OVC044,0.10,VWS V14.00,2013-05-11 17:33:00,
2013-05-11 13:34:00,65.8,61.2,29.67,South,185,3.0,12.0,85,0.00,,OVC044,0.10,VWS V14.00,2013-05-11 17:34:00,
2013-05-11 13:35:00,65.9,61.3,29.67,South,170,5.0,12.0,85,0.00,,OVC044,0.10,VWS V14.00,2013-05-11 17:35:00,
2013-05-11 13:36:00,65.9,61.3,29.67,SSW,198,0.0,12.0,85,0.00,,OVC044,0.10,VWS V14.00,2013-05-11 17:36:00,
2013-05-11 13:37:00,66.0,61.4,29.67,South,186,4.0,12.0,85,0.00,,OVC044,0.10,VWS V14.00,2013-05-11 17:37:00,
2013-05-11 13:38:00,66.0,61.4,29.67,SSW,206,7.0,12.0,85,0.00,,OVC044,0.10,VWS V14.00,2013-05-11 17:38:00,
2013-05-11 13:39:00,66.1,61.5,29.67,SSW,202,6.0,12.0,85,0.00,,OVC044,0.10,VWS V14.00,2013-05-11 17:39:00,
2013-05-11 13:40:00,66.1,61.5,29.67,SSW,202,1.0,12.0,85,0.00,,OVC044,0.10,VWS V14.00,2013-05-11 17:40:00,
2013-05-11 13:41:00,66.1,61.1,29.67,SSW,195,3.0,5.0,84,0.00,,OVC044,0.10,VWS V14.00,2013-05-11 17:41:00,
2013-05-11 13:42:00,66.1,61.5,29.67,SSW,198,9.0,9.0,85,0.00,,OVC044,0.10,VWS V14.00,2013-05-11 17:42:00,
2013-05-11 13:43:00,66.1,61.5,29.67,SSW,205,11.0,11.0,85,0.00,,OVC044,0.10,VWS V14.00,2013-05-11 17:43:00,
2013-05-11 13:44:00,66.2,61.6,29.67,SSW,207,9.0,11.0,85,0.00,,OVC044,0.10,VWS V14.00,2013-05-11 17:44:00,
2013-05-11 13:45:00,66.1,61.5,29.67,SSW,202,10.0,13.0,85,0.00,,OVC044,0.10,VWS V14.00,2013-05-11 17:45:00,
2013-05-11 13:46:00,66.2,61.6,29.67,South,186,5.0,13.0,85,0.00,,OVC044,0.10,VWS V14.00,2013-05-11 17:46:00,
2013-05-11 13:47:00,66.1,61.5,29.67,SSW,194,9.0,13.0,85,0.00,,OVC044,0.10,VWS V14.00,2013-05-11 17:47:00,
2013-05-11 13:48:00,66.1,61.5,29.66,South,188,0.0,13.0,85,0.00,,OVC044,0.10,VWS V14.00,2013-05-11 17:48:00,
2013-05-11 13:49:00,66.2,61.6,29.66,SSW,199,4.0,13.0,85,0.00,,OVC080,0.10,VWS V14.00,2013-05-11 17:49:00,
2013-05-11 13:50:00,66.2,61.6,29.66,South,172,3.0,13.0,85,0.00,,OVC080,0.10,VWS V14.00,2013-05-11 17:50:00,
2013-05-11 13:51:00,66.2,61.6,29.66,South,188,2.0,8.0,85,0.00,,OVC080,0.10,VWS V14.00,2013-05-11 17:51:00,
2013-05-11 13:52:00,66.3,61.7,29.66,SSW,205,9.0,9.0,85,0.00,,OVC080,0.10,VWS V14.00,2013-05-11 17:52:00,
2013-05-11 13:53:00,66.3,61.7,29.66,SSW,196,12.0,13.0,85,0.00,,OVC080,0.10,VWS V14.00,2013-05-11 17:53:00,
2013-05-11 13:54:00,66.3,61.3,29.66,SSW,198,12.0,13.0,84,0.00,,OVC080,0.10,VWS V14.00,2013-05-11 17:54:00,
2013-05-11 13:55:00,66.3,61.3,29.66,SSW,202,7.0,13.0,84,0.00,,OVC080,0.10,VWS V14.00,2013-05-11 17:55:00,
2013-05-11 13:56:00,66.4,61.4,29.66,SSW,198,13.0,13.0,84,0.00,,OVC080,0.10,VWS V14.00,2013-05-11 17:56:00,
2013-05-11 13:57:00,66.4,61.4,29.66,SSW,198,18.0,19.0,84,0.00,,OVC080,0.10,VWS V14.00,2013-05-11 17:57:00,
2013-05-11 13:58:00,66.5,61.2,29.66,SSW,196,11.0,19.0,83,0.00,,OVC080,0.10,VWS V14.00,2013-05-11 17:58:00,
2013-05-11 13:59:00,66.5,61.2,29.66,SSW,199,14.0,19.0,83,0.00,,OVC080,0.10,VWS V14.00,2013-05-11 17:59:00,
2013-05-11 14:00:00,66.6,61.3,29.66,SSW,196,13.0,19.0,83,0.00,,OVC080,0.10,VWS V14.00,2013-05-11 18:00:00,
2013-05-11 14:01:00,66.6,61.6,29.66,SSW,209,13.0,16.0,84,0.00,,OVC080,0.10,VWS V14.00,2013-05-11 18:01:00,
2013-05-11 14:02:00,66.7,61.7,29.66,SW,218,11.0,16.0,84,0.00,,OVC080,0.10,VWS V14.00,2013-05-11 18:02:00,
2013-05-11 14:03:00,66.6,61.6,29.66,SSW,210,9.0,16.0,84,0.00,,OVC080,0.10,VWS V14.00,2013-05-11 18:03:00,
2013-05-11 14:04:00,66.6,61.6,29.66,SW,219,11.0,16.0,84,0.00,,OVC080,0.10,VWS V14.00,2013-05-11 18:04:00,
2013-05-11 14:05:00,66.6,61.3,29.66,SSW,203,11.0,16.0,83,0.00,,OVC080,0.10,VWS V14.00,2013-05-11 18:05:00,
2013-05-11 14:06:00,66.7,61.4,29.66,SSW,206,13.0,16.0,83,0.00,,OVC080,0.10,VWS V14.00,2013-05-11 18:06:00,
2013-05-11 14:07:00,66.7,61.4,29.66,SSW,202,11.0,16.0,83,0.00,,OVC080,0.10,VWS V14.00,2013-05-11 18:07:00,
2013-05-11 14:08:00,66.7,61.4,29.66,SSW,192,11.0,16.0,83,0.00,,OVC080,0.10,VWS V14.00,2013-05-11 18:08:00,
2013-05-11 14:09:00,66.7,61.7,29.66,SSW,192,1.0,16.0,84,0.00,,OVC080,0.10,VWS V14.00,2013-05-11 18:09:00,
2013-05-11 14:10:00,66.7,61.7,29.66,SSW,196,6.0,16.0,84,0.00,,OVC080,0.10,VWS V14.00,2013-05-11 18:10:00,
2013-05-11 14:11:00,66.6,61.6,29.66,South,190,0.0,6.0,84,0.00,,OVC080,0.10,VWS V14.00,2013-05-11 18:11:00,
2013-05-11 14:12:00,66.5,61.9,29.66,SSE,150,3.0,6.0,85,0.00,,OVC080,0.10,VWS V14.00,2013-05-11 18:12:00,
2013-05-11 14:13:00,66.4,61.8,29.66,SSW,192,0.0,6.0,85,0.00,,OVC080,0.11,VWS V14.00,2013-05-11 18:13:00,
2013-05-11 14:14:00,66.3,62.0,29.66,SSW,200,7.0,8.0,86,0.00,,OVC080,0.11,VWS V14.00,2013-05-11 18:14:00,
2013-05-11 14:15:00,66.1,61.8,29.66,South,176,2.0,8.0,86,0.00,,OVC080,0.11,VWS V14.00,2013-05-11 18:15:00,
2013-05-11 14:16:00,65.9,61.6,29.66,SSW,200,18.0,18.0,86,0.00,,OVC080,0.11,VWS V14.00,2013-05-11 18:16:00,
2013-05-11 14:17:00,65.8,61.8,29.66,SSW,209,14.0,18.0,87,0.00,,OVC080,0.11,VWS V14.00,2013-05-11 18:17:00,
2013-05-11 14:18:00,65.6,61.6,29.66,SSW,198,8.0,18.0,87,0.00,,OVC080,0.11,VWS V14.00,2013-05-11 18:18:00,
2013-05-11 14:19:00,65.3,61.3,29.66,SSW,205,11.0,18.0,87,0.11,,OVC080,0.12,VWS V14.00,2013-05-11 18:19:00,
2013-05-11 14:20:00,65.2,61.6,29.66,South,187,13.0,18.0,88,0.50,,OVC080,0.13,VWS V14.00,2013-05-11 18:20:00,
2013-05-11 14:21:00,65.0,61.4,29.67,South,173,3.0,13.0,88,0.45,,OVC080,0.14,VWS V14.00,2013-05-11 18:21:00,
2013-05-11 14:22:00,64.8,61.5,29.66,SSW,200,5.0,13.0,89,0.54,,OVC080,0.15,VWS V14.00,2013-05-11 18:22:00,
2013-05-11 14:23:00,64.7,61.7,29.66,SSW,192,3.0,13.0,90,0.57,,OVC080,0.16,VWS V14.00,2013-05-11 18:23:00,
2013-05-11 14:24:00,64.5,61.5,29.66,South,186,2.0,13.0,90,0.61,,OVC080,0.17,VWS V14.00,2013-05-11 18:24:00,
2013-05-11 14:25:00,64.4,61.4,29.66,South,186,0.0,13.0,90,0.61,,OVC080,0.18,VWS V14.00,2013-05-11 18:25:00,
2013-05-11 14:26:00,64.4,61.7,29.66,SSW,192,0.0,13.0,91,0.77,,OVC080,0.19,VWS V14.00,2013-05-11 18:26:00,
2013-05-11 14:27:00,64.3,61.6,29.66,SSE,148,4.0,13.0,91,0.54,,OVC080,0.20,VWS V14.00,2013-05-11 18:27:00,
2013-05-11 14:28:00,64.1,61.4,29.65,SSE,148,0.0,13.0,91,0.39,,OVC080,0.20,VWS V14.00,2013-05-11 18:28:00,
2013-05-11 14:29:00,64.1,61.4,29.65,SSE,148,0.0,13.0,91,0.23,,OVC080,0.20,VWS V14.00,2013-05-11 18:29:00,
2013-05-11 14:30:00,64.0,61.3,29.66,South,173,2.0,13.0,91,0.23,,OVC080,0.21,VWS V14.00,2013-05-11 18:30:00,
2013-05-11 14:31:00,63.9,61.5,29.66,SSW,206,11.0,11.0,92,0.23,,OVC080,0.21,VWS V14.00,2013-05-11 18:31:00,
2013-05-11 14:32:00,63.8,61.4,29.67,South,186,10.0,12.0,92,0.24,,OVC080,0.22,VWS V14.00,2013-05-11 18:32:00,
2013-05-11 14:33:00,63.9,61.5,29.67,SSW,205,12.0,15.0,92,0.49,,OVC080,0.22,VWS V14.00,2013-05-11 18:33:00,
2013-05-11 14:34:00,63.9,61.8,29.67,SSW,206,14.0,15.0,93,0.47,,OVC080,0.23,VWS V14.00,2013-05-11 18:34:00,
2013-05-11 14:35:00,64.0,61.9,29.67,SSW,207,11.0,15.0,93,0.27,,OVC080,0.23,VWS V14.00,2013-05-11 18:35:00,
2013-05-11 14:36:00,63.9,61.8,29.66,SSW,209,12.0,15.0,93,0.24,,OVC080,0.24,VWS V14.00,2013-05-11 18:36:00,
2013-05-11 14:37:00,63.9,61.8,29.66,SSW,197,6.0,15.0,93,0.43,,OVC080,0.25,VWS V14.00,2013-05-11 18:37:00,
2013-05-11 14:38:00,63.8,61.7,29.66,SSW,209,12.0,15.0,93,0.43,,OVC080,0.25,VWS V14.00,2013-05-11 18:38:00,
2013-05-11 14:39:00,63.7,61.6,29.66,South,175,0.0,15.0,93,0.43,,OVC080,0.25,VWS V14.00,2013-05-11 18:39:00,
2013-05-11 14:40:00,63.6,61.5,29.66,SSW,202,9.0,15.0,93,0.18,,OVC080,0.25,VWS V14.00,2013-05-11 18:40:00,
2013-05-11 14:41:00,63.6,61.5,29.66,SSW,203,10.0,10.0,93,0.14,,OVC080,0.25,VWS V14.00,2013-05-11 18:41:00,
2013-05-11 14:42:00,63.6,61.5,29.66,SSW,205,10.0,10.0,93,0.11,,OVC080,0.25,VWS V14.00,2013-05-11 18:42:00,
2013-05-11 14:43:00,63.5,61.4,29.66,SSW,203,7.0,10.0,93,0.11,,OVC080,0.26,VWS V14.00,2013-05-11 18:43:00,
2013-05-11 14:44:00,63.4,61.3,29.66,SSW,200,8.0,10.0,93,0.11,,OVC080,0.26,VWS V14.00,2013-05-11 18:44:00,
2013-05-11 14:45:00,63.2,60.8,29.66,SSW,195,5.0,10.0,92,0.11,,OVC080,0.26,VWS V14.00,2013-05-11 18:45:00,
2013-05-11 14:46:00,63.1,60.7,29.66,SSW,211,7.0,12.0,92,0.11,,OVC080,0.26,VWS V14.00,2013-05-11 18:46:00,
2013-05-11 14:47:00,63.1,60.7,29.66,SSW,194,2.0,12.0,92,0.11,,OVC080,0.26,VWS V14.00,2013-05-11 18:47:00,
2013-05-11 14:48:00,63.1,60.7,29.66,South,188,0.0,12.0,92,0.10,,OVC080,0.26,VWS V14.00,2013-05-11 18:48:00,
2013-05-11 14:49:00,63.1,60.7,29.66,SSW,195,0.0,12.0,92,0.08,,OVC080,0.26,VWS V14.00,2013-05-11 18:49:00,
2013-05-11 14:50:00,63.1,60.7,29.66,SSW,194,0.0,12.0,92,0.07,,BKN070,0.26,VWS V14.00,2013-05-11 18:50:00,
2013-05-11 14:51:00,63.1,60.7,29.66,SSW,209,2.0,5.0,92,0.07,,BKN070,0.26,VWS V14.00,2013-05-11 18:51:00,
2013-05-11 14:52:00,63.1,60.7,29.66,SSW,210,0.0,5.0,92,0.06,,BKN070,0.26,VWS V14.00,2013-05-11 18:52:00,
2013-05-11 14:53:00,63.1,60.7,29.66,SSW,212,7.0,7.0,92,0.05,,BKN070,0.26,VWS V14.00,2013-05-11 18:53:00,
2013-05-11 14:54:00,63.0,60.6,29.66,SSW,211,5.0,7.0,92,0.05,,BKN070,0.26,VWS V14.00,2013-05-11 18:54:00,
2013-05-11 14:55:00,63.1,60.4,29.66,SW,215,4.0,7.0,91,0.05,,BKN070,0.26,VWS V14.00,2013-05-11 18:55:00,
2013-05-11 14:56:00,63.1,60.4,29.66,SW,216,5.0,7.0,91,0.05,,BKN070,0.26,VWS V14.00,2013-05-11 18:56:00,
2013-05-11 14:57:00,63.1,60.1,29.66,SW,214,5.0,7.0,90,0.04,,BKN070,0.26,VWS V14.00,2013-05-11 18:57:00,
2013-05-11 14:58:00,63.1,60.1,29.66,SSW,211,4.0,7.0,90,0.04,,BKN070,0.26,VWS V14.00,2013-05-11 18:58:00,
2013-05-11 14:59:00,63.2,60.2,29.66,SSW,209,5.0,7.0,90,0.04,,BKN070,0.26,VWS V14.00,2013-05-11 18:59:00,
2013-05-11 15:00:00,63.2,60.2,29.66,SSW,213,3.0,7.0,90,0.04,,BKN070,0.26,VWS V14.00,2013-05-11 19:00:00,
2013-05-11 15:01:00,63.2,60.2,29.66,SSW,209,5.0,5.0,90,0.00,,BKN070,0.26,VWS V14.00,2013-05-11 19:01:00,
2013-05-11 15:02:00,63.2,60.2,29.66,SW,232,5.0,6.0,90,0.00,,BKN070,0.26,VWS V14.00,2013-05-11 19:02:00,
2013-05-11 15:03:00,63.3,60.3,29.66,SW,221,6.0,10.0,90,0.00,,BKN070,0.26,VWS V14.00,2013-05-11 19:03:00,
2013-05-11 15:04:00,63.4,60.4,29.66,SW,217,7.0,10.0,90,0.00,,BKN070,0.26,VWS V14.00,2013-05-11 19:04:00,
2013-05-11 15:05:00,63.4,60.4,29.66,SW,223,6.0,10.0,90,0.00,,BKN070,0.26,VWS V14.00,2013-05-11 19:05:00,
2013-05-11 15:06:00,63.5,60.2,29.66,SW,232,10.0,10.0,89,0.00,,BKN070,0.26,VWS V14.00,2013-05-11 19:06:00,
2013-05-11 15:07:00,63.6,60.3,29.66,SW,234,6.0,10.0,89,0.00,,BKN070,0.26,VWS V14.00,2013-05-11 19:07:00,
2013-05-11 15:08:00,63.6,60.3,29.66,SW,235,9.0,10.0,89,0.00,,BKN070,0.26,VWS V14.00,2013-05-11 19:08:00,
2013-05-11 15:09:00,63.7,60.4,29.66,SW,219,7.0,11.0,89,0.00,,BKN070,0.26,VWS V14.00,2013-05-11 19:09:00,
2013-05-11 15:10:00,63.8,60.5,29.66,SSW,210,6.0,11.0,89,0.00,,BKN070,0.26,VWS V14.00,2013-05-11 19:10:00,
2013-05-11 15:11:00,63.8,60.5,29.66,SW,219,5.0,6.0,89,0.00,,BKN070,0.26,VWS V14.00,2013-05-11 19:11:00,
2013-05-11 15:12:00,63.8,60.5,29.66,SSW,211,4.0,6.0,89,0.00,,BKN070,0.26,VWS V14.00,2013-05-11 19:12:00,
2013-05-11 15:13:00,63.8,60.8,29.66,SSW,213,3.0,6.0,90,0.00,,BKN070,0.26,VWS V14.00,2013-05-11 19:13:00,
2013-05-11 15:14:00,63.8,60.8,29.66,SW,214,4.0,6.0,90,0.00,,BKN070,0.26,VWS V14.00,2013-05-11 19:14:00,
2013-05-11 15:15:00,63.8,60.8,29.66,SW,221,9.0,9.0,90,0.00,,BKN070,0.26,VWS V14.00,2013-05-11 19:15:00,
2013-05-11 15:16:00,63.7,60.7,29.66,SW,215,7.0,9.0,90,0.00,,BKN070,0.26,VWS V14.00,2013-05-11 19:16:00,
2013-05-11 15:17:00,63.7,60.7,29.66,SW,228,5.0,9.0,90,0.00,,BKN070,0.26,VWS V14.00,2013-05-11 19:17:00,
2013-05-11 15:18:00,63.7,60.7,29.66,SSW,200,9.0,9.0,90,0.00,,BKN070,0.26,VWS V14.00,2013-05-11 19:18:00,
2013-05-11 15:19:00,63.7,60.7,29.66,SSW,204,5.0,9.0,90,0.00,,BKN070,0.26,VWS V14.00,2013-05-11 19:19:00,
2013-05-11 15:20:00,63.8,60.8,29.66,SSW,197,0.0,9.0,90,0.00,,BKN070,0.26,VWS V14.00,2013-05-11 19:20:00,
2013-05-11 15:21:00,63.8,60.8,29.66,SE,130,0.0,1.0,90,0.00,,BKN070,0.26,VWS V14.00,2013-05-11 19:21:00,
2013-05-11 15:22:00,63.9,61.2,29.66,SE,131,0.0,1.0,91,0.00,,BKN070,0.26,VWS V14.00,2013-05-11 19:22:00,
2013-05-11 15:23:00,64.0,61.3,29.66,SE,131,0.0,1.0,91,0.00,,BKN070,0.26,VWS V14.00,2013-05-11 19:23:00,
2013-05-11 15:24:00,64.1,61.4,29.66,SE,140,0.0,1.0,91,0.00,,BKN070,0.26,VWS V14.00,2013-05-11 19:24:00,
2013-05-11 15:25:00,64.2,61.5,29.66,SE,141,0.0,1.0,91,0.00,,BKN070,0.26,VWS V14.00,2013-05-11 19:25:00,
2013-05-11 15:26:00,64.3,61.9,29.66,East,88,2.0,2.0,92,0.00,,BKN070,0.26,VWS V14.00,2013-05-11 19:26:00,
2013-05-11 15:27:00,64.4,62.0,29.66,ESE,111,0.0,2.0,92,0.00,,BKN070,0.26,VWS V14.00,2013-05-11 19:27:00,
2013-05-11 15:28:00,64.4,62.0,29.66,SSW,196,3.0,4.0,92,0.00,,BKN070,0.26,VWS V14.00,2013-05-11 19:28:00,
2013-05-11 15:29:00,64.3,61.6,29.66,SSE,147,1.0,4.0,91,0.00,,BKN070,0.26,VWS V14.00,2013-05-11 19:29:00,
2013-05-11 15:30:00,64.3,61.6,29.66,SSE,147,1.0,4.0,91,0.00,,BKN070,0.26,VWS V14.00,2013-05-11 19:30:00,
2013-05-11 15:31:00,64.3,61.6,29.66,SE,146,0.0,1.0,91,0.00,,BKN070,0.26,VWS V14.00,2013-05-11 19:31:00,
2013-05-11 15:32:00,64.4,61.7,29.66,SSE,147,0.0,1.0,91,0.00,,BKN070,0.26,VWS V14.00,2013-05-11 19:32:00,
2013-05-11 15:33:00,64.4,62.0,29.66,SE,146,0.0,1.0,92,0.00,,BKN070,0.26,VWS V14.00,2013-05-11 19:33:00,
2013-05-11 15:34:00,64.5,62.1,29.66,SSE,147,0.0,1.0,92,0.00,,BKN070,0.26,VWS V14.00,2013-05-11 19:34:00,
2013-05-11 15:35:00,64.6,62.2,29.66,SE,146,0.0,1.0,92,0.00,,BKN070,0.26,VWS V14.00,2013-05-11 19:35:00,
2013-05-11 15:36:00,64.7,62.3,29.65,SSE,165,0.0,1.0,92,0.00,,BKN070,0.26,VWS V14.00,2013-05-11 19:36:00,
2013-05-11 15:37:00,64.8,62.4,29.65,SSW,202,0.0,1.0,92,0.00,,BKN070,0.26,VWS V14.00,2013-05-11 19:37:00,
2013-05-11 15:38:00,64.8,62.1,29.66,SSW,213,0.0,3.0,91,0.00,,BKN070,0.26,VWS V14.00,2013-05-11 19:38:00,
2013-05-11 15:39:00,64.8,62.1,29.65,SSW,213,0.0,3.0,91,0.00,,BKN070,0.26,VWS V14.00,2013-05-11 19:39:00,
2013-05-11 15:40:00,65.0,62.3,29.65,SSW,213,0.0,3.0,91,0.00,,BKN070,0.26,VWS V14.00,2013-05-11 19:40:00,
2013-05-11 15:41:00,65.1,62.7,29.65,SSW,213,3.0,3.0,92,0.00,,BKN070,0.26,VWS V14.00,2013-05-11 19:41:00,
2013-05-11 15:42:00,65.0,62.3,29.65,SSW,207,2.0,5.0,91,0.00,,BKN070,0.26,VWS V14.00,2013-05-11 19:42:00,
2013-05-11 15:43:00,64.9,62.2,29.65,SSW,207,3.0,5.0,91,0.00,,BKN070,0.26,VWS V14.00,2013-05-11 19:43:00,
2013-05-11 15:44:00,64.8,62.1,29.66,South,191,4.0,5.0,91,0.00,,BKN070,0.26,VWS V14.00,2013-05-11 19:44:00,
2013-05-11 15:45:00,64.7,61.7,29.66,SSW,203,0.0,5.0,90,0.00,,BKN070,0.26,VWS V14.00,2013-05-11 19:45:00,
2013-05-11 15:46:00,64.6,61.9,29.66,SSW,205,4.0,5.0,91,0.00,,BKN070,0.26,VWS V14.00,2013-05-11 19:46:00,
2013-05-11 15:47:00,64.5,61.8,29.66,SSW,203,4.0,5.0,91,0.00,,BKN070,0.26,VWS V14.00,2013-05-11 19:47:00,
2013-05-11 15:48:00,64.5,61.5,29.66,SSW,203,7.0,9.0,90,0.00,,BKN070,0.26,VWS V14.00,2013-05-11 19:48:00,
2013-05-11 15:49:00,64.5,61.5,29.66,SSW,200,6.0,10.0,90,0.00,,BKN070,0.26,VWS V14.00,2013-05-11 19:49:00,
2013-05-11 15:50:00,64.5,61.5,29.66,SSW,200,9.0,10.0,90,0.00,,OVC110,0.26,VWS V14.00,2013-05-11 19:50:00,
2013-05-11 15:51:00,64.5,61.5,29.66,SSW,202,9.0,10.0,90,0.00,,OVC110,0.26,VWS V14.00,2013-05-11 19:51:00,
2013-05-11 15:52:00,64.5,61.5,29.66,SSW,202,9.0,11.0,90,0.00,,OVC110,0.26,VWS V14.00,2013-05-11 19:52:00,
2013-05-11 15:53:00,64.5,61.5,29.66,SSW,204,7.0,11.0,90,0.00,,OVC110,0.26,VWS V14.00,2013-05-11 19:53:00,
2013-05-11 15:54:00,64.5,61.5,29.66,SSW,203,8.0,11.0,90,0.00,,OVC110,0.26,VWS V14.00,2013-05-11 19:54:00,
2013-05-11 15:55:00,64.6,61.6,29.66,SSW,198,5.0,11.0,90,0.00,,OVC110,0.26,VWS V14.00,2013-05-11 19:55:00,
2013-05-11 15:56:00,64.6,61.6,29.66,SSW,209,9.0,11.0,90,0.00,,OVC110,0.26,VWS V14.00,2013-05-11 19:56:00,
2013-05-11 15:57:00,64.7,61.7,29.65,SSW,203,9.0,11.0,90,0.00,,OVC110,0.26,VWS V14.00,2013-05-11 19:57:00,
2013-05-11 15:58:00,64.7,61.7,29.66,SSW,206,12.0,13.0,90,0.00,,OVC110,0.26,VWS V14.00,2013-05-11 19:58:00,
2013-05-11 15:59:00,64.8,61.8,29.66,SSW,203,10.0,13.0,90,0.00,,OVC110,0.26,VWS V14.00,2013-05-11 19:59:00,
2013-05-11 16:00:00,64.9,61.9,29.66,SSW,211,10.0,13.0,90,0.00,,OVC110,0.26,VWS V14.00,2013-05-11 20:00:00,
2013-05-11 16:01:00,64.9,61.9,29.66,SSW,198,6.0,11.0,90,0.00,,OVC110,0.26,VWS V14.00,2013-05-11 20:01:00,
2013-05-11 16:02:00,65.0,62.0,29.66,SSW,213,10.0,11.0,90,0.00,,OVC110,0.26,VWS V14.00,2013-05-11 20:02:00,
2013-05-11 16:03:00,65.1,62.1,29.66,SSW,204,12.0,13.0,90,0.00,,OVC110,0.26,VWS V14.00,2013-05-11 20:03:00,
2013-05-11 16:04:00,65.2,62.2,29.66,SSW,194,9.0,13.0,90,0.00,,OVC110,0.26,VWS V14.00,2013-05-11 20:04:00,
2013-05-11 16:05:00,65.3,62.0,29.65,SW,214,12.0,13.0,89,0.00,,OVC110,0.26,VWS V14.00,2013-05-11 20:05:00,
2013-05-11 16:06:00,65.4,62.1,29.66,SSW,206,10.0,13.0,89,0.00,,OVC110,0.26,VWS V14.00,2013-05-11 20:06:00,
2013-05-11 16:07:00,65.4,62.1,29.65,SSW,192,6.0,13.0,89,0.00,,OVC110,0.26,VWS V14.00,2013-05-11 20:07:00,
2013-05-11 16:08:00,65.4,62.1,29.65,SSW,201,10.0,13.0,89,0.00,,OVC110,0.26,VWS V14.00,2013-05-11 20:08:00,
2013-05-11 16:09:00,65.5,61.9,29.65,SSW,207,14.0,15.0,88,0.00,,OVC110,0.26,VWS V14.00,2013-05-11 20:09:00,
2013-05-11 16:10:00,65.5,61.5,29.65,SSW,195,9.0,15.0,87,0.00,,OVC110,0.26,VWS V14.00,2013-05-11 20:10:00,
2013-05-11 16:11:00,65.6,62.0,29.65,SSW,199,12.0,12.0,88,0.00,,OVC110,0.26,VWS V14.00,2013-05-11 20:11:00,
2013-05-11 16:12:00,65.6,62.0,29.65,SSW,201,10.0,13.0,88,0.00,,OVC110,0.26,VWS V14.00,2013-05-11 20:12:00,
2013-05-11 16:13:00,65.6,62.0,29.65,SSW,205,10.0,13.0,88,0.00,,OVC110,0.26,VWS V14.00,2013-05-11 20:13:00,
2013-05-11 16:14:00,65.7,62.0,29.65,SSW,207,12.0,13.0,88,0.00,,OVC110,0.26,VWS V14.00,2013-05-11 20:14:00,
2013-05-11 16:15:00,65.6,62.0,29.66,SW,218,10.0,13.0,88,0.00,,OVC110,0.26,VWS V14.00,2013-05-11 20:15:00,
2013-05-11 16:16:00,65.6,62.0,29.66,SSW,200,10.0,13.0,88,0.00,,OVC110,0.26,VWS V14.00,2013-05-11 20:16:00,
2013-05-11 16:17:00,65.6,62.0,29.65,SSW,202,11.0,13.0,88,0.00,,OVC110,0.26,VWS V14.00,2013-05-11 20:17:00,
2013-05-11 16:18:00,65.6,61.6,29.66,SW,214,12.0,13.0,87,0.00,,OVC110,0.26,VWS V14.00,2013-05-11 20:18:00,
2013-05-11 16:19:00,65.6,61.6,29.66,SSW,211,10.0,13.0,87,0.00,,OVC110,0.26,VWS V14.00,2013-05-11 20:19:00,
2013-05-11 16:20:00,65.7,61.7,29.66,SW,223,12.0,13.0,87,0.00,,OVC110,0.26,VWS V14.00,2013-05-11 20:20:00,
2013-05-11 16:21:00,65.7,61.7,29.66,SSW,206,12.0,14.0,87,0.00,,OVC110,0.26,VWS V14.00,2013-05-11 20:21:00,
2013-05-11 16:22:00,65.7,61.4,29.66,SSW,211,13.0,15.0,86,0.00,,OVC110,0.26,VWS V14.00,2013-05-11 20:22:00,
2013-05-11 16:23:00,65.8,61.5,29.66,SSW,207,11.0,15.0,86,0.00,,OVC110,0.26,VWS V14.00,2013-05-11 20:23:00,
2013-05-11 16:24:00,65.8,61.5,29.66,SW,219,11.0,15.0,86,0.00,,OVC110,0.26,VWS V14.00,2013-05-11 20:24:00,
2013-05-11 16:25:00,65.8,61.5,29.66,SW,219,11.0,15.0,86,0.00,,OVC110,0.26,VWS V14.00,2013-05-11 20:25:00,
2013-05-11 16:26:00,65.8,61.5,29.66,SSW,211,11.0,15.0,86,0.00,,OVC110,0.26,VWS V14.00,2013-05-11 20:26:00,
2013-05-11 16:27:00,65.8,61.5,29.66,South,188,9.0,15.0,86,0.00,,OVC110,0.26,VWS V14.00,2013-05-11 20:27:00,
2013-05-11 16:28:00,65.8,61.5,29.66,SSW,202,13.0,15.0,86,0.00,,OVC110,0.26,VWS V14.00,2013-05-11 20:28:00,
2013-05-11 16:29:00,65.8,61.5,29.66,SSW,211,11.0,15.0,86,0.00,,OVC110,0.26,VWS V14.00,2013-05-11 20:29:00,
2013-05-11 16:30:00,65.8,61.5,29.66,SSW,207,13.0,15.0,86,0.00,,OVC110,0.26,VWS V14.00,2013-05-11 20:30:00,
2013-05-11 16:31:00,65.8,61.2,29.66,SSW,196,12.0,14.0,85,0.00,,OVC110,0.26,VWS V14.00,2013-05-11 20:31:00,
2013-05-11 16:32:00,65.8,61.2,29.66,SSW,196,11.0,14.0,85,0.00,,OVC110,0.26,VWS V14.00,2013-05-11 20:32:00,
2013-05-11 16:33:00,65.8,61.5,29.66,SSW,200,11.0,14.0,86,0.00,,OVC110,0.26,VWS V14.00,2013-05-11 20:33:00,
2013-05-11 16:34:00,65.8,61.5,29.66,SSW,207,12.0,14.0,86,0.00,,OVC110,0.26,VWS V14.00,2013-05-11 20:34:00,
2013-05-11 16:35:00,65.8,61.2,29.66,SSW,199,10.0,14.0,85,0.00,,OVC110,0.26,VWS V14.00,2013-05-11 20:35:00,
2013-05-11 16:36:00,65.8,61.2,29.66,SSW,210,14.0,14.0,85,0.00,,OVC110,0.26,VWS V14.00,2013-05-11 20:36:00,
2013-05-11 16:37:00,65.8,61.5,29.66,SSW,202,13.0,14.0,86,0.00,,OVC110,0.26,VWS V14.00,2013-05-11 20:37:00,
2013-05-11 16:38:00,65.8,61.2,29.66,SSW,194,12.0,14.0,85,0.00,,OVC110,0.26,VWS V14.00,2013-05-11 20:38:00,
2013-05-11 16:39:00,65.8,61.5,29.66,SSW,202,13.0,14.0,86,0.00,,OVC110,0.26,VWS V14.00,2013-05-11 20:39:00,
2013-05-11 16:40:00,65.8,61.5,29.66,SSW,207,12.0,14.0,86,0.00,,OVC110,0.26,VWS V14.00,2013-05-11 20:40:00,
2013-05-11 16:41:00,65.8,61.2,29.66,SSW,201,13.0,16.0,85,0.00,,OVC110,0.26,VWS V14.00,2013-05-11 20:41:00,
2013-05-11 16:42:00,65.8,61.2,29.66,SSW,207,11.0,16.0,85,0.00,,OVC110,0.26,VWS V14.00,2013-05-11 20:42:00,
2013-05-11 16:43:00,65.8,61.2,29.66,SSW,200,11.0,16.0,85,0.00,,OVC110,0.26,VWS V14.00,2013-05-11 20:43:00,
2013-05-11 16:44:00,65.7,61.1,29.66,SSW,200,13.0,16.0,85,0.00,,OVC110,0.26,VWS V14.00,2013-05-11 20:44:00,
2013-05-11 16:45:00,65.7,61.1,29.66,SSW,205,10.0,16.0,85,0.00,,OVC110,0.26,VWS V14.00,2013-05-11 20:45:00,
2013-05-11 16:46:00,65.8,61.2,29.66,SSW,205,10.0,16.0,85,0.00,,OVC110,0.26,VWS V14.00,2013-05-11 20:46:00,
2013-05-11 16:47:00,65.8,61.2,29.66,SSW,210,12.0,16.0,85,0.00,,OVC110,0.26,VWS V14.00,2013-05-11 20:47:00,
2013-05-11 16:48:00,65.7,61.1,29.66,SSW,209,13.0,16.0,85,0.00,,OVC110,0.26,VWS V14.00,2013-05-11 20:48:00,
2013-05-11 16:49:00,65.7,61.1,29.66,SSW,205,10.0,16.0,85,0.00,,OVC110,0.26,VWS V14.00,2013-05-11 20:49:00,
2013-05-11 16:50:00,65.7,61.1,29.66,SSW,209,11.0,16.0,85,0.00,,OVC050,0.26,VWS V14.00,2013-05-11 20:50:00,
2013-05-11 16:51:00,65.7,61.1,29.66,SSW,200,8.0,11.0,85,0.00,,OVC050,0.26,VWS V14.00,2013-05-11 20:51:00,
2013-05-11 16:52:00,65.7,61.1,29.66,SSW,203,11.0,11.0,85,0.00,,OVC050,0.26,VWS V14.00,2013-05-11 20:52:00,
2013-05-11 16:53:00,65.6,61.3,29.66,SSW,205,11.0,12.0,86,0.00,,OVC050,0.26,VWS V14.00,2013-05-11 20:53:00,
2013-05-11 16:54:00,65.6,61.0,29.66,SSW,203,13.0,13.0,85,0.00,,OVC050,0.26,VWS V14.00,2013-05-11 20:54:00,
2013-05-11 16:55:00,65.6,61.3,29.66,SSW,208,12.0,13.0,86,0.00,,OVC050,0.26,VWS V14.00,2013-05-11 20:55:00,
2013-05-11 16:56:00,65.6,61.3,29.66,SSW,201,10.0,13.0,86,0.00,,OVC050,0.26,VWS V14.00,2013-05-11 20:56:00,
2013-05-11 16:57:00,65.6,61.3,29.65,SW,217,13.0,13.0,86,0.00,,OVC050,0.26,VWS V14.00,2013-05-11 20:57:00,
2013-05-11 16:58:00,65.6,61.3,29.66,SW,215,10.0,13.0,86,0.00,,OVC050,0.26,VWS V14.00,2013-05-11 20:58:00,
2013-05-11 16:59:00,65.6,61.3,29.65,SSW,210,7.0,13.0,86,0.00,,OVC050,0.26,VWS V14.00,2013-05-11 20:59:00,
2013-05-11 17:00:00,65.6,61.3,29.66,SSW,202,7.0,13.0,86,0.00,,OVC050,0.26,VWS V14.00,2013-05-11 21:00:00,
2013-05-11 17:01:00,65.5,61.2,29.66,SSW,198,6.0,9.0,86,0.00,,OVC050,0.26,VWS V14.00,2013-05-11 21:01:00,
2013-05-11 17:02:00,65.6,61.6,29.66,SSW,207,7.0,9.0,87,0.00,,OVC050,0.26,VWS V14.00,2013-05-11 21:02:00,
2013-05-11 17:03:00,65.5,61.5,29.65,SSW,206,4.0,9.0,87,0.00,,OVC050,0.26,VWS V14.00,2013-05-11 21:03:00,
2013-05-11 17:04:00,65.5,61.5,29.65,SSW,207,3.0,9.0,87,0.00,,OVC050,0.26,VWS V14.00,2013-05-11 21:04:00,
2013-05-11 17:05:00,65.5,61.5,29.66,SSW,208,4.0,9.0,87,0.00,,OVC050,0.26,VWS V14.00,2013-05-11 21:05:00,
2013-05-11 17:06:00,65.5,61.5,29.65,SSW,205,5.0,9.0,87,0.00,,OVC050,0.26,VWS V14.00,2013-05-11 21:06:00,
2013-05-11 17:07:00,65.5,61.5,29.65,SSW,209,4.0,9.0,87,0.00,,OVC050,0.26,VWS V14.00,2013-05-11 21:07:00,
2013-05-11 17:08:00,65.5,61.5,29.65,SSW,213,6.0,9.0,87,0.00,,OVC050,0.26,VWS V14.00,2013-05-11 21:08:00,
2013-05-11 17:09:00,65.4,61.4,29.65,SW,221,5.0,9.0,87,0.00,,OVC050,0.26,VWS V14.00,2013-05-11 21:09:00,
2013-05-11 17:10:00,65.4,61.4,29.65,SSW,201,5.0,9.0,87,0.00,,OVC050,0.26,VWS V14.00,2013-05-11 21:10:00,
2013-05-11 17:11:00,65.5,61.9,29.65,South,190,3.0,7.0,88,0.00,,OVC050,0.26,VWS V14.00,2013-05-11 21:11:00,
2013-05-11 17:12:00,65.4,61.8,29.65,SSW,202,6.0,7.0,88,0.00,,OVC050,0.26,VWS V14.00,2013-05-11 21:12:00,
2013-05-11 17:13:00,65.4,61.8,29.65,SW,219,4.0,7.0,88,0.00,,OVC050,0.26,VWS V14.00,2013-05-11 21:13:00,
2013-05-11 17:14:00,65.4,61.8,29.66,SSW,213,5.0,7.0,88,0.00,,OVC050,0.26,VWS V14.00,2013-05-11 21:14:00,
2013-05-11 17:15:00,65.4,61.4,29.66,SW,215,5.0,7.0,87,0.00,,OVC050,0.26,VWS V14.00,2013-05-11 21:15:00,
2013-05-11 17:16:00,65.4,61.8,29.66,SW,214,5.0,7.0,88,0.00,,OVC050,0.26,VWS V14.00,2013-05-11 21:16:00,
2013-05-11 17:17:00,65.4,61.4,29.66,SSW,207,5.0,7.0,87,0.00,,OVC050,0.26,VWS V14.00,2013-05-11 21:17:00,
2013-05-11 17:18:00,65.4,61.4,29.66,SSW,207,5.0,7.0,87,0.00,,OVC050,0.26,VWS V14.00,2013-05-11 21:18:00,
2013-05-11 17:19:00,65.4,61.4,29.66,SSW,205,6.0,7.0,87,0.00,,OVC050,0.26,VWS V14.00,2013-05-11 21:19:00,
2013-05-11 17:20:00,65.4,61.4,29.66,SSW,211,6.0,7.0,87,0.00,,OVC050,0.26,VWS V14.00,2013-05-11 21:20:00,
2013-05-11 17:21:00,65.4,61.4,29.66,SW,233,7.0,7.0,87,0.00,,OVC050,0.26,VWS V14.00,2013-05-11 21:21:00,
2013-05-11 17:22:00,65.4,61.4,29.66,SW,233,4.0,7.0,87,0.00,,OVC050,0.26,VWS V14.00,2013-05-11 21:22:00,
2013-05-11 17:23:00,65.4,61.4,29.66,SW,226,5.0,7.0,87,0.00,,OVC050,0.26,VWS V14.00,2013-05-11 21:23:00,
2013-05-11 17:24:00,65.4,61.4,29.66,SW,226,5.0,7.0,87,0.00,,OVC050,0.26,VWS V14.00,2013-05-11 21:24:00,
2013-05-11 17:25:00,65.4,61.4,29.66,SW,229,6.0,7.0,87,0.00,,OVC050,0.26,VWS V14.00,2013-05-11 21:25:00,
2013-05-11 17:26:00,65.4,61.4,29.66,West,263,4.0,7.0,87,0.00,,OVC050,0.26,VWS V14.00,2013-05-11 21:26:00,
2013-05-11 17:27:00,65.5,61.5,29.66,WSW,240,8.0,8.0,87,0.00,,OVC050,0.26,VWS V14.00,2013-05-11 21:27:00,
2013-05-11 17:28:00,65.4,61.4,29.66,WSW,244,8.0,11.0,87,0.00,,OVC050,0.26,VWS V14.00,2013-05-11 21:28:00,
2013-05-11 17:29:00,65.4,61.1,29.66,West,266,11.0,11.0,86,0.00,,OVC050,0.26,VWS V14.00,2013-05-11 21:29:00,
2013-05-11 17:30:00,65.4,60.8,29.66,West,260,9.0,12.0,85,0.00,,OVC050,0.26,VWS V14.00,2013-05-11 21:30:00,
2013-05-11 17:31:00,65.4,60.8,29.66,SW,232,6.0,10.0,85,0.00,,OVC050,0.26,VWS V14.00,2013-05-11 21:31:00,
2013-05-11 17:32:00,65.3,60.7,29.66,West,261,5.0,10.0,85,0.00,,OVC050,0.26,VWS V14.00,2013-05-11 21:32:00,
2013-05-11 17:33:00,65.4,61.1,29.66,West,268,7.0,10.0,86,0.00,,OVC050,0.26,VWS V14.00,2013-05-11 21:33:00,
2013-05-11 17:34:00,65.4,61.1,29.66,WSW,248,4.0,10.0,86,0.00,,OVC050,0.26,VWS V14.00,2013-05-11 21:34:00,
2013-05-11 17:35:00,65.3,60.7,29.66,WSW,250,4.0,10.0,85,0.00,,OVC050,0.26,VWS V14.00,2013-05-11 21:35:00,
2013-05-11 17:36:00,65.3,61.0,29.66,WSW,252,4.0,10.0,86,0.00,,OVC050,0.26,VWS V14.00,2013-05-11 21:36:00,
2013-05-11 17:37:00,65.2,60.6,29.66,WSW,246,10.0,10.0,85,0.00,,OVC050,0.26,VWS V14.00,2013-05-11 21:37:00,
2013-05-11 17:38:00,65.2,60.2,29.67,West,269,9.0,10.0,84,0.00,,OVC050,0.26,VWS V14.00,2013-05-11 21:38:00,
2013-05-11 17:39:00,65.1,60.2,29.67,West,281,5.0,10.0,84,0.00,,OVC050,0.26,VWS V14.00,2013-05-11 21:39:00,
2013-05-11 17:40:00,65.1,60.2,29.67,West,265,6.0,10.0,84,0.00,,OVC050,0.26,VWS V14.00,2013-05-11 21:40:00,
2013-05-11 17:41:00,65.1,60.2,29.67,West,267,7.0,10.0,84,0.00,,OVC050,0.26,VWS V14.00,2013-05-11 21:41:00,
2013-05-11 17:42:00,65.1,60.2,29.67,West,276,9.0,10.0,84,0.00,,OVC050,0.26,VWS V14.00,2013-05-11 21:42:00,
2013-05-11 17:43:00,65.0,59.7,29.67,West,275,6.0,10.0,83,0.00,,OVC050,0.26,VWS V14.00,2013-05-11 21:43:00,
2013-05-11 17:44:00,65.0,60.0,29.67,West,267,6.0,10.0,84,0.00,,OVC050,0.26,VWS V14.00,2013-05-11 21:44:00,
2013-05-11 17:45:00,65.0,60.0,29.67,West,274,10.0,10.0,84,0.00,,OVC050,0.26,VWS V14.00,2013-05-11 21:45:00,
2013-05-11 17:46:00,64.9,59.6,29.67,West,273,7.0,11.0,83,0.00,,OVC050,0.26,VWS V14.00,2013-05-11 21:46:00,
2013-05-11 17:47:00,64.8,59.2,29.67,West,267,10.0,13.0,82,0.00,,OVC050,0.26,VWS V14.00,2013-05-11 21:47:00,
2013-05-11 17:48:00,64.7,58.7,29.67,West,275,9.0,13.0,81,0.00,,OVC050,0.26,VWS V14.00,2013-05-11 21:48:00,
2013-05-11 17:49:00,64.7,58.7,29.67,West,271,9.0,13.0,81,0.00,,OVC050,0.26,VWS V14.00,2013-05-11 21:49:00,
2013-05-11 17:50:00,64.7,59.1,29.67,West,264,10.0,13.0,82,0.00,,OVC075,0.26,VWS V14.00,2013-05-11 21:50:00,
2013-05-11 17:51:00,64.6,59.0,29.67,WNW,286,7.0,10.0,82,0.00,,OVC075,0.26,VWS V14.00,2013-05-11 21:51:00,
2013-05-11 17:52:00,64.6,59.0,29.67,West,276,6.0,10.0,82,0.00,,OVC075,0.26,VWS V14.00,2013-05-11 21:52:00,
2013-05-11 17:53:00,64.5,58.9,29.67,West,269,6.0,10.0,82,0.00,,OVC075,0.26,VWS V14.00,2013-05-11 21:53:00,
2013-05-11 17:58:00,64.3,58.7,29.67,WSW,250,4.0,4.0,82,0.00,,OVC075,0.26,VWS V14.00,2013-05-11 21:58:00,
2013-05-11 17:59:00,64.3,58.7,29.67,SW,236,4.0,4.0,82,0.00,,OVC075,0.26,VWS V14.00,2013-05-11 21:59:00,
2013-05-11 18:00:00,64.3,58.3,29.67,WSW,238,5.0,7.0,81,0.00,,OVC075,0.26,VWS V14.00,2013-05-11 22:00:00,
2013-05-11 18:01:00,64.3,58.7,29.67,WSW,238,3.0,6.0,82,0.00,,OVC075,0.26,VWS V14.00,2013-05-11 22:01:00,
2013-05-11 18:02:00,64.3,58.7,29.67,WSW,252,3.0,6.0,82,0.00,,OVC075,0.26,VWS V14.00,2013-05-11 22:02:00,
2013-05-11 18:03:00,64.3,58.3,29.67,WSW,252,3.0,6.0,81,0.00,,OVC075,0.26,VWS V14.00,2013-05-11 22:03:00,
2013-05-11 18:04:00,64.3,58.3,29.67,WSW,257,2.0,6.0,81,0.00,,OVC075,0.26,VWS V14.00,2013-05-11 22:04:00,
2013-05-11 18:05:00,64.4,58.1,29.67,SW,221,6.0,9.0,80,0.00,,OVC075,0.26,VWS V14.00,2013-05-11 22:05:00,
2013-05-11 18:06:00,64.5,58.2,29.67,WSW,252,5.0,9.0,80,0.00,,OVC075,0.26,VWS V14.00,2013-05-11 22:06:00,
2013-05-11 18:07:00,64.5,58.2,29.67,SW,224,8.0,9.0,80,0.00,,OVC075,0.26,VWS V14.00,2013-05-11 22:07:00,
2013-05-11 18:08:00,64.6,58.0,29.67,SW,226,5.0,9.0,79,0.00,,OVC075,0.26,VWS V14.00,2013-05-11 22:08:00,
2013-05-11 18:09:00,64.6,57.2,29.67,SW,234,7.0,9.0,77,0.00,,OVC075,0.26,VWS V14.00,2013-05-11 22:09:00,
2013-05-11 18:10:00,64.7,57.7,29.67,SW,222,4.0,9.0,78,0.00,,OVC075,0.26,VWS V14.00,2013-05-11 22:10:00,
2013-05-11 18:11:00,64.8,57.8,29.67,SW,233,5.0,5.0,78,0.00,,OVC075,0.26,VWS V14.00,2013-05-11 22:11:00,
2013-05-11 18:12:00,64.8,58.1,29.67,SW,234,4.0,5.0,79,0.00,,OVC075,0.26,VWS V14.00,2013-05-11 22:12:00,
2013-05-11 18:13:00,64.8,58.1,29.67,SW,216,5.0,6.0,79,0.00,,OVC075,0.26,VWS V14.00,2013-05-11 22:13:00,
2013-05-11 18:14:00,64.7,58.4,29.67,SW,222,5.0,6.0,80,0.00,,OVC075,0.26,VWS V14.00,2013-05-11 22:14:00,
2013-05-11 18:15:00,64.7,58.4,29.67,SSW,210,6.0,8.0,80,0.00,,OVC075,0.26,VWS V14.00,2013-05-11 22:15:00,
2013-05-11 18:16:00,64.7,58.7,29.67,SW,221,9.0,10.0,81,0.00,,OVC075,0.26,VWS V14.00,2013-05-11 22:16:00,
2013-05-11 18:17:00,64.7,58.7,29.67,SSW,206,12.0,12.0,81,0.00,,OVC075,0.26,VWS V14.00,2013-05-11 22:17:00,
2013-05-11 18:18:00,64.7,58.7,29.67,SSW,209,7.0,12.0,81,0.00,,OVC075,0.26,VWS V14.00,2013-05-11 22:18:00,
2013-05-11 18:19:00,64.6,59.0,29.68,SW,221,10.0,12.0,82,0.00,,OVC075,0.26,VWS V14.00,2013-05-11 22:19:00,
2013-05-11 18:20:00,64.5,58.5,29.68,SSW,209,11.0,12.0,81,0.00,,OVC075,0.26,VWS V14.00,2013-05-11 22:20:00,
2013-05-11 18:21:00,64.4,58.1,29.68,SW,228,14.0,15.0,80,0.00,,OVC075,0.26,VWS V14.00,2013-05-11 22:21:00,
2013-05-11 18:22:00,64.4,57.0,29.68,WSW,238,12.0,15.0,77,0.00,,OVC075,0.26,VWS V14.00,2013-05-11 22:22:00,
2013-05-11 18:23:00,64.5,57.8,29.68,SW,215,11.0,15.0,79,0.00,,OVC075,0.26,VWS V14.00,2013-05-11 22:23:00,
2013-05-11 18:24:00,64.4,57.8,29.68,SSW,209,11.0,15.0,79,0.00,,OVC075,0.26,VWS V14.00,2013-05-11 22:24:00,
2013-05-11 18:25:00,64.4,57.8,29.68,SW,219,10.0,15.0,79,0.00,,OVC075,0.26,VWS V14.00,2013-05-11 22:25:00,
2013-05-11 18:26:00,64.4,57.8,29.68,SW,221,10.0,15.0,79,0.00,,OVC075,0.26,VWS V14.00,2013-05-11 22:26:00,
2013-05-11 18:27:00,64.3,57.7,29.68,SW,219,11.0,15.0,79,0.00,,OVC075,0.26,VWS V14.00,2013-05-11 22:27:00,
2013-05-11 18:28:00,64.3,58.0,29.68,SW,226,11.0,15.0,80,0.00,,OVC075,0.26,VWS V14.00,2013-05-11 22:28:00,
2013-05-11 18:29:00,64.3,58.0,29.68,SW,221,13.0,15.0,80,0.00,,OVC075,0.26,VWS V14.00,2013-05-11 22:29:00,
2013-05-11 18:30:00,64.3,57.3,29.68,SW,216,12.0,15.0,78,0.00,,OVC075,0.26,VWS V14.00,2013-05-11 22:30:00,
2013-05-11 18:31:00,64.2,56.5,29.68,WSW,242,12.0,13.0,76,0.00,,OVC075,0.26,VWS V14.00,2013-05-11 22:31:00,
2013-05-11 18:32:00,64.3,57.0,29.68,SW,234,10.0,13.0,77,0.00,,OVC075,0.26,VWS V14.00,2013-05-11 22:32:00,
2013-05-11 18:33:00,64.3,56.6,29.68,SW,227,11.0,13.0,76,0.00,,OVC075,0.26,VWS V14.00,2013-05-11 22:33:00,
2013-05-11 18:34:00,64.3,57.0,29.68,WSW,240,9.0,13.0,77,0.00,,OVC075,0.26,VWS V14.00,2013-05-11 22:34:00,
2013-05-11 18:35:00,64.3,57.3,29.68,SW,231,11.0,13.0,78,0.00,,OVC075,0.26,VWS V14.00,2013-05-11 22:35:00,
2013-05-11 18:36:00,64.3,56.6,29.68,WSW,240,11.0,13.0,76,0.00,,OVC075,0.26,VWS V14.00,2013-05-11 22:36:00,
2013-05-11 18:37:00,64.2,56.5,29.68,SW,234,10.0,13.0,76,0.00,,OVC075,0.26,VWS V14.00,2013-05-11 22:37:00,
2013-05-11 18:38:00,64.3,57.0,29.68,SW,218,9.0,13.0,77,0.00,,OVC075,0.26,VWS V14.00,2013-05-11 22:38:00,
2013-05-11 18:39:00,64.3,57.3,29.68,SW,222,11.0,13.0,78,0.00,,OVC075,0.26,VWS V14.00,2013-05-11 22:39:00,
2013-05-11 18:40:00,64.2,57.2,29.68,SW,229,14.0,14.0,78,0.00,,OVC075,0.26,VWS V14.00,2013-05-11 22:40:00,
2013-05-11 18:41:00,64.2,56.8,29.69,SW,219,15.0,15.0,77,0.00,,OVC075,0.26,VWS V14.00,2013-05-11 22:41:00,
2013-05-11 18:42:00,64.2,56.5,29.69,SW,221,11.0,15.0,76,0.00,,OVC075,0.26,VWS V14.00,2013-05-11 22:42:00,
2013-05-11 18:43:00,64.2,56.5,29.69,WSW,242,11.0,15.0,76,0.00,,OVC075,0.26,VWS V14.00,2013-05-11 22:43:00,
2013-05-11 18:44:00,64.2,56.8,29.69,SW,225,10.0,15.0,77,0.00,,OVC075,0.26,VWS V14.00,2013-05-11 22:44:00,
2013-05-11 18:45:00,64.2,57.2,29.69,SW,215,10.0,15.0,78,0.00,,OVC075,0.26,VWS V14.00,2013-05-11 22:45:00,
2013-05-11 18:46:00,64.2,56.8,29.69,SW,229,7.0,15.0,77,0.00,,OVC075,0.26,VWS V14.00,2013-05-11 22:46:00,
2013-05-11 18:47:00,64.1,57.1,29.68,SSW,213,9.0,15.0,78,0.00,,OVC075,0.26,VWS V14.00,2013-05-11 22:47:00,
2013-05-11 18:48:00,64.1,57.1,29.68,SSW,207,10.0,15.0,78,0.00,,OVC075,0.26,VWS V14.00,2013-05-11 22:48:00,
2013-05-11 18:49:00,64.1,56.4,29.69,SW,222,9.0,15.0,76,0.00,,OVC075,0.26,VWS V14.00,2013-05-11 22:49:00,
2013-05-11 18:50:00,64.1,56.8,29.68,SSW,211,9.0,15.0,77,0.00,,OVC065,0.26,VWS V14.00,2013-05-11 22:50:00,
2013-05-11 18:51:00,64.1,56.8,29.68,SSW,210,10.0,10.0,77,0.00,,OVC065,0.26,VWS V14.00,2013-05-11 22:51:00,
2013-05-11 18:52:00,64.1,57.1,29.69,SSW,194,3.0,10.0,78,0.00,,OVC065,0.26,VWS V14.00,2013-05-11 22:52:00,
2013-05-11 18:53:00,64.1,57.1,29.69,SSW,202,8.0,10.0,78,0.00,,OVC065,0.26,VWS V14.00,2013-05-11 22:53:00,
2013-05-11 18:54:00,64.1,57.5,29.69,SSW,212,6.0,10.0,79,0.00,,OVC065,0.26,VWS V14.00,2013-05-11 22:54:00,
2013-05-11 18:55:00,64.1,57.5,29.69,SSW,204,3.0,10.0,79,0.00,,OVC065,0.26,VWS V14.00,2013-05-11 22:55:00,
2013-05-11 18:56:00,64.0,57.4,29.69,SSW,199,1.0,10.0,79,0.00,,OVC065,0.26,VWS V14.00,2013-05-11 22:56:00,
2013-05-11 18:57:00,64.0,57.4,29.69,SW,217,5.0,10.0,79,0.00,,OVC065,0.26,VWS V14.00,2013-05-11 22:57:00,
2013-05-11 18:58:00,64.0,57.7,29.69,SSW,198,4.0,10.0,80,0.00,,OVC065,0.26,VWS V14.00,2013-05-11 22:58:00,
2013-05-11 18:59:00,64.0,57.7,29.69,SW,223,5.0,10.0,80,0.00,,OVC065,0.26,VWS V14.00,2013-05-11 22:59:00,
2013-05-11 19:00:00,64.0,57.7,29.69,SSW,203,5.0,10.0,80,0.00,,OVC065,0.26,VWS V14.00,2013-05-11 23:00:00,
2013-05-11 19:01:00,64.0,57.7,29.69,SSW,212,4.0,6.0,80,0.00,,OVC065,0.26,VWS V14.00,2013-05-11 23:01:00,
2013-05-11 19:02:00,64.0,57.7,29.69,SSW,211,6.0,7.0,80,0.00,,OVC065,0.26,VWS V14.00,2013-05-11 23:02:00,
2013-05-11 19:03:00,64.0,57.7,29.69,SW,221,6.0,9.0,80,0.00,,OVC065,0.26,VWS V14.00,2013-05-11 23:03:00,
2013-05-11 19:04:00,64.0,57.4,29.69,SW,222,7.0,9.0,79,0.00,,OVC065,0.26,VWS V14.00,2013-05-11 23:04:00,
2013-05-11 19:05:00,64.1,57.5,29.69,South,182,1.0,9.0,79,0.00,,OVC065,0.26,VWS V14.00,2013-05-11 23:05:00,
2013-05-11 19:06:00,64.1,57.5,29.69,SW,221,7.0,9.0,79,0.00,,OVC065,0.26,VWS V14.00,2013-05-11 23:06:00,
2013-05-11 19:07:00,64.1,57.8,29.69,SSW,198,4.0,9.0,80,0.00,,OVC065,0.26,VWS V14.00,2013-05-11 23:07:00,
2013-05-11 19:08:00,64.0,57.7,29.69,SSW,198,3.0,9.0,80,0.00,,OVC065,0.26,VWS V14.00,2013-05-11 23:08:00,
2013-05-11 19:09:00,64.0,57.4,29.69,SW,217,8.0,10.0,79,0.00,,OVC065,0.26,VWS V14.00,2013-05-11 23:09:00,
2013-05-11 19:10:00,64.0,57.4,29.69,SSW,203,7.0,10.0,79,0.00,,OVC065,0.26,VWS V14.00,2013-05-11 23:10:00,
2013-05-11 19:11:00,64.0,57.4,29.70,SSW,205,7.0,8.0,79,0.00,,OVC065,0.26,VWS V14.00,2013-05-11 23:11:00,
2013-05-11 19:12:00,64.0,57.4,29.69,SSW,210,6.0,8.0,79,0.00,,OVC065,0.26,VWS V14.00,2013-05-11 23:12:00,
2013-05-11 19:13:00,64.0,57.4,29.69,SSW,202,7.0,8.0,79,0.00,,OVC065,0.26,VWS V14.00,2013-05-11 23:13:00,
2013-05-11 19:14:00,64.0,57.4,29.69,SSW,198,6.0,8.0,79,0.00,,OVC065,0.26,VWS V14.00,2013-05-11 23:14:00,
2013-05-11 19:15:00,64.0,57.4,29.69,SSW,202,5.0,8.0,79,0.00,,OVC065,0.26,VWS V14.00,2013-05-11 23:15:00,
2013-05-11 19:16:00,64.0,57.4,29.69,SSW,207,0.0,9.0,79,0.00,,OVC065,0.26,VWS V14.00,2013-05-11 23:16:00,
2013-05-11 19:17:00,64.0,57.4,29.69,SSW,206,0.0,9.0,79,0.00,,OVC065,0.26,VWS V14.00,2013-05-11 23:17:00,
2013-05-11 19:18:00,64.0,57.7,29.69,SSW,206,1.0,9.0,80,0.00,,OVC065,0.26,VWS V14.00,2013-05-11 23:18:00,
2013-05-11 19:19:00,64.0,57.4,29.69,SSW,206,0.0,9.0,79,0.00,,OVC065,0.26,VWS V14.00,2013-05-11 23:19:00,
2013-05-11 19:20:00,64.0,57.4,29.69,SSW,206,3.0,9.0,79,0.00,,OVC065,0.26,VWS V14.00,2013-05-11 23:20:00,
2013-05-11 19:21:00,64.0,57.4,29.69,SSW,206,3.0,3.0,79,0.00,,OVC065,0.26,VWS V14.00,2013-05-11 23:21:00,
2013-05-11 19:22:00,64.0,57.4,29.69,SSW,202,0.0,4.0,79,0.00,,OVC065,0.26,VWS V14.00,2013-05-11 23:22:00,
2013-05-11 19:23:00,64.0,57.4,29.69,SW,214,0.0,4.0,79,0.00,,OVC065,0.26,VWS V14.00,2013-05-11 23:23:00,
2013-05-11 19:24:00,64.1,57.8,29.69,SSW,213,6.0,6.0,80,0.00,,OVC065,0.26,VWS V14.00,2013-05-11 23:24:00,
2013-05-11 19:25:00,64.1,57.8,29.69,SSW,211,5.0,6.0,80,0.00,,OVC065,0.26,VWS V14.00,2013-05-11 23:25:00,
2013-05-11 19:26:00,64.0,57.7,29.69,SSW,209,4.0,6.0,80,0.00,,OVC065,0.26,VWS V14.00,2013-05-11 23:26:00,
2013-05-11 19:27:00,64.0,58.1,29.69,SSW,209,3.0,6.0,81,0.00,,OVC065,0.26,VWS V14.00,2013-05-11 23:27:00,
2013-05-11 19:28:00,64.0,58.1,29.70,SSW,199,5.0,6.0,81,0.00,,OVC065,0.26,VWS V14.00,2013-05-11 23:28:00,
2013-05-11 19:29:00,64.0,58.1,29.69,SSW,205,2.0,6.0,81,0.00,,OVC065,0.26,VWS V14.00,2013-05-11 23:29:00,
2013-05-11 19:30:00,63.9,57.6,29.69,SSW,207,4.0,6.0,80,0.00,,OVC065,0.26,VWS V14.00,2013-05-11 23:30:00,
2013-05-11 19:31:00,63.9,57.6,29.70,SSW,209,4.0,7.0,80,0.00,,OVC065,0.26,VWS V14.00,2013-05-11 23:31:00,
2013-05-11 19:32:00,63.9,58.0,29.70,SSW,203,2.0,7.0,81,0.00,,OVC065,0.26,VWS V14.00,2013-05-11 23:32:00,
2013-05-11 19:33:00,63.8,57.9,29.70,SSW,204,0.0,7.0,81,0.00,,OVC065,0.26,VWS V14.00,2013-05-11 23:33:00,
2013-05-11 19:34:00,63.8,57.9,29.70,SSW,211,5.0,7.0,81,0.00,,OVC065,0.26,VWS V14.00,2013-05-11 23:34:00,
2013-05-11 19:35:00,63.8,57.9,29.70,SSW,211,3.0,7.0,81,0.00,,OVC065,0.26,VWS V14.00,2013-05-11 23:35:00,
2013-05-11 19:36:00,63.8,57.9,29.70,SSW,210,0.0,7.0,81,0.00,,OVC065,0.26,VWS V14.00,2013-05-11 23:36:00,
2013-05-11 19:37:00,63.7,57.8,29.70,SSW,211,1.0,7.0,81,0.00,,OVC065,0.26,VWS V14.00,2013-05-11 23:37:00,
2013-05-11 19:38:00,63.7,57.8,29.70,SW,217,6.0,7.0,81,0.00,,OVC065,0.26,VWS V14.00,2013-05-11 23:38:00,
2013-05-11 19:39:00,63.6,57.7,29.70,SSW,202,6.0,7.0,81,0.00,,OVC065,0.26,VWS V14.00,2013-05-11 23:39:00,
2013-05-11 19:40:00,63.6,57.7,29.70,SSW,203,6.0,7.0,81,0.00,,OVC065,0.26,VWS V14.00,2013-05-11 23:40:00,
2013-05-11 19:41:00,63.6,58.0,29.70,SSW,210,7.0,9.0,82,0.00,,OVC065,0.26,VWS V14.00,2013-05-11 23:41:00,
2013-05-11 19:42:00,63.5,57.6,29.70,SSW,204,6.0,9.0,81,0.00,,OVC065,0.26,VWS V14.00,2013-05-11 23:42:00,
2013-05-11 19:43:00,63.5,57.9,29.70,SSW,203,2.0,9.0,82,0.00,,OVC065,0.26,VWS V14.00,2013-05-11 23:43:00,
2013-05-11 19:44:00,63.4,57.8,29.70,SSW,203,2.0,9.0,82,0.00,,OVC065,0.26,VWS V14.00,2013-05-11 23:44:00,
2013-05-11 19:45:00,63.4,57.8,29.70,SSW,211,6.0,9.0,82,0.00,,OVC065,0.26,VWS V14.00,2013-05-11 23:45:00,
2013-05-11 19:46:00,63.4,58.2,29.70,SSW,211,2.0,9.0,83,0.00,,OVC065,0.26,VWS V14.00,2013-05-11 23:46:00,
2013-05-11 19:47:00,63.4,58.2,29.70,SSW,211,0.0,9.0,83,0.00,,OVC065,0.26,VWS V14.00,2013-05-11 23:47:00,
2013-05-11 19:48:00,63.3,58.1,29.70,SSW,211,0.0,9.0,83,0.00,,OVC065,0.26,VWS V14.00,2013-05-11 23:48:00,
2013-05-11 19:49:00,63.3,58.1,29.70,SSW,211,0.0,9.0,83,0.00,,OVC060,0.26,VWS V14.00,2013-05-11 23:49:00,
2013-05-11 19:50:00,63.3,58.1,29.70,SSW,211,0.0,9.0,83,0.00,,OVC060,0.26,VWS V14.00,2013-05-11 23:50:00,
2013-05-11 19:51:00,63.3,58.1,29.70,SSW,211,0.0,0.0,83,0.00,,OVC060,0.26,VWS V14.00,2013-05-11 23:51:00,
2013-05-11 19:52:00,63.2,58.0,29.71,SSW,211,0.0,0.0,83,0.00,,OVC060,0.26,VWS V14.00,2013-05-11 23:52:00,
2013-05-11 19:53:00,63.2,58.0,29.71,SSW,211,0.0,0.0,83,0.00,,OVC060,0.26,VWS V14.00,2013-05-11 23:53:00,
2013-05-11 19:54:00,63.2,58.3,29.70,SSW,211,2.0,3.0,84,0.00,,OVC060,0.26,VWS V14.00,2013-05-11 23:54:00,
2013-05-11 19:55:00,63.1,58.2,29.71,SSW,211,0.0,3.0,84,0.00,,OVC060,0.26,VWS V14.00,2013-05-11 23:55:00,
2013-05-11 19:56:00,63.0,58.1,29.71,SSW,211,3.0,3.0,84,0.00,,OVC060,0.26,VWS V14.00,2013-05-11 23:56:00,
2013-05-11 19:57:00,63.0,58.1,29.71,SSW,205,1.0,9.0,84,0.00,,OVC060,0.26,VWS V14.00,2013-05-11 23:57:00,
2013-05-11 19:58:00,62.9,58.0,29.71,SSW,203,0.0,9.0,84,0.00,,OVC060,0.26,VWS V14.00,2013-05-11 23:58:00,
2013-05-11 19:59:00,62.8,57.9,29.71,SSW,200,6.0,9.0,84,0.00,,OVC060,0.26,VWS V14.00,2013-05-11 23:59:00,
2013-05-11 20:00:00,62.7,57.8,29.71,South,184,2.0,9.0,84,0.00,,OVC060,0.26,VWS V14.00,2013-05-12 00:00:00,
2013-05-11 20:01:00,62.6,57.4,29.71,SSW,205,3.0,5.0,83,0.00,,OVC060,0.26,VWS V14.00,2013-05-12 00:01:00,
2013-05-11 20:02:00,62.6,57.7,29.71,SSW,203,5.0,5.0,84,0.00,,OVC060,0.26,VWS V14.00,2013-05-12 00:02:00,
2013-05-11 20:03:00,62.5,57.6,29.71,SSW,211,2.0,5.0,84,0.00,,OVC060,0.26,VWS V14.00,2013-05-12 00:03:00,
2013-05-11 20:04:00,62.5,57.6,29.71,SSW,211,0.0,5.0,84,0.00,,OVC060,0.26,VWS V14.00,2013-05-12 00:04:00,
2013-05-11 20:05:00,62.5,57.6,29.71,SSW,200,3.0,8.0,84,0.00,,OVC060,0.26,VWS V14.00,2013-05-12 00:05:00,
2013-05-11 20:06:00,62.4,57.2,29.71,SSW,202,3.0,8.0,83,0.00,,OVC060,0.26,VWS V14.00,2013-05-12 00:06:00,
2013-05-11 20:07:00,62.3,57.1,29.71,South,175,0.0,8.0,83,0.00,,OVC060,0.26,VWS V14.00,2013-05-12 00:07:00,
2013-05-11 20:08:00,62.3,57.1,29.71,South,184,2.0,8.0,83,0.00,,OVC060,0.26,VWS V14.00,2013-05-12 00:08:00,
2013-05-11 20:09:00,62.3,57.1,29.71,SE,138,0.0,8.0,83,0.00,,OVC060,0.26,VWS V14.00,2013-05-12 00:09:00,
2013-05-11 20:10:00,62.2,57.0,29.70,SSW,193,0.0,8.0,83,0.00,,OVC060,0.26,VWS V14.00,2013-05-12 00:10:00,
2013-05-11 20:11:00,62.2,57.0,29.70,SSW,202,4.0,4.0,83,0.00,,OVC060,0.26,VWS V14.00,2013-05-12 00:11:00,
2013-05-11 20:12:00,62.2,57.0,29.71,South,183,0.0,5.0,83,0.00,,OVC060,0.26,VWS V14.00,2013-05-12 00:12:00,
2013-05-11 20:13:00,62.2,57.3,29.71,SSE,163,2.0,5.0,84,0.00,,OVC060,0.26,VWS V14.00,2013-05-12 00:13:00,
2013-05-11 20:14:00,62.1,57.2,29.71,SSE,155,0.0,5.0,84,0.00,,OVC060,0.26,VWS V14.00,2013-05-12 00:14:00,
2013-05-11 20:15:00,62.1,57.2,29.71,SSW,205,0.0,5.0,84,0.00,,OVC060,0.26,VWS V14.00,2013-05-12 00:15:00,
2013-05-11 20:16:00,62.0,57.1,29.71,SSW,205,1.0,5.0,84,0.00,,OVC060,0.26,VWS V14.00,2013-05-12 00:16:00,
2013-05-11 20:17:00,62.0,57.1,29.71,SSW,205,0.0,5.0,84,0.00,,OVC060,0.26,VWS V14.00,2013-05-12 00:17:00,
2013-05-11 20:18:00,61.9,57.3,29.71,SSW,205,2.0,5.0,85,0.00,,OVC060,0.26,VWS V14.00,2013-05-12 00:18:00,
2013-05-11 20:19:00,61.8,57.2,29.71,SSW,209,0.0,5.0,85,0.00,,OVC060,0.26,VWS V14.00,2013-05-12 00:19:00,
2013-05-11 20:20:00,61.8,57.2,29.71,SSW,203,2.0,5.0,85,0.00,,OVC060,0.26,VWS V14.00,2013-05-12 00:20:00,
2013-05-11 20:21:00,61.8,57.2,29.71,SSW,203,0.0,1.0,85,0.00,,OVC060,0.26,VWS V14.00,2013-05-12 00:21:00,
2013-05-11 20:22:00,61.7,57.2,29.71,SSW,203,0.0,1.0,85,0.00,,OVC060,0.26,VWS V14.00,2013-05-12 00:22:00,
2013-05-11 20:23:00,61.7,57.2,29.71,SSW,203,0.0,1.0,85,0.00,,OVC060,0.26,VWS V14.00,2013-05-12 00:23:00,
2013-05-11 20:24:00,61.6,57.0,29.71,SSW,203,3.0,4.0,85,0.00,,OVC060,0.26,VWS V14.00,2013-05-12 00:24:00,
2013-05-11 20:25:00,61.6,57.0,29.71,SSW,202,0.0,5.0,85,0.00,,OVC060,0.26,VWS V14.00,2013-05-12 00:25:00,
2013-05-11 20:26:00,61.6,57.0,29.71,SSW,202,0.0,5.0,85,0.00,,OVC060,0.26,VWS V14.00,2013-05-12 00:26:00,
2013-05-11 20:27:00,61.5,57.0,29.71,South,187,2.0,5.0,85,0.00,,OVC060,0.26,VWS V14.00,2013-05-12 00:27:00,
2013-05-11 20:28:00,61.4,56.9,29.71,South,173,1.0,5.0,85,0.00,,OVC060,0.26,VWS V14.00,2013-05-12 00:28:00,
2013-05-11 20:29:00,61.4,56.9,29.71,SW,214,3.0,5.0,85,0.00,,OVC060,0.26,VWS V14.00,2013-05-12 00:29:00,
2013-05-11 20:30:00,61.4,56.9,29.71,SW,214,2.0,5.0,85,0.00,,OVC060,0.26,VWS V14.00,2013-05-12 00:30:00,
2013-05-11 20:31:00,61.4,56.9,29.71,SSW,209,0.0,3.0,85,0.00,,OVC060,0.26,VWS V14.00,2013-05-12 00:31:00,
2013-05-11 20:32:00,61.3,56.8,29.71,SSW,209,0.0,3.0,85,0.00,,OVC060,0.26,VWS V14.00,2013-05-12 00:32:00,
2013-05-11 20:33:00,61.3,56.8,29.71,SSW,202,0.0,3.0,85,0.00,,OVC060,0.26,VWS V14.00,2013-05-12 00:33:00,
2013-05-11 20:34:00,61.3,56.8,29.71,SSW,211,0.0,3.0,85,0.00,,OVC060,0.26,VWS V14.00,2013-05-12 00:34:00,
2013-05-11 20:35:00,61.3,56.8,29.71,SW,216,0.0,3.0,85,0.00,,OVC060,0.26,VWS V14.00,2013-05-12 00:35:00,
2013-05-11 20:36:00,61.2,56.7,29.71,SW,215,0.0,3.0,85,0.00,,OVC060,0.26,VWS V14.00,2013-05-12 00:36:00,
2013-05-11 20:37:00,61.2,56.7,29.71,SW,215,0.0,3.0,85,0.00,,OVC060,0.26,VWS V14.00,2013-05-12 00:37:00,
2013-05-11 20:38:00,61.1,56.6,29.71,SW,214,0.0,3.0,85,0.00,,OVC060,0.26,VWS V14.00,2013-05-12 00:38:00,
2013-05-11 20:39:00,61.1,56.6,29.71,SW,222,0.0,3.0,85,0.00,,OVC060,0.26,VWS V14.00,2013-05-12 00:39:00,
2013-05-11 20:40:00,61.1,56.6,29.71,SW,222,0.0,3.0,85,0.00,,OVC060,0.26,VWS V14.00,2013-05-12 00:40:00,
2013-05-11 20:41:00,61.1,56.6,29.71,SW,222,0.0,0.0,85,0.00,,OVC060,0.26,VWS V14.00,2013-05-12 00:41:00,
2013-05-11 20:42:00,61.0,56.5,29.71,SW,222,0.0,0.0,85,0.00,,OVC060,0.26,VWS V14.00,2013-05-12 00:42:00,
2013-05-11 20:43:00,60.9,56.4,29.71,ESE,105,0.0,0.0,85,0.00,,OVC060,0.26,VWS V14.00,2013-05-12 00:43:00,
2013-05-11 20:44:00,60.9,56.4,29.71,ESE,105,0.0,0.0,85,0.00,,OVC060,0.26,VWS V14.00,2013-05-12 00:44:00,
2013-05-11 20:45:00,60.8,56.3,29.71,ESE,105,0.0,0.0,85,0.00,,OVC060,0.26,VWS V14.00,2013-05-12 00:45:00,
2013-05-11 20:46:00,60.8,56.3,29.71,ESE,105,0.0,0.0,85,0.00,,OVC060,0.26,VWS V14.00,2013-05-12 00:46:00,
2013-05-11 20:47:00,60.7,56.2,29.71,ESE,105,0.0,0.0,85,0.00,,OVC060,0.26,VWS V14.00,2013-05-12 00:47:00,
2013-05-11 20:48:00,60.7,56.2,29.71,ESE,105,0.0,0.0,85,0.00,,OVC060,0.26,VWS V14.00,2013-05-12 00:48:00,
2013-05-11 20:49:00,60.7,56.2,29.71,ESE,116,0.0,0.0,85,0.00,,OVC060,0.26,VWS V14.00,2013-05-12 00:49:00,
2013-05-11 20:50:00,60.7,56.2,29.71,ESE,115,0.0,0.0,85,0.00,,OVC080,0.26,VWS V14.00,2013-05-12 00:50:00,
2013-05-11 20:51:00,60.6,56.1,29.71,ESE,116,0.0,0.0,85,0.00,,OVC080,0.26,VWS V14.00,2013-05-12 00:51:00,
2013-05-11 20:52:00,60.6,56.1,29.71,ESE,116,0.0,0.0,85,0.00,,OVC080,0.26,VWS V14.00,2013-05-12 00:52:00,
2013-05-11 20:53:00,60.5,56.0,29.71,ESE,116,0.0,0.0,85,0.00,,OVC080,0.26,VWS V14.00,2013-05-12 00:53:00,
2013-05-11 20:54:00,60.5,56.0,29.71,ESE,116,0.0,0.0,85,0.00,,OVC080,0.26,VWS V14.00,2013-05-12 00:54:00,
2013-05-11 20:55:00,60.4,55.9,29.71,ESE,115,0.0,0.0,85,0.00,,OVC080,0.26,VWS V14.00,2013-05-12 00:55:00,
2013-05-11 20:56:00,60.4,55.9,29.71,ESE,116,2.0,2.0,85,0.00,,OVC080,0.26,VWS V14.00,2013-05-12 00:56:00,
2013-05-11 20:57:00,60.3,55.8,29.71,ESE,115,0.0,2.0,85,0.00,,OVC080,0.26,VWS V14.00,2013-05-12 00:57:00,
2013-05-11 20:58:00,60.3,56.1,29.71,ESE,115,0.0,2.0,86,0.00,,OVC080,0.26,VWS V14.00,2013-05-12 00:58:00,
2013-05-11 20:59:00,60.3,56.1,29.71,ESE,116,0.0,2.0,86,0.00,,OVC080,0.26,VWS V14.00,2013-05-12 00:59:00,
2013-05-11 21:00:00,60.2,55.7,29.71,ESE,122,1.0,4.0,85,0.00,,OVC080,0.26,VWS V14.00,2013-05-12 01:00:00,
2013-05-11 21:01:00,60.2,56.0,29.71,ESE,122,0.0,1.0,86,0.00,,OVC080,0.26,VWS V14.00,2013-05-12 01:01:00,
2013-05-11 21:02:00,60.2,56.0,29.71,ESE,122,0.0,1.0,86,0.00,,OVC080,0.26,VWS V14.00,2013-05-12 01:02:00,
2013-05-11 21:03:00,60.2,56.0,29.71,ESE,122,0.0,1.0,86,0.00,,OVC080,0.26,VWS V14.00,2013-05-12 01:03:00,
2013-05-11 21:04:00,60.1,55.9,29.71,ESE,122,0.0,1.0,86,0.00,,OVC080,0.26,VWS V14.00,2013-05-12 01:04:00,
2013-05-11 21:05:00,60.1,55.9,29.71,ESE,122,0.0,1.0,86,0.00,,OVC080,0.26,VWS V14.00,2013-05-12 01:05:00,
2013-05-11 21:06:00,60.0,55.8,29.71,ESE,122,0.0,1.0,86,0.00,,OVC080,0.26,VWS V14.00,2013-05-12 01:06:00,
2013-05-11 21:07:00,60.0,55.8,29.71,ESE,122,0.0,1.0,86,0.00,,OVC080,0.27,VWS V14.00,2013-05-12 01:07:00,
2013-05-11 21:08:00,60.0,55.8,29.71,ESE,122,0.0,1.0,86,0.00,,OVC080,0.27,VWS V14.00,2013-05-12 01:08:00,
2013-05-11 21:09:00,59.9,55.7,29.71,ESE,122,0.0,1.0,86,0.00,,OVC080,0.27,VWS V14.00,2013-05-12 01:09:00,
2013-05-11 21:10:00,59.8,55.6,29.71,ESE,122,0.0,1.0,86,0.00,,OVC080,0.27,VWS V14.00,2013-05-12 01:10:00,
2013-05-11 21:11:00,59.7,55.8,29.71,ESE,122,0.0,0.0,87,0.00,,OVC080,0.27,VWS V14.00,2013-05-12 01:11:00,
2013-05-11 21:12:00,59.6,55.7,29.71,ESE,123,2.0,2.0,87,0.00,,OVC080,0.27,VWS V14.00,2013-05-12 01:12:00,
2013-05-11 21:13:00,59.5,55.6,29.71,ESE,123,2.0,2.0,87,0.00,,OVC080,0.27,VWS V14.00,2013-05-12 01:13:00,
2013-05-11 21:14:00,59.5,55.6,29.71,ESE,122,1.0,2.0,87,0.00,,OVC080,0.27,VWS V14.00,2013-05-12 01:14:00,
2013-05-11 21:15:00,59.4,55.5,29.71,South,177,0.0,2.0,87,0.00,,OVC080,0.27,VWS V14.00,2013-05-12 01:15:00,
2013-05-11 21:16:00,59.3,55.8,29.71,SSE,147,0.0,2.0,88,0.00,,OVC080,0.27,VWS V14.00,2013-05-12 01:16:00,
2013-05-11 21:17:00,59.2,55.7,29.71,SSE,147,0.0,2.0,88,0.00,,OVC080,0.27,VWS V14.00,2013-05-12 01:17:00,
2013-05-11 21:18:00,59.1,55.5,29.71,SE,146,0.0,2.0,88,0.00,,OVC080,0.27,VWS V14.00,2013-05-12 01:18:00,
2013-05-11 21:19:00,59.0,55.5,29.71,SE,146,0.0,2.0,88,0.00,,OVC080,0.27,VWS V14.00,2013-05-12 01:19:00,
2013-05-11 21:20:00,59.0,55.5,29.71,SE,138,0.0,2.0,88,0.00,,OVC080,0.27,VWS V14.00,2013-05-12 01:20:00,
2013-05-11 21:21:00,59.0,55.5,29.71,SE,138,0.0,0.0,88,0.00,,OVC080,0.27,VWS V14.00,2013-05-12 01:21:00,
2013-05-11 21:22:00,59.0,55.5,29.71,SE,138,0.0,0.0,88,0.00,,OVC080,0.27,VWS V14.00,2013-05-12 01:22:00,
2013-05-11 21:23:00,59.0,55.8,29.70,SE,138,0.0,0.0,89,0.00,,OVC080,0.27,VWS V14.00,2013-05-12 01:23:00,
2013-05-11 21:24:00,59.0,55.8,29.70,SE,138,0.0,0.0,89,0.00,,OVC080,0.27,VWS V14.00,2013-05-12 01:24:00,
2013-05-11 21:25:00,59.0,55.8,29.70,SE,138,0.0,0.0,89,0.00,,OVC080,0.27,VWS V14.00,2013-05-12 01:25:00,
2013-05-11 21:26:00,59.0,55.8,29.70,SE,137,0.0,0.0,89,0.00,,OVC080,0.27,VWS V14.00,2013-05-12 01:26:00,
2013-05-11 21:27:00,59.0,55.8,29.70,South,181,3.0,3.0,89,0.00,,OVC080,0.27,VWS V14.00,2013-05-12 01:27:00,
2013-05-11 21:28:00,59.0,56.1,29.71,South,180,0.0,3.0,90,0.00,,OVC080,0.27,VWS V14.00,2013-05-12 01:28:00,
2013-05-11 21:29:00,59.0,56.1,29.71,South,181,0.0,3.0,90,0.00,,OVC080,0.27,VWS V14.00,2013-05-12 01:29:00,
2013-05-11 21:30:00,59.0,56.1,29.71,South,180,0.0,3.0,90,0.00,,OVC080,0.27,VWS V14.00,2013-05-12 01:30:00,
2013-05-11 21:31:00,59.0,56.7,29.71,South,180,0.0,2.0,92,0.00,,OVC080,0.27,VWS V14.00,2013-05-12 01:31:00,
2013-05-11 21:32:00,59.0,56.1,29.71,South,181,0.0,2.0,90,0.00,,OVC080,0.27,VWS V14.00,2013-05-12 01:32:00,
2013-05-11 21:33:00,58.9,56.0,29.71,South,180,0.0,2.0,90,0.00,,OVC080,0.27,VWS V14.00,2013-05-12 01:33:00,
2013-05-11 21:34:00,58.9,56.0,29.71,South,180,0.0,2.0,90,0.00,,OVC080,0.27,VWS V14.00,2013-05-12 01:34:00,
2013-05-11 21:35:00,58.9,56.0,29.71,South,181,0.0,2.0,90,0.00,,OVC080,0.27,VWS V14.00,2013-05-12 01:35:00,
2013-05-11 21:36:00,58.9,56.0,29.71,South,182,0.0,2.0,90,0.00,,OVC080,0.27,VWS V14.00,2013-05-12 01:36:00,
2013-05-11 21:37:00,58.8,55.9,29.71,South,182,0.0,2.0,90,0.00,,OVC080,0.27,VWS V14.00,2013-05-12 01:37:00,
2013-05-11 21:38:00,58.8,56.2,29.71,SSW,202,4.0,4.0,91,0.00,,OVC080,0.27,VWS V14.00,2013-05-12 01:38:00,
2013-05-11 21:39:00,58.7,56.1,29.71,SSW,206,0.0,5.0,91,0.00,,OVC080,0.27,VWS V14.00,2013-05-12 01:39:00,
2013-05-11 21:40:00,58.7,56.1,29.71,SSW,195,4.0,5.0,91,0.00,,OVC080,0.27,VWS V14.00,2013-05-12 01:40:00,
2013-05-11 21:41:00,58.7,56.1,29.71,SSW,201,1.0,3.0,91,0.00,,OVC080,0.27,VWS V14.00,2013-05-12 01:41:00,
2013-05-11 21:42:00,58.8,56.2,29.71,SSW,201,0.0,3.0,91,0.00,,OVC080,0.27,VWS V14.00,2013-05-12 01:42:00,
2013-05-11 21:43:00,58.8,56.2,29.72,SW,219,0.0,4.0,91,0.00,,OVC080,0.27,VWS V14.00,2013-05-12 01:43:00,
2013-05-11 21:44:00,58.8,56.2,29.71,SSW,212,0.0,4.0,91,0.00,,OVC080,0.27,VWS V14.00,2013-05-12 01:44:00,
2013-05-11 21:45:00,58.9,56.3,29.72,SSW,202,3.0,6.0,91,0.00,,OVC080,0.27,VWS V14.00,2013-05-12 01:45:00,
2013-05-11 21:46:00,58.9,56.3,29.71,South,186,0.0,6.0,91,0.00,,OVC080,0.27,VWS V14.00,2013-05-12 01:46:00,
2013-05-11 21:47:00,58.9,56.3,29.71,WSW,252,0.0,6.0,91,0.00,,OVC080,0.27,VWS V14.00,2013-05-12 01:47:00,
2013-05-11 21:48:00,58.9,56.3,29.71,SSW,209,6.0,6.0,91,0.00,,OVC080,0.27,VWS V14.00,2013-05-12 01:48:00,
2013-05-11 21:49:00,58.9,56.3,29.71,SSW,196,0.0,6.0,91,0.00,,OVC080,0.27,VWS V14.00,2013-05-12 01:49:00,
2013-05-11 21:50:00,58.9,56.3,29.71,SSW,195,0.0,6.0,91,0.00,,OVC037,0.27,VWS V14.00,2013-05-12 01:50:00,
2013-05-11 21:51:00,58.9,56.3,29.71,SSE,163,0.0,1.0,91,0.00,,OVC037,0.27,VWS V14.00,2013-05-12 01:51:00,
2013-05-11 21:52:00,58.8,56.2,29.71,South,190,2.0,2.0,91,0.00,,OVC037,0.27,VWS V14.00,2013-05-12 01:52:00,
2013-05-11 21:53:00,58.7,56.1,29.71,South,190,0.0,3.0,91,0.00,,OVC037,0.27,VWS V14.00,2013-05-12 01:53:00,
2013-05-11 21:54:00,58.7,56.1,29.71,South,181,0.0,3.0,91,0.00,,OVC037,0.27,VWS V14.00,2013-05-12 01:54:00,
2013-05-11 21:55:00,58.7,56.1,29.71,SSE,158,1.0,3.0,91,0.00,,OVC037,0.27,VWS V14.00,2013-05-12 01:55:00,
2013-05-11 21:56:00,58.6,56.0,29.71,SSE,158,0.0,3.0,91,0.00,,OVC037,0.27,VWS V14.00,2013-05-12 01:56:00,
2013-05-11 21:57:00,58.6,56.0,29.71,SSE,163,1.0,3.0,91,0.00,,OVC037,0.27,VWS V14.00,2013-05-12 01:57:00,
2013-05-11 21:58:00,58.6,56.0,29.71,South,181,0.0,3.0,91,0.00,,OVC037,0.27,VWS V14.00,2013-05-12 01:58:00,
2013-05-11 21:59:00,58.5,55.9,29.71,South,182,0.0,3.0,91,0.00,,OVC037,0.27,VWS V14.00,2013-05-12 01:59:00,
2013-05-11 22:00:00,58.5,55.9,29.71,SSW,209,2.0,3.0,91,0.00,,OVC037,0.27,VWS V14.00,2013-05-12 02:00:00,
2013-05-11 22:01:00,58.5,55.9,29.71,SSW,208,3.0,4.0,91,0.00,,OVC037,0.27,VWS V14.00,2013-05-12 02:01:00,
2013-05-11 22:02:00,58.5,55.9,29.71,SSW,202,0.0,4.0,91,0.00,,OVC037,0.27,VWS V14.00,2013-05-12 02:02:00,
2013-05-11 22:03:00,58.5,55.9,29.71,South,175,1.0,4.0,91,0.00,,OVC037,0.27,VWS V14.00,2013-05-12 02:03:00,
2013-05-11 22:04:00,58.4,55.8,29.71,SW,218,3.0,4.0,91,0.00,,OVC037,0.27,VWS V14.00,2013-05-12 02:04:00,
2013-05-11 22:05:00,58.5,55.9,29.71,SSW,198,2.0,4.0,91,0.00,,OVC037,0.27,VWS V14.00,2013-05-12 02:05:00,
2013-05-11 22:06:00,58.4,55.5,29.71,SSW,201,0.0,4.0,90,0.00,,OVC037,0.27,VWS V14.00,2013-05-12 02:06:00,
2013-05-11 22:07:00,58.5,55.9,29.71,SSW,200,0.0,4.0,91,0.00,,OVC037,0.27,VWS V14.00,2013-05-12 02:07:00,
2013-05-11 22:08:00,58.5,55.6,29.71,SSW,201,0.0,4.0,90,0.00,,OVC037,0.27,VWS V14.00,2013-05-12 02:08:00,
2013-05-11 22:09:00,58.5,55.9,29.71,SSW,200,0.0,4.0,91,0.00,,OVC037,0.27,VWS V14.00,2013-05-12 02:09:00,
2013-05-11 22:10:00,58.5,55.9,29.71,SSW,201,0.0,4.0,91,0.00,,OVC037,0.27,VWS V14.00,2013-05-12 02:10:00,
2013-05-11 22:11:00,58.5,55.6,29.71,SSW,201,0.0,3.0,90,0.00,,OVC037,0.27,VWS V14.00,2013-05-12 02:11:00,
2013-05-11 22:12:00,58.5,55.6,29.71,SSW,205,0.0,3.0,90,0.00,,OVC037,0.27,VWS V14.00,2013-05-12 02:12:00,
2013-05-11 22:13:00,58.4,55.5,29.71,SSW,205,3.0,3.0,90,0.00,,OVC037,0.27,VWS V14.00,2013-05-12 02:13:00,
2013-05-11 22:14:00,58.4,55.5,29.71,SSW,205,0.0,5.0,90,0.00,,OVC037,0.27,VWS V14.00,2013-05-12 02:14:00,
2013-05-11 22:15:00,58.4,55.5,29.71,SSW,205,0.0,5.0,90,0.00,,OVC037,0.27,VWS V14.00,2013-05-12 02:15:00,
2013-05-11 22:16:00,58.5,55.6,29.71,SSW,205,5.0,5.0,90,0.00,,OVC037,0.27,VWS V14.00,2013-05-12 02:16:00,
2013-05-11 22:17:00,58.5,55.9,29.71,SSW,211,2.0,6.0,91,0.00,,OVC037,0.27,VWS V14.00,2013-05-12 02:17:00,
2013-05-11 22:18:00,58.5,55.9,29.71,SSW,200,7.0,7.0,91,0.00,,OVC037,0.27,VWS V14.00,2013-05-12 02:18:00,
2013-05-11 22:19:00,58.5,55.6,29.71,SSW,205,6.0,9.0,90,0.00,,OVC037,0.27,VWS V14.00,2013-05-12 02:19:00,
2013-05-11 22:20:00,58.5,55.6,29.71,SSW,210,8.0,9.0,90,0.00,,OVC037,0.27,VWS V14.00,2013-05-12 02:20:00,
2013-05-11 22:21:00,58.5,55.6,29.71,SSW,210,5.0,8.0,90,0.00,,OVC037,0.27,VWS V14.00,2013-05-12 02:21:00,
2013-05-11 22:22:00,58.6,55.7,29.71,SSW,210,4.0,8.0,90,0.00,,OVC037,0.27,VWS V14.00,2013-05-12 02:22:00,
2013-05-11 22:23:00,58.6,55.7,29.71,SSW,210,5.0,8.0,90,0.00,,OVC037,0.27,VWS V14.00,2013-05-12 02:23:00,
2013-05-11 22:24:00,58.7,55.8,29.71,SSW,210,2.0,8.0,90,0.00,,OVC037,0.27,VWS V14.00,2013-05-12 02:24:00,
2013-05-11 22:25:00,58.7,55.8,29.71,SSW,210,3.0,8.0,90,0.00,,OVC037,0.27,VWS V14.00,2013-05-12 02:25:00,
2013-05-11 22:26:00,58.6,55.7,29.71,SSW,210,4.0,8.0,90,0.00,,OVC037,0.27,VWS V14.00,2013-05-12 02:26:00,
2013-05-11 22:27:00,58.6,55.7,29.71,SSW,210,4.0,8.0,90,0.00,,OVC037,0.27,VWS V14.00,2013-05-12 02:27:00,
2013-05-11 22:28:00,58.6,55.7,29.71,SSW,210,4.0,8.0,90,0.00,,OVC037,0.27,VWS V14.00,2013-05-12 02:28:00,
2013-05-11 22:29:00,58.6,55.4,29.71,SSW,210,0.0,8.0,89,0.00,,OVC037,0.27,VWS V14.00,2013-05-12 02:29:00,
2013-05-11 22:30:00,58.7,55.8,29.71,SSW,210,0.0,8.0,90,0.00,,OVC037,0.27,VWS V14.00,2013-05-12 02:30:00,
2013-05-11 22:31:00,58.6,55.7,29.71,SSW,210,1.0,1.0,90,0.00,,OVC037,0.27,VWS V14.00,2013-05-12 02:31:00,
2013-05-11 22:32:00,58.5,55.6,29.71,SSW,210,0.0,1.0,90,0.00,,OVC037,0.27,VWS V14.00,2013-05-12 02:32:00,
2013-05-11 22:33:00,58.5,55.6,29.70,SSW,210,0.0,1.0,90,0.00,,OVC037,0.27,VWS V14.00,2013-05-12 02:33:00,
2013-05-11 22:34:00,58.4,55.5,29.70,SSW,210,0.0,1.0,90,0.00,,OVC037,0.27,VWS V14.00,2013-05-12 02:34:00,
2013-05-11 22:35:00,58.4,55.5,29.70,SSW,210,0.0,3.0,90,0.00,,OVC037,0.27,VWS V14.00,2013-05-12 02:35:00,
2013-05-11 22:36:00,58.3,55.4,29.70,SSW,210,0.0,3.0,90,0.00,,OVC037,0.27,VWS V14.00,2013-05-12 02:36:00,
2013-05-11 22:37:00,58.2,55.3,29.70,SSW,210,1.0,3.0,90,0.00,,OVC037,0.27,VWS V14.00,2013-05-12 02:37:00,
2013-05-11 22:38:00,58.1,55.2,29.70,SSW,210,0.0,3.0,90,0.00,,OVC037,0.27,VWS V14.00,2013-05-12 02:38:00,
2013-05-11 22:39:00,58.1,55.2,29.70,SSW,210,0.0,3.0,90,0.00,,OVC037,0.27,VWS V14.00,2013-05-12 02:39:00,
2013-05-11 22:40:00,58.1,55.2,29.70,SSW,210,0.0,3.0,90,0.00,,OVC037,0.27,VWS V14.00,2013-05-12 02:40:00,
2013-05-11 22:41:00,58.0,55.1,29.70,SSW,210,0.0,0.0,90,0.00,,OVC037,0.27,VWS V14.00,2013-05-12 02:41:00,
2013-05-11 22:42:00,57.9,55.0,29.70,SSW,210,0.0,0.0,90,0.00,,OVC037,0.27,VWS V14.00,2013-05-12 02:42:00,
2013-05-11 22:43:00,57.9,55.0,29.70,SSW,210,0.0,0.0,90,0.00,,OVC037,0.27,VWS V14.00,2013-05-12 02:43:00,
2013-05-11 22:44:00,57.9,55.0,29.70,SSW,210,0.0,0.0,90,0.00,,OVC037,0.27,VWS V14.00,2013-05-12 02:44:00,
2013-05-11 22:45:00,57.8,54.9,29.71,SSW,210,0.0,0.0,90,0.00,,OVC037,0.27,VWS V14.00,2013-05-12 02:45:00,
2013-05-11 22:46:00,57.8,54.9,29.71,SSW,210,0.0,0.0,90,0.00,,OVC037,0.27,VWS V14.00,2013-05-12 02:46:00,
2013-05-11 22:47:00,57.8,54.9,29.70,SSW,210,0.0,0.0,90,0.00,,OVC037,0.27,VWS V14.00,2013-05-12 02:47:00,
2013-05-11 22:48:00,57.8,54.9,29.70,SSW,210,0.0,0.0,90,0.00,,OVC037,0.27,VWS V14.00,2013-05-12 02:48:00,
2013-05-11 22:49:00,57.8,54.9,29.70,SSW,210,0.0,0.0,90,0.00,,OVC037,0.27,VWS V14.00,2013-05-12 02:49:00,
2013-05-11 22:50:00,57.7,54.8,29.70,SSW,210,0.0,0.0,90,0.00,,OVC041,0.27,VWS V14.00,2013-05-12 02:50:00,
2013-05-11 22:51:00,57.7,54.8,29.70,SSW,210,0.0,0.0,90,0.00,,OVC041,0.27,VWS V14.00,2013-05-12 02:51:00,
2013-05-11 22:52:00,57.7,54.8,29.70,SSW,210,0.0,0.0,90,0.00,,OVC041,0.27,VWS V14.00,2013-05-12 02:52:00,
2013-05-11 22:53:00,57.7,54.8,29.71,SSW,210,0.0,0.0,90,0.00,,OVC041,0.27,VWS V14.00,2013-05-12 02:53:00,
2013-05-11 22:54:00,57.7,54.8,29.71,SSW,210,0.0,0.0,90,0.00,,OVC041,0.27,VWS V14.00,2013-05-12 02:54:00,
2013-05-11 22:55:00,57.7,54.8,29.71,SSW,210,0.0,0.0,90,0.00,,OVC041,0.27,VWS V14.00,2013-05-12 02:55:00,
2013-05-11 22:56:00,57.6,55.0,29.71,SSW,210,0.0,0.0,91,0.00,,OVC041,0.27,VWS V14.00,2013-05-12 02:56:00,
2013-05-11 22:57:00,57.6,55.0,29.71,SSW,210,0.0,0.0,91,0.00,,OVC041,0.27,VWS V14.00,2013-05-12 02:57:00,
2013-05-11 22:58:00,57.6,55.0,29.71,SSW,210,0.0,0.0,91,0.00,,OVC041,0.27,VWS V14.00,2013-05-12 02:58:00,
2013-05-11 22:59:00,57.6,55.0,29.71,SSW,210,0.0,0.0,91,0.00,,OVC041,0.27,VWS V14.00,2013-05-12 02:59:00,
2013-05-11 23:00:00,57.5,54.9,29.71,SSW,210,0.0,0.0,91,0.00,,OVC041,0.27,VWS V14.00,2013-05-12 03:00:00,
2013-05-11 23:01:00,57.5,54.9,29.71,SSW,210,0.0,1.0,91,0.00,,OVC041,0.27,VWS V14.00,2013-05-12 03:01:00,
2013-05-11 23:02:00,57.5,54.9,29.71,SSW,210,1.0,2.0,91,0.00,,OVC041,0.27,VWS V14.00,2013-05-12 03:02:00,
2013-05-11 23:03:00,57.5,54.9,29.71,SSW,210,0.0,4.0,91,0.00,,OVC041,0.27,VWS V14.00,2013-05-12 03:03:00,
2013-05-11 23:04:00,57.5,54.9,29.71,SSW,210,2.0,4.0,91,0.00,,OVC041,0.27,VWS V14.00,2013-05-12 03:04:00,
2013-05-11 23:05:00,57.5,54.9,29.71,SSW,210,2.0,4.0,91,0.00,,OVC041,0.27,VWS V14.00,2013-05-12 03:05:00,
2013-05-11 23:06:00,57.6,55.0,29.71,SSW,210,0.0,4.0,91,0.00,,OVC041,0.27,VWS V14.00,2013-05-12 03:06:00,
2013-05-11 23:07:00,57.6,55.0,29.71,SSW,210,0.0,4.0,91,0.00,,OVC041,0.27,VWS V14.00,2013-05-12 03:07:00,
2013-05-11 23:08:00,57.6,55.0,29.71,SSW,210,2.0,4.0,91,0.00,,OVC041,0.27,VWS V14.00,2013-05-12 03:08:00,
2013-05-11 23:09:00,57.7,55.1,29.71,WSW,245,2.0,5.0,91,0.00,,OVC041,0.27,VWS V14.00,2013-05-12 03:09:00,
2013-05-11 23:10:00,57.8,54.9,29.71,WSW,245,0.0,5.0,90,0.00,,OVC041,0.27,VWS V14.00,2013-05-12 03:10:00,
2013-05-11 23:11:00,57.8,54.9,29.71,WSW,245,0.0,0.0,90,0.00,,OVC041,0.27,VWS V14.00,2013-05-12 03:11:00,
2013-05-11 23:12:00,57.9,55.0,29.71,WSW,245,0.0,0.0,90,0.00,,OVC041,0.27,VWS V14.00,2013-05-12 03:12:00,
2013-05-11 23:13:00,57.8,54.9,29.71,WSW,245,0.0,0.0,90,0.00,,OVC041,0.27,VWS V14.00,2013-05-12 03:13:00,
2013-05-11 23:14:00,57.8,54.9,29.71,WSW,245,0.0,0.0,90,0.00,,OVC041,0.27,VWS V14.00,2013-05-12 03:14:00,
2013-05-11 23:15:00,57.8,54.9,29.71,WSW,245,0.0,0.0,90,0.00,,OVC041,0.27,VWS V14.00,2013-05-12 03:15:00,
2013-05-11 23:16:00,57.8,54.9,29.71,WSW,245,0.0,0.0,90,0.00,,OVC041,0.27,VWS V14.00,2013-05-12 03:16:00,
2013-05-11 23:17:00,57.8,54.9,29.71,WSW,245,0.0,0.0,90,0.00,,OVC041,0.27,VWS V14.00,2013-05-12 03:17:00,
2013-05-11 23:18:00,57.8,54.9,29.71,WSW,245,0.0,0.0,90,0.00,,OVC041,0.27,VWS V14.00,2013-05-12 03:18:00,
2013-05-11 23:20:00,57.8,54.9,29.71,North,0,0.0,0.0,90,0.00,,OVC041,0.27,VWS V14.00,2013-05-12 03:20:00,
2013-05-11 23:23:00,57.8,54.9,29.71,North,0,0.0,0.0,90,0.00,,OVC041,0.27,VWS V14.00,2013-05-12 03:23:00,
2013-05-11 23:24:00,57.7,54.8,29.71,WSW,245,0.0,0.0,90,0.00,,OVC041,0.27,VWS V14.00,2013-05-12 03:24:00,
2013-05-11 23:25:00,57.7,54.8,29.71,WSW,245,3.0,3.0,90,0.00,,OVC041,0.27,VWS V14.00,2013-05-12 03:25:00,
2013-05-11 23:26:00,57.6,54.7,29.71,WSW,245,2.0,4.0,90,0.00,,OVC041,0.27,VWS V14.00,2013-05-12 03:26:00,
2013-05-11 23:27:00,57.6,54.7,29.71,SW,236,3.0,4.0,90,0.00,,OVC041,0.27,VWS V14.00,2013-05-12 03:27:00,
2013-05-11 23:28:00,57.7,54.8,29.71,SW,217,4.0,4.0,90,0.00,,OVC041,0.27,VWS V14.00,2013-05-12 03:28:00,
2013-05-11 23:29:00,57.8,54.9,29.71,SW,217,0.0,4.0,90,0.00,,OVC041,0.27,VWS V14.00,2013-05-12 03:29:00,
2013-05-11 23:30:00,57.9,55.0,29.71,SW,217,0.0,4.0,90,0.00,,OVC041,0.27,VWS V14.00,2013-05-12 03:30:00,
2013-05-11 23:31:00,57.9,55.0,29.71,SW,217,0.0,2.0,90,0.00,,OVC041,0.27,VWS V14.00,2013-05-12 03:31:00,
2013-05-11 23:32:00,57.9,55.0,29.71,SW,217,0.0,2.0,90,0.00,,OVC041,0.27,VWS V14.00,2013-05-12 03:32:00,
2013-05-11 23:33:00,57.9,55.0,29.71,SW,217,2.0,3.0,90,0.00,,OVC041,0.27,VWS V14.00,2013-05-12 03:33:00,
2013-05-11 23:34:00,57.8,54.9,29.71,SW,217,0.0,3.0,90,0.00,,OVC041,0.27,VWS V14.00,2013-05-12 03:34:00,
2013-05-11 23:35:00,57.8,54.9,29.71,SW,217,0.0,3.0,90,0.00,,OVC041,0.27,VWS V14.00,2013-05-12 03:35:00,
2013-05-11 23:36:00,57.7,54.8,29.71,SSW,210,5.0,6.0,90,0.00,,OVC041,0.27,VWS V14.00,2013-05-12 03:36:00,
2013-05-11 23:37:00,57.8,54.9,29.71,SW,223,4.0,6.0,90,0.00,,OVC041,0.27,VWS V14.00,2013-05-12 03:37:00,
2013-05-11 23:38:00,57.8,54.9,29.71,SW,223,4.0,6.0,90,0.00,,OVC041,0.27,VWS V14.00,2013-05-12 03:38:00,
2013-05-11 23:39:00,57.8,54.9,29.71,SW,231,3.0,6.0,90,0.00,,OVC041,0.27,VWS V14.00,2013-05-12 03:39:00,
2013-05-11 23:40:00,57.9,55.0,29.71,SW,235,5.0,6.0,90,0.00,,OVC041,0.27,VWS V14.00,2013-05-12 03:40:00,
2013-05-11 23:41:00,58.0,55.1,29.71,WSW,237,4.0,7.0,90,0.00,,OVC041,0.27,VWS V14.00,2013-05-12 03:41:00,
2013-05-11 23:42:00,58.0,55.1,29.71,SW,236,4.0,9.0,90,0.00,,OVC041,0.27,VWS V14.00,2013-05-12 03:42:00,
2013-05-11 23:43:00,58.1,55.2,29.71,SW,236,6.0,9.0,90,0.00,,OVC041,0.27,VWS V14.00,2013-05-12 03:43:00,
2013-05-11 23:44:00,58.1,55.2,29.71,SSW,211,10.0,10.0,90,0.00,,OVC041,0.27,VWS V14.00,2013-05-12 03:44:00,
2013-05-11 23:45:00,58.1,55.2,29.71,SW,223,5.0,10.0,90,0.00,,OVC041,0.27,VWS V14.00,2013-05-12 03:45:00,
2013-05-11 23:46:00,58.1,55.2,29.71,WSW,242,5.0,10.0,90,0.00,,OVC041,0.27,VWS V14.00,2013-05-12 03:46:00,
2013-05-11 23:47:00,58.0,54.8,29.71,WSW,239,5.0,10.0,89,0.00,,OVC041,0.27,VWS V14.00,2013-05-12 03:47:00,
2013-05-11 23:48:00,58.0,54.8,29.71,WSW,253,9.0,10.0,89,0.00,,OVC041,0.27,VWS V14.00,2013-05-12 03:48:00,
2013-05-11 23:49:00,58.0,55.1,29.71,SSW,212,7.0,10.0,90,0.00,,OVC043,0.27,VWS V14.00,2013-05-12 03:49:00,
2013-05-11 23:50:00,58.0,54.8,29.71,SW,231,6.0,10.0,89,0.00,,OVC043,0.27,VWS V14.00,2013-05-12 03:50:00,
2013-05-11 23:51:00,57.9,54.7,29.71,SW,214,7.0,8.0,89,0.00,,OVC043,0.27,VWS V14.00,2013-05-12 03:51:00,
2013-05-11 23:52:00,57.9,54.7,29.71,SW,220,8.0,10.0,89,0.00,,OVC043,0.27,VWS V14.00,2013-05-12 03:52:00,
2013-05-11 23:53:00,57.8,54.6,29.71,SSW,206,10.0,10.0,89,0.00,,OVC043,0.27,VWS V14.00,2013-05-12 03:53:00,
2013-05-11 23:54:00,57.8,54.6,29.71,SSW,209,9.0,11.0,89,0.00,,OVC043,0.27,VWS V14.00,2013-05-12 03:54:00,
2013-05-11 23:55:00,57.9,55.0,29.71,SW,234,9.0,11.0,90,0.00,,OVC043,0.27,VWS V14.00,2013-05-12 03:55:00,
2013-05-11 23:56:00,57.9,55.0,29.71,SW,221,11.0,11.0,90,0.00,,OVC043,0.27,VWS V14.00,2013-05-12 03:56:00,
2013-05-11 23:57:00,57.9,55.0,29.72,SW,217,12.0,12.0,90,0.00,,OVC043,0.27,VWS V14.00,2013-05-12 03:57:00,
2013-05-11 23:58:00,57.8,54.6,29.71,SW,221,11.0,12.0,89,0.00,,OVC043,0.27,VWS V14.00,2013-05-12 03:58:00,
2013-05-11 23:59:00,57.8,54.6,29.71,SW,228,6.0,12.0,89,0.00,,OVC043,0.27,VWS V14.00,2013-05-12 03:59:00,